[[{"header":{"parameterUnit":"m.s-1","parameterCategory":1,"la1":30.6,"la2":28.766,"lo1":-90.7593,"lo2":-88.6598,"dy":0.0162,"dx":0.0183,"nx":116,"ny":114,"refTime":"2023-07-14T00:00:00:Z","depth":0,"parameterNumber":2,"parameterNumberName":"U-component_of_WINDS"},"data":[0.0,0.0,0.0,0.0,0.0,0.0,0.0,0.0,0.0,0.0,0.0,0.0,0.0,0.0,0.0,0.0,0.0,0.0,0.0,0.0,0.0,0.0,0.0,0.0,0.0,0.0,0.0,0.0,0.0,0.0,0.0,0.0,0.0,0.0,0.0,0.0,0.0,0.0,0.0,0.0,0.0,0.0,0.0,0.0,0.0,0.0,0.0,0.0,0.0,0.0,0.0,0.0,0.0,0.0,0.0,0.0,0.0,0.0,0.0,0.0,0.0,0.0,0.0,0.0,0.0,0.0,0.0,0.0,0.0,0.0,0.0,0.0,0.0,0.0,0.0,0.0,0.0,0.0,0.0,0.0,0.0,0.0,0.0,0.0,0.0,0.0,0.0,0.0,0.0,0.0,0.0,0.0,0.0,0.0,0.0,0.0,0.0,0.0,0.0,0.0,0.0,0.0,0.0,0.0,0.0,0.0,0.0,0.0,0.0,0.0,0.0,0.0,0.0,0.0,0.0,0.0,0.0,0.0,0.0,0.0,0.0,0.0,0.0,0.0,0.0,0.0,0.0,0.0,0.0,0.0,0.0,0.0,0.0,0.0,0.0,0.0,0.0,0.0,0.0,0.0,0.0,0.0,0.0,0.0,0.0,0.0,0.0,0.0,0.0,0.0,0.0,0.0,0.0,0.0,0.0,0.0,0.0,0.0,0.0,0.0,0.0,0.0,0.0,0.0,0.0,0.0,0.0,0.0,0.0,0.0,0.0,0.0,0.0,0.0,0.0,0.0,0.0,0.0,0.0,0.0,0.0,0.0,0.0,0.0,0.0,0.0,0.0,0.0,0.0,0.0,0.0,0.0,0.0,0.0,0.0,0.0,0.0,0.0,0.0,0.0,0.0,0.0,0.0,0.0,0.0,0.0,0.0,0.0,0.0,0.0,0.0,0.0,0.0,0.0,0.0,0.0,0.0,0.0,0.0,0.0,0.0,0.0,0.0,0.0,0.0,0.0,0.0,0.0,0.0,0.0,0.0,0.0,0.0,0.0,0.0,0.0,0.0,0.0,0.0,0.0,0.0,0.0,0.0,0.0,0.0,0.0,0.0,0.0,0.0,0.0,0.0,0.0,0.0,0.0,0.0,0.0,0.0,0.0,0.0,0.0,0.0,0.0,0.0,0.0,0.0,0.0,0.0,0.0,0.0,0.0,0.0,0.0,0.0,0.0,0.0,0.0,0.0,0.0,0.0,0.0,0.0,0.0,0.0,0.0,0.0,0.0,0.0,0.0,0.0,0.0,0.0,0.0,0.0,0.0,0.0,0.0,0.0,0.0,0.0,0.0,0.0,0.0,0.0,0.0,0.0,0.0,0.0,0.0,0.0,0.0,0.0,0.0,0.0,0.0,0.0,0.0,0.0,0.0,0.0,0.0,0.0,0.0,0.0,0.0,0.0,0.0,0.0,0.0,0.0,0.0,0.0,0.0,0.0,0.0,0.0,0.0,0.0,0.0,0.0,0.0,0.0,0.0,0.0,0.0,0.0,0.0,0.0,0.0,0.0,0.0,0.0,0.0,0.0,0.0,0.0,0.0,0.0,0.0,0.0,0.0,0.0,0.0,0.0,0.0,0.0,0.0,0.0,0.0,0.0,0.0,0.0,0.0,0.0,0.0,0.0,0.0,0.0,0.0,0.0,0.0,0.0,0.0,0.0,0.0,0.0,0.0,0.0,0.0,0.0,0.0,0.0,0.0,0.0,0.0,0.0,0.0,0.0,0.0,0.0,0.0,0.0,0.0,0.0,0.0,0.0,0.0,0.0,0.0,0.0,0.0,0.0,0.0,0.0,0.0,0.0,0.0,0.0,0.0,0.0,0.0,0.0,0.0,0.0,0.0,0.0,0.0,0.0,0.0,0.0,0.0,0.0,0.0,0.0,0.0,0.0,0.0,0.0,0.0,0.0,0.0,0.0,0.0,0.0,0.0,0.0,0.0,0.0,0.0,0.0,0.0,0.0,0.0,0.0,0.0,0.0,0.0,0.0,0.0,0.0,0.0,0.0,0.0,0.0,0.0,0.0,0.0,0.0,0.0,0.0,0.0,0.0,0.0,0.0,0.0,0.0,0.0,0.0,0.0,0.0,0.0,0.0,0.0,0.0,0.0,0.0,0.0,0.0,0.0,0.0,0.0,0.0,0.0,0.0,0.0,0.0,0.0,0.0,0.0,0.0,0.0,0.0,0.0,0.0,0.0,0.0,0.0,0.0,0.0,0.0,0.0,0.0,0.0,0.0,0.0,0.0,0.0,0.0,0.0,0.0,0.0,0.0,0.0,0.0,0.0,0.0,0.0,0.0,0.0,0.0,0.0,0.0,0.0,0.0,0.0,0.0,0.0,0.0,0.0,0.0,0.0,0.0,0.0,0.0,0.0,0.0,0.0,0.0,0.0,0.0,0.0,0.0,0.0,0.0,0.0,0.0,0.0,0.0,0.0,0.0,0.0,0.0,0.0,0.0,0.0,0.0,0.0,0.0,0.0,0.0,0.0,0.0,0.0,0.0,0.0,0.0,0.0,0.0,0.0,0.0,0.0,0.0,0.0,0.0,0.0,0.0,0.0,0.0,0.0,0.0,0.0,0.0,0.0,0.0,0.0,0.0,0.0,0.0,0.0,0.0,0.0,0.0,0.0,0.0,0.0,0.0,0.0,0.0,0.0,0.0,0.0,0.0,0.0,0.0,0.0,0.0,0.0,0.0,0.0,0.0,0.0,0.0,0.0,0.0,0.0,0.0,0.0,0.0,0.0,0.0,0.0,0.0,0.0,0.0,0.0,0.0,0.0,0.0,0.0,0.0,0.0,0.0,0.0,0.0,0.0,0.0,0.0,0.0,0.0,0.0,0.0,0.0,0.0,0.0,0.0,0.0,0.0,0.0,0.0,0.0,0.0,0.0,0.0,0.0,0.0,0.0,0.0,0.0,0.0,0.0,0.0,0.0,0.0,0.0,0.0,0.0,0.0,0.0,0.0,0.0,0.0,0.0,0.0,0.0,0.0,0.0,0.0,0.0,0.0,0.0,0.0,0.0,0.0,0.0,0.0,0.0,0.0,0.0,0.0,0.0,0.0,0.0,0.0,0.0,0.0,0.0,0.0,0.0,0.0,0.0,0.0,0.0,0.0,0.0,0.0,0.0,0.0,0.0,0.0,0.0,0.0,0.0,0.0,0.0,0.0,0.0,0.0,0.0,0.0,0.0,0.0,0.0,0.0,0.0,0.0,0.0,0.0,0.0,0.0,0.0,0.0,0.0,0.0,0.0,0.0,0.0,0.0,0.0,0.0,0.0,0.0,0.0,0.0,0.0,0.0,0.0,0.0,0.0,0.0,0.0,0.0,0.0,0.0,0.0,0.0,0.0,0.0,0.0,0.0,0.0,0.0,0.0,0.0,0.0,0.0,0.0,0.0,0.0,0.0,0.0,0.0,0.0,0.0,0.0,0.0,0.0,0.0,0.0,0.0,0.0,0.0,0.0,0.0,0.0,0.0,0.0,0.0,0.0,0.0,0.0,0.0,0.0,0.0,0.0,0.0,0.0,0.0,0.0,0.0,0.0,0.0,0.0,0.0,0.0,0.0,0.0,0.0,0.0,0.0,0.0,0.0,0.0,0.0,0.0,0.0,0.0,0.0,0.0,0.0,0.0,0.0,0.0,0.0,0.0,0.0,0.0,0.0,0.0,0.0,0.0,0.0,0.0,0.0,0.0,0.0,0.0,0.0,0.0,0.0,0.0,0.0,0.0,0.0,0.0,0.0,0.0,0.0,0.0,0.0,0.0,0.0,0.0,0.0,0.0,0.0,0.0,0.0,0.0,0.0,0.0,0.0,0.0,0.0,0.0,0.0,0.0,0.0,0.0,0.0,0.0,0.0,0.0,0.0,0.0,0.0,0.0,0.0,0.0,0.0,0.0,0.0,0.0,0.0,0.0,0.0,0.0,0.0,0.0,0.0,0.0,0.0,0.0,0.0,0.0,0.0,0.0,0.0,0.0,0.0,0.0,0.0,0.0,0.0,0.0,0.0,0.0,0.0,0.0,0.0,0.0,0.0,0.0,0.0,0.0,0.0,0.0,0.0,0.0,0.0,0.0,0.0,0.0,0.0,0.0,0.0,0.0,0.0,0.0,0.0,0.0,0.0,0.0,0.0,0.0,0.0,0.0,0.0,0.0,0.0,0.0,0.0,0.0,0.0,0.0,0.0,0.0,0.0,0.0,0.0,0.0,0.0,0.0,0.0,0.0,0.0,0.0,0.0,0.0,0.0,0.0,0.0,0.0,0.0,0.0,0.0,0.0,0.0,0.0,0.0,0.0,0.0,0.0,0.0,0.0,0.0,0.0,0.0,0.0,0.0,0.0,0.0,0.0,0.0,0.0,0.0,0.0,0.0,0.0,0.0,0.0,0.0,0.0,0.0,0.0,0.0,0.0,0.0,0.0,0.0,0.0,0.0,0.0,0.0,0.0,0.0,0.0,0.0,0.0,0.0,0.0,0.0,0.0,0.0,0.0,0.0,0.0,0.0,0.0,0.0,0.0,0.0,0.0,0.0,0.0,0.0,0.0,0.0,0.0,0.0,0.0,0.0,0.0,0.0,0.0,0.0,0.0,0.0,0.0,0.0,0.0,0.0,0.0,0.0,0.0,0.0,0.0,0.0,0.0,0.0,0.0,0.0,0.0,0.0,0.0,0.0,0.0,0.0,0.0,0.0,0.0,0.0,0.0,0.0,0.0,0.0,0.0,0.0,0.0,0.0,0.0,0.0,0.0,0.0,0.0,0.0,0.0,0.0,0.0,0.0,0.0,0.0,0.0,0.0,0.0,0.0,0.0,0.0,0.0,0.0,0.0,0.0,0.0,0.0,0.0,0.0,0.0,0.0,0.0,0.0,0.0,0.0,0.0,0.0,0.0,0.0,0.0,0.0,0.0,0.0,0.0,0.0,0.0,0.0,0.0,0.0,0.0,0.0,0.0,0.0,0.0,0.0,0.0,0.0,0.0,0.0,0.0,0.0,0.0,0.0,0.0,0.0,0.0,0.0,0.0,0.0,0.0,0.0,0.0,0.0,0.0,0.0,0.0,0.0,0.0,0.0,0.0,0.0,0.0,0.0,0.0,0.0,0.0,0.0,0.0,0.0,0.0,0.0,0.0,0.0,0.0,0.0,0.0,0.0,0.0,0.0,0.0,0.0,0.0,0.0,0.0,0.0,0.0,0.0,0.0,0.0,0.0,0.0,0.0,0.0,0.0,0.0,0.0,0.0,0.0,0.0,0.0,0.0,0.0,0.0,0.0,0.0,0.0,0.0,0.0,0.0,0.0,0.0,0.0,0.0,0.0,0.0,0.0,0.0,0.0,0.0,0.0,0.0,0.0,0.0,0.0,0.0,0.0,0.0,0.0,0.0,0.0,0.0,0.0,0.0,0.0,0.0,0.0,0.0,0.0,0.0,0.0,0.0,0.0,0.0,0.0,0.0,0.0,0.0,0.0,0.0,0.0,0.0,0.0,0.0,0.0,0.0,0.0,0.0,0.0,0.0,0.0,0.0,0.0,0.0,0.0,0.0,0.0,0.0,0.0,0.0,0.0,0.0,0.0,0.0,0.0,0.0,0.0,0.0,0.0,0.0,0.0,0.0,0.0,0.0,0.0,0.0,0.0,0.0,0.0,0.0,0.0,0.0,0.0,0.0,0.0,0.0,0.0,0.0,0.0,0.0,0.0,0.0,0.0,0.0,0.0,0.0,0.0,0.0,0.0,0.0,0.0,0.0,0.0,0.0,0.0,0.0,0.0,0.0,0.0,0.0,0.0,0.0,0.0,0.0,0.0,0.0,0.0,0.0,0.0,0.0,0.0,0.0,0.0,0.0,0.0,0.0,0.0,0.0,0.0,0.0,0.0,0.0,0.0,0.0,0.0,0.0,0.0,0.0,0.0,0.0,0.0,0.0,0.0,0.0,0.0,0.0,0.0,0.0,0.0,0.0,0.0,0.0,0.0,0.0,0.0,0.0,0.0,0.0,0.0,0.0,0.0,0.0,0.0,0.0,0.0,0.0,0.0,0.0,0.0,0.0,0.0,0.0,0.0,0.0,0.0,0.0,-0.7987,0.0,0.0,0.0,0.0,0.0,0.0,0.0,0.0,0.0,0.0,0.0,0.0,0.0,0.0,0.0,0.0,0.0,0.0,0.0,0.0,0.0,0.0,0.0,0.0,0.0,0.0,0.0,0.0,0.0,0.0,0.0,0.0,0.0,0.0,0.0,0.0,0.0,0.0,0.0,0.0,0.0,0.0,0.0,0.0,0.0,0.0,0.0,0.0,0.0,0.0,0.0,0.0,0.0,0.0,0.0,0.0,0.0,0.0,0.0,0.0,0.0,0.0,0.0,0.0,0.0,0.0,0.0,0.0,0.0,0.0,0.0,0.0,0.0,0.0,0.0,0.0,0.0,0.0,0.0,0.0,0.0,0.0,0.0,0.0,0.0,0.0,0.0,0.0,0.0,0.0,0.0,0.0,0.0,0.0,0.0,0.0,0.0,0.0,0.0,0.0,0.0,0.0,0.0,0.0,0.0,0.0,0.0,0.0,0.0,0.0,0.0,0.0,0.0,0.0,0.0,0.0,-0.8207,0.0,0.0,0.0,0.0,0.0,0.0,0.0,0.0,0.0,0.0,0.0,0.0,0.0,0.0,0.0,0.0,0.0,0.0,0.0,0.0,0.0,0.0,0.0,0.0,0.0,0.0,0.0,0.0,0.0,0.0,0.0,0.0,0.0,0.0,0.0,0.0,0.0,0.0,0.0,0.0,0.0,0.0,0.0,0.0,0.0,0.0,0.0,0.0,0.0,0.0,0.0,0.0,0.0,0.0,0.0,0.0,0.0,0.0,0.0,0.0,0.0,0.0,0.0,0.0,0.0,0.0,0.0,0.0,0.0,0.0,0.0,0.0,0.0,0.0,0.0,0.0,0.0,0.0,0.0,0.0,0.0,0.0,0.0,0.0,0.0,0.0,0.0,0.0,0.0,0.0,0.0,0.0,0.0,0.0,0.0,0.0,0.0,0.0,0.0,0.0,0.0,0.0,0.0,0.0,0.0,0.0,0.0,0.0,-1.054,-1.0661,-1.0731,-1.0725,-1.0536,-1.0223,-0.9479,-0.9019,-0.8728,0.0,0.0,0.0,0.0,0.0,0.0,0.0,0.0,0.0,0.0,0.0,0.0,0.0,0.0,0.0,0.0,0.0,0.0,0.0,0.0,0.0,0.0,0.0,0.0,0.0,0.0,0.0,0.0,0.0,0.0,0.0,0.0,0.0,0.0,0.0,0.0,0.0,0.0,0.0,-1.2126,-1.2793,-1.2937,-1.2631,-1.1694,0.0,0.0,0.0,0.0,0.0,0.0,0.0,0.0,0.0,0.0,0.0,0.0,0.0,0.0,0.0,0.0,0.0,0.0,0.0,0.0,0.0,0.0,0.0,0.0,0.0,0.0,0.0,0.0,0.0,0.0,0.0,0.0,0.0,0.0,0.0,0.0,0.0,0.0,0.0,0.0,0.0,0.0,0.0,-0.6933,-0.6905,0.0,0.0,0.0,0.0,0.0,0.0,0.0,0.0,0.0,0.0,0.0,0.0,0.0,-1.0068,-1.0561,-1.0609,-1.0846,-1.1263,-1.1101,-1.1272,-1.1807,-1.1582,-1.1363,-1.1217,-1.1068,0.0,-0.965,-0.9587,0.0,0.0,0.0,0.0,0.0,0.0,0.0,0.0,0.0,0.0,0.0,0.0,0.0,0.0,0.0,0.0,0.0,0.0,0.0,0.0,0.0,0.0,0.0,0.0,0.0,0.0,0.0,0.0,0.0,0.0,0.0,0.0,0.0,0.0,0.0,0.0,-1.2312,-1.294,-1.3186,-1.3851,-1.399,-1.3798,-1.3574,-1.2979,-1.2146,-1.1741,0.0,0.0,0.0,0.0,0.0,0.0,0.0,0.0,0.0,0.0,0.0,0.0,0.0,0.0,0.0,0.0,0.0,0.0,0.0,0.0,0.0,0.0,0.0,0.0,0.0,0.0,0.0,0.0,0.0,0.0,0.0,0.0,0.0,0.0,0.0,0.0,0.0,0.0,0.0,-0.7068,-0.7688,-0.7909,-0.8177,-0.827,0.0,0.0,0.0,0.0,0.0,0.0,0.0,0.0,0.0,-1.0635,-1.0655,-1.0876,-1.1266,-1.1429,-1.1638,-1.1812,-1.19,-1.1954,-1.2125,-1.1964,-1.1809,-1.166,-1.1576,-1.1235,-1.0773,-1.0323,-0.9846,-0.9383,0.0,0.0,0.0,0.0,-0.8354,-0.8349,0.0,0.0,0.0,0.0,0.0,0.0,0.0,0.0,0.0,0.0,0.0,0.0,0.0,0.0,0.0,-1.3403,0.0,0.0,0.0,0.0,0.0,0.0,0.0,0.0,0.0,0.0,0.0,0.0,-1.3648,-1.4136,-1.4351,-1.494,-1.5081,-1.4885,-1.5145,-1.459,-1.3441,-1.2822,-1.2292,0.0,0.0,0.0,0.0,0.0,0.0,0.0,0.0,0.0,0.0,0.0,0.0,0.0,0.0,0.0,0.0,0.0,0.0,0.0,0.0,0.0,0.0,0.0,0.0,0.0,0.0,0.0,0.0,0.0,0.0,0.0,0.0,0.0,0.0,0.0,0.0,0.0,0.0,-0.7924,-0.8461,-0.8978,-0.9219,-0.933,0.0,0.0,0.0,0.0,0.0,0.0,-1.0066,-1.056,-1.104,-1.1327,-1.141,-1.1614,-1.1967,-1.2245,-1.2422,-1.2578,-1.2706,-1.2675,-1.2661,-1.2579,-1.2413,-1.2324,-1.2011,-1.1905,-1.1758,-1.09,-1.0363,-0.9979,-0.9791,-0.949,-0.9265,-0.9259,-0.9259,-0.9192,0.0,0.0,0.0,0.0,0.0,0.0,0.0,0.0,0.0,0.0,0.0,0.0,0.0,0.0,-1.4021,-1.3978,-1.4655,-1.4894,0.0,0.0,0.0,0.0,0.0,0.0,0.0,0.0,0.0,-1.3768,-1.5216,-1.5747,-1.5438,-1.6169,-1.6439,-1.6203,-1.6008,-1.5386,-1.4466,-1.4164,-1.3739,-1.3197,0.0,0.0,0.0,0.0,0.0,0.0,0.0,0.0,0.0,0.0,0.0,0.0,0.0,0.0,0.0,0.0,0.0,0.0,0.0,0.0,0.0,0.0,0.0,0.0,0.0,0.0,0.0,0.0,0.0,0.0,0.0,0.0,0.0,0.0,0.0,0.0,0.0,0.0,0.0,-0.9988,-1.0155,0.0,0.0,0.0,0.0,-1.0537,-1.0811,-1.1064,-1.1064,-1.1331,-1.1702,-1.2075,-1.2264,-1.2536,-1.2826,-1.3098,-1.337,-1.3722,-1.3486,-1.3554,-1.3808,-1.3525,-1.3435,-1.3417,-1.291,-1.2622,-1.2294,-1.1447,-1.0993,-1.0767,-1.0755,-1.0526,-1.0306,-1.0146,-1.0146,-1.0146,0.0,0.0,0.0,0.0,0.0,0.0,0.0,0.0,0.0,0.0,0.0,0.0,0.0,-1.3729,-1.4838,-1.5712,-1.55,-1.5384,-1.5614,0.0,0.0,0.0,0.0,0.0,0.0,0.0,-1.4549,-1.5632,-1.5929,-1.6243,-1.6581,-1.703,-1.7037,-1.6899,-1.6896,-1.6618,-1.6162,-1.5216,-1.4593,-1.4119,-1.3165,-1.2243,0.0,0.0,0.0,0.0,0.0,0.0,0.0,0.0,0.0,0.0,0.0,0.0,0.0,0.0,0.0,0.0,0.0,0.0,0.0,0.0,0.0,0.0,0.0,0.0,0.0,0.0,0.0,0.0,0.0,0.0,0.0,0.0,0.0,0.0,0.0,0.0,0.0,-1.0947,-1.1211,0.0,-1.1464,-1.157,-1.1683,-1.1683,-1.184,-1.2,-1.2181,-1.2323,-1.2581,-1.2962,-1.3074,-1.3163,-1.3261,-1.3352,-1.345,-1.3638,-1.3554,-1.3519,-1.361,-1.3513,-1.3513,-1.3507,-1.296,-1.2739,-1.2626,-1.1999,-1.1475,-1.0882,-1.0729,-1.0619,-1.0543,-1.0458,-1.0458,-1.0458,0.0,0.0,0.0,0.0,0.0,0.0,0.0,0.0,0.0,0.0,0.0,-1.2022,-1.3323,-1.4427,-1.5559,-1.6781,-1.6382,-1.6216,-1.6492,0.0,0.0,0.0,0.0,0.0,0.0,-1.5155,-1.5696,-1.6603,-1.6813,-1.7054,-1.7412,-1.7769,-1.7852,-1.7717,-1.7763,-1.7672,-1.7523,-1.6389,-1.561,-1.5094,-1.4135,-1.3333,-1.2621,0.0,0.0,0.0,0.0,0.0,0.0,0.0,0.0,0.0,0.0,0.0,0.0,0.0,0.0,0.0,0.0,0.0,0.0,0.0,0.0,0.0,0.0,0.0,0.0,0.0,0.0,0.0,0.0,0.0,0.0,0.0,0.0,0.0,0.0,0.0,-1.1219,-1.1906,-1.2077,-1.2211,-1.2311,-1.2585,-1.2752,-1.2752,-1.289,-1.3037,-1.3136,-1.3168,-1.3318,-1.342,-1.3517,-1.3562,-1.3646,-1.3731,-1.3779,-1.3779,-1.3779,-1.3779,-1.3779,-1.3779,-1.3779,-1.3773,-1.3314,-1.2998,-1.29,-1.2356,-1.1858,-1.1327,-1.1171,-1.1112,-1.1101,-1.1025,-1.0993,-1.0982,0.0,0.0,0.0,0.0,0.0,0.0,0.0,0.0,0.0,0.0,-1.1492,-1.2533,-1.3859,-1.5204,-1.6302,-1.6968,-1.7312,-1.7413,-1.7186,-1.6595,0.0,0.0,0.0,0.0,-1.5439,-1.6627,-1.7047,-1.6657,-1.7857,-1.8219,-1.7848,-1.8606,-1.878,-1.8614,-1.8564,-1.8473,-1.8448,-1.7685,-1.6889,-1.615,-1.4961,-1.4261,-1.38,0.0,0.0,0.0,0.0,0.0,0.0,0.0,0.0,0.0,0.0,0.0,0.0,0.0,0.0,0.0,0.0,0.0,0.0,0.0,0.0,0.0,0.0,0.0,0.0,0.0,0.0,0.0,0.0,0.0,0.0,0.0,0.0,0.0,-1.1136,-1.1625,-1.2158,-1.2851,-1.2907,-1.2906,-1.3206,-1.3507,-1.3599,-1.3599,-1.4038,-1.4093,-1.383,-1.3835,-1.381,-1.3538,-1.3785,-1.3918,-1.3918,-1.4171,-1.4298,-1.4298,-1.4298,-1.4298,-1.4298,-1.4298,-1.4298,-1.428,-1.3844,-1.345,-1.3145,-1.2623,-1.234,-1.2162,-1.2145,-1.214,-1.2113,-1.179,-1.1709,-1.1677,0.0,0.0,0.0,0.0,0.0,0.0,0.0,0.0,0.0,0.0,-1.1697,-1.285,-1.454,-1.5549,-1.6705,-1.8082,-1.7932,-1.7867,-1.8239,0.0,0.0,0.0,0.0,0.0,-1.7044,-1.7126,-1.7605,-1.835,-1.8688,-1.8904,-1.9111,-1.9279,-1.9338,-1.9262,-1.8862,-1.8654,-1.8465,-1.8124,-1.7568,-1.6913,-1.6024,-1.5268,-1.454,0.0,0.0,0.0,0.0,0.0,0.0,0.0,0.0,0.0,0.0,0.0,0.0,0.0,0.0,0.0,0.0,0.0,0.0,0.0,0.0,0.0,0.0,0.0,0.0,0.0,0.0,0.0,0.0,0.0,0.0,0.0,0.0,-1.2265,-1.2265,-1.248,-1.2799,-1.3258,-1.3561,-1.3754,-1.3841,-1.4309,-1.4603,-1.4603,-1.4566,-1.4482,-1.4415,-1.4228,-1.4173,-1.4075,-1.4153,-1.4189,-1.4189,-1.4262,-1.4298,-1.4298,-1.4298,-1.4298,-1.4298,-1.4298,-1.4298,-1.4292,-1.3945,-1.382,-1.3718,-1.3357,-1.3042,-1.2813,-1.2276,-1.214,-1.2129,-1.1973,-1.1951,-1.1919,0.0,0.0,0.0,0.0,0.0,0.0,0.0,0.0,0.0,0.0,-1.1765,-1.2985,-1.4812,-1.5773,-1.6886,-1.8357,-1.8082,-1.7992,-1.8307,0.0,0.0,0.0,0.0,-1.7635,-1.8104,-1.819,-1.8441,-1.9002,-1.9362,-1.9525,-1.9588,-1.9827,-1.9825,-1.9756,-1.9397,-1.9201,-1.9096,-1.8603,-1.8169,-1.7833,-1.7028,-1.6158,-1.541,-1.4839,-1.4237,-1.359,-1.3172,-1.284,-1.2527,-1.2043,0.0,0.0,0.0,0.0,0.0,0.0,0.0,0.0,0.0,0.0,0.0,0.0,0.0,0.0,0.0,0.0,0.0,0.0,0.0,0.0,0.0,0.0,0.0,0.0,-1.2654,-1.3184,-1.3355,-1.3488,-1.366,-1.3844,-1.4257,-1.4456,-1.4456,-1.4877,-1.5144,-1.5144,-1.5159,-1.5028,-1.4829,-1.4855,-1.47,-1.4467,-1.4582,-1.4588,-1.4473,-1.4473,-1.4413,-1.4298,-1.4298,-1.4298,-1.4298,-1.4298,-1.4298,0.0,-1.4112,-1.4022,-1.3931,-1.3738,-1.3539,0.0,0.0,0.0,0.0,0.0,-1.2134,-1.2118,0.0,0.0,0.0,0.0,0.0,0.0,0.0,0.0,0.0,0.0,0.0,-1.2942,-1.4765,-1.5734,-1.6762,-1.8045,-1.7948,-1.785,0.0,0.0,0.0,-1.8165,-1.8378,-1.8547,-1.8701,-1.929,-1.9488,-1.9154,-1.9906,-2.0062,-1.9743,-2.0291,-2.0413,-2.0166,-2.0056,-1.9928,-1.982,-1.9142,-1.8816,-1.8637,-1.7816,-1.6969,-1.6285,-1.567,-1.518,-1.4637,-1.4294,-1.3845,-1.3442,-1.3078,0.0,0.0,0.0,0.0,0.0,0.0,0.0,0.0,0.0,0.0,0.0,0.0,0.0,0.0,0.0,0.0,0.0,0.0,0.0,0.0,0.0,0.0,0.0,0.0,-1.339,-1.3873,-1.4412,-1.4477,-1.4477,-1.445,-1.4852,-1.5017,-1.5017,-1.5277,-1.5444,-1.5444,-1.5712,-1.5599,-1.5134,0.0,0.0,0.0,0.0,-1.4998,-1.4763,-1.4763,-1.4636,-1.4389,-1.4358,-1.4346,-1.434,-1.431,-1.4298,-1.4298,-1.4298,-1.4208,-1.3931,-1.3931,-1.3835,-1.3539,-1.3244,-1.2953,-1.2737,-1.2533,-1.2318,-1.2124,0.0,0.0,0.0,0.0,0.0,0.0,0.0,0.0,0.0,-1.0978,-1.1607,-1.2602,-1.4464,-1.505,-1.6003,-1.781,-1.769,-1.7901,0.0,0.0,-1.8499,-1.8909,-1.9114,-1.9294,-1.9397,-1.9668,-1.9936,-2.0062,-2.0489,-2.0643,-2.0569,-2.0974,-2.1087,-2.0801,-2.0619,-2.0292,-1.9928,-1.9761,-1.9298,-1.8677,-1.854,-1.7881,-1.7,-1.6108,-1.5668,-1.5339,-1.4842,-1.453,-1.4349,-1.4029,-1.3996,-1.3917,-1.3177,0.0,0.0,0.0,0.0,0.0,0.0,0.0,0.0,0.0,0.0,0.0,0.0,0.0,0.0,0.0,0.0,0.0,0.0,0.0,0.0,-1.4195,-1.4454,-1.4665,-1.5089,-1.5176,-1.5147,-1.4912,-1.5104,-1.5311,-1.5311,-1.5578,-1.5745,-1.5745,-1.5833,-1.5713,-1.5414,-1.5469,-1.5325,-1.5028,-1.5083,-1.5083,-1.5034,-1.5034,-1.5004,-1.495,0.0,0.0,-1.463,-1.4401,-1.4298,-1.4298,-1.4298,-1.4298,-1.4202,-1.4202,-1.4016,-1.3738,-1.3244,-1.2953,-1.2759,-1.2716,-1.2667,-1.2597,0.0,0.0,0.0,0.0,0.0,0.0,0.0,0.0,0.0,0.0,-1.1282,-1.2354,-1.3792,-1.4685,-1.5636,-1.6758,-1.6944,0.0,0.0,-1.8497,-1.8733,-1.9177,-1.9658,-1.993,-1.9877,-2.0232,-2.0438,-2.0411,-2.0738,-2.0818,-2.0773,-2.1067,-2.1193,-2.1195,-2.0835,-2.0564,-2.0292,-2.0019,-1.9645,-1.9274,-1.8645,-1.8208,-1.7656,-1.6854,-1.6382,-1.5944,-1.5359,-1.5087,-1.4963,-1.4558,-1.4381,-1.4233,-1.3807,-1.3545,-1.3294,0.0,0.0,0.0,0.0,0.0,0.0,0.0,0.0,0.0,0.0,0.0,0.0,0.0,0.0,-1.3366,0.0,0.0,-1.4641,-1.4727,-1.4888,-1.5116,-1.5318,-1.5396,-1.5344,-1.5197,-1.5438,-1.5611,-1.5611,-1.5745,-1.573,-1.5642,-1.5829,-1.5699,-1.5293,-1.5588,-1.5608,-1.5306,-1.5433,-1.5439,-1.5306,-1.5306,-1.524,-1.5107,-1.5068,-1.5102,-1.5095,-1.4918,-1.4795,-1.4686,-1.4551,-1.4394,-1.4298,-1.4298,-1.4112,-1.3835,-1.3636,-1.3346,-1.3152,-1.3152,-1.3152,-1.3136,0.0,0.0,0.0,0.0,0.0,0.0,0.0,0.0,0.0,0.0,-1.0833,-1.1979,-1.3056,-1.4169,-1.5077,0.0,0.0,0.0,0.0,-1.8251,-1.8708,-1.9304,-1.9958,-2.0267,-2.0145,-2.0662,-2.0807,-2.0654,-2.0866,-2.0919,-2.0819,-2.0994,-2.1112,-2.1246,-2.0793,-2.0606,-2.0517,-1.9979,-1.9799,-1.9659,-1.8729,-1.8189,-1.8013,-1.7552,-1.6964,-1.6347,-1.5859,-1.5496,-1.5203,-1.4803,-1.4483,-1.4246,-1.4116,-1.4007,-1.3739,-1.3127,-1.2956,0.0,0.0,0.0,0.0,0.0,0.0,0.0,0.0,0.0,-1.3104,-1.3739,-1.4137,-1.4429,-1.4743,-1.5,-1.5203,-1.5041,-1.5212,-1.5399,-1.5444,-1.5478,-1.5478,-1.5478,-1.5691,-1.5832,-1.5832,-1.573,-1.5662,-1.5625,-1.5713,-1.5703,-1.5252,-1.5626,-1.5787,-1.5572,-1.5777,-1.5789,-1.5578,-1.5682,-1.5573,-1.536,-1.5503,-1.5675,-1.5663,-1.56,-1.5474,-1.5258,-1.4886,-1.4641,-1.4394,-1.4298,-1.4208,-1.4027,-1.4027,-1.3829,-1.3636,-1.3539,-1.3539,-1.3539,0.0,0.0,0.0,0.0,0.0,0.0,0.0,0.0,0.0,0.0,0.0,0.0,0.0,0.0,0.0,0.0,0.0,0.0,-1.7667,-1.8302,-1.8866,-1.9347,-1.9825,-2.0167,-2.0349,-2.0645,-2.0803,-2.0906,-2.1105,-2.1099,-2.0924,-2.0819,-2.0772,-2.0574,-2.0328,-2.0157,-1.9901,-1.9626,-1.9368,-1.9187,-1.886,-1.8283,-1.7649,-1.7608,-1.7115,-1.6347,-1.6028,-1.5583,-1.5203,-1.4803,-1.4483,-1.4283,-1.4246,-1.4139,-1.3999,-1.3754,0.0,-1.352,-1.2881,-1.2607,-1.2453,-1.2491,-1.2927,-1.344,0.0,0.0,-1.4438,-1.5104,-1.5347,-1.5397,-1.5448,-1.5611,-1.5664,-1.5579,-1.5638,-1.5745,-1.5772,-1.5785,-1.5785,-1.5785,-1.5812,-1.5832,-1.5832,-1.5635,-1.5652,-1.583,-1.5706,-1.5663,-1.5816,-1.5903,-1.5849,-1.5849,-1.5873,-1.5879,-1.5849,-1.6062,-1.6156,-1.6125,-1.6185,-1.6169,-1.6156,-1.5992,-1.5972,-1.5852,-1.527,-1.4911,-1.4592,-1.4394,-1.4298,-1.4298,-1.4298,-1.4202,-1.4106,-1.363,-1.3539,-1.3539,0.0,0.0,0.0,0.0,0.0,0.0,0.0,0.0,0.0,0.0,0.0,0.0,0.0,0.0,0.0,0.0,0.0,0.0,-1.6938,-1.7712,-1.8504,-1.9375,-1.9814,-2.0058,-2.0177,-2.0679,-2.092,-2.0813,-2.0966,-2.1075,-2.1079,-2.0929,-2.0799,-2.068,-2.0437,-2.0277,-2.0032,-1.9768,-1.9504,-1.9307,-1.8837,-1.8188,-1.7433,-1.7057,-1.6589,-1.5968,-1.588,-1.5699,0.0,0.0,-1.4698,-1.4501,-1.4501,-1.4413,-1.425,-1.4174,-1.4057,0.0,-1.3361,-1.3605,0.0,0.0,-1.4219,-1.4743,-1.5204,-1.5313,-1.5449,-1.5948,-1.592,-1.5833,-1.5964,-1.5844,-1.5745,0.0,-1.5752,-1.5832,-1.5832,-1.5832,-1.5832,-1.5832,-1.5832,-1.5832,-1.5832,-1.5635,-1.5569,-1.5673,-1.5545,-1.5515,-1.5695,-1.5858,-1.5891,-1.5891,-1.5891,-1.5998,-1.6105,-1.6217,-1.643,-1.6524,-1.6733,-1.6781,-1.6774,-1.6697,-1.6377,-1.5952,-1.5541,-1.5136,-1.4688,-1.4592,-1.4394,-1.4298,-1.4298,-1.4298,-1.4298,-1.401,-1.4016,-1.4016,0.0,0.0,0.0,0.0,0.0,0.0,0.0,0.0,0.0,0.0,0.0,0.0,0.0,0.0,0.0,0.0,0.0,0.0,0.0,-1.7217,-1.8182,-1.8967,-1.9613,-1.9911,-2.0048,-2.0561,-2.0731,-2.0708,-2.0672,-2.0767,-2.0958,-2.0605,-2.0442,-2.0498,-2.0151,-1.9861,-1.9707,-1.9461,-1.9206,-1.9006,-1.8391,-1.7802,-1.7213,-1.6534,-1.5936,-1.5503,-1.5543,-1.5396,0.0,0.0,-1.4347,-1.4164,-1.4263,-1.4198,-1.4165,-1.433,-1.4387,-1.4301,-1.4209,0.0,0.0,-1.4998,-1.5433,-1.5906,-1.6228,-1.6309,-1.6373,-1.665,-1.6501,-1.6323,-1.6271,-1.6116,0.0,-1.6021,-1.5927,-1.5927,-1.5927,-1.5832,-1.5832,-1.5832,-1.5832,-1.5832,-1.5832,-1.5547,-1.5409,-1.5585,-1.5488,-1.545,-1.559,-1.5783,-1.5891,-1.5891,-1.5891,-1.5998,-1.6324,-1.6318,-1.653,-1.6842,-1.7173,-1.7279,-1.7272,-1.7264,-1.6846,-1.6085,-1.5808,-1.5407,-1.4879,-1.4885,-1.4688,-1.4394,-1.4394,-1.4394,-1.4298,-1.4298,-1.4298,-1.4298,0.0,0.0,0.0,0.0,0.0,0.0,0.0,0.0,0.0,0.0,0.0,0.0,0.0,0.0,0.0,0.0,0.0,0.0,0.0,-1.7037,-1.8064,-1.7956,-1.8868,-1.9606,-2.0096,-2.0048,-2.0156,-2.0441,-2.0247,-2.0129,-2.0206,-1.9531,-1.9412,-1.9592,-1.905,-1.8638,-1.8406,-1.8267,-1.8043,-1.78,-1.7406,-1.7104,-1.6834,-1.6088,-1.543,-1.4904,-1.4689,0.0,0.0,0.0,-1.3186,-1.3097,-1.3423,-1.3522,0.0,-1.426,-1.466,0.0,0.0,0.0,-1.5786,-1.6122,-1.6514,-1.6894,-1.7216,-1.7282,-1.729,-1.7344,-1.7173,-1.6871,-1.6683,-1.6588,-1.6588,-1.6588,-1.6407,-1.6224,-1.6224,-1.5927,-1.5832,-1.5832,-1.5832,-1.5832,0.0,-1.5363,-1.5305,-1.5852,-1.5405,-1.5336,-1.5849,-1.5885,-1.5891,-1.5891,-1.5891,-1.5998,-1.6324,-1.6524,-1.6842,-1.7179,-1.7483,-1.7582,-1.7582,-1.7575,-1.7248,-1.6693,-1.6406,-1.598,-1.5445,-1.5172,-1.4885,-1.4688,-1.4688,-1.4496,-1.4298,-1.4298,-1.4298,-1.4298,0.0,0.0,0.0,0.0,0.0,0.0,0.0,0.0,0.0,0.0,0.0,0.0,0.0,0.0,0.0,0.0,0.0,0.0,0.0,-1.5427,-1.644,-1.6962,-1.7901,-1.8452,-1.8637,-1.9232,-1.9594,-1.9667,-1.9772,-1.9941,-2.0151,-1.9657,-1.9438,-1.9335,-1.9062,-1.8794,-1.8573,-1.8415,-1.8027,-1.7551,-1.7195,-1.6523,-1.57,-1.5354,-1.48,-1.4082,0.0,0.0,0.0,0.0,-1.3451,-1.3447,-1.3799,0.0,0.0,-1.4759,-1.5494,-1.6094,0.0,0.0,-1.7535,-1.7289,-1.7714,-1.7971,-1.7677,-1.7655,-1.753,-1.7151,-1.6886,-1.6565,-1.6281,-1.6106,-1.6036,-1.6246,-1.6188,-1.6171,-1.619,-1.6123,-1.6028,-1.5825,-1.5832,0.0,0.0,0.0,0.0,-1.5878,-1.5781,-1.5732,-1.5873,-1.5891,-1.5891,-1.5891,-1.5891,-1.6105,-1.6524,-1.6624,-1.6948,-1.7483,-1.7582,-1.7582,-1.7582,-1.7582,-1.7261,-1.6707,-1.6607,-1.6176,-1.5445,-1.5356,-1.507,-1.4688,-1.4688,-1.4496,-1.4298,-1.4298,-1.4419,-1.4552,0.0,0.0,0.0,0.0,0.0,0.0,0.0,0.0,0.0,0.0,0.0,0.0,0.0,0.0,0.0,0.0,0.0,0.0,0.0,0.0,-1.5207,-1.6061,-1.6917,-1.7474,-1.7611,-1.8392,-1.879,-1.8797,-1.8937,-1.9194,-1.942,-1.9012,-1.8735,-1.8644,-1.8368,-1.81,-1.7891,-1.7741,-1.7372,-1.6922,-1.6655,-1.5916,-1.4919,-1.4584,-1.3972,0.0,0.0,0.0,0.0,-1.3084,-1.3195,-1.3465,-1.3815,-1.4188,-1.4665,-1.5491,-1.6214,-1.6759,0.0,-1.7885,-1.8443,-1.8392,-1.8566,-1.8775,-1.8252,-1.7993,-1.7632,-1.7225,-1.6634,-1.626,-1.6067,-1.5814,-1.5743,-1.5949,-1.6161,-1.6289,-1.6313,-1.625,-1.613,-1.5927,-1.5832,0.0,0.0,0.0,0.0,-1.589,-1.5869,-1.5934,-1.5873,-1.5891,-1.5891,-1.5891,-1.5891,-1.6205,-1.673,-1.673,-1.7047,-1.7582,-1.7582,-1.7582,-1.7582,-1.7582,-1.7321,-1.6854,-1.6747,-1.6334,-1.5787,-1.5681,-1.5356,-1.4885,-1.4885,-1.4653,-1.4443,-1.4443,-1.4618,-1.4817,0.0,0.0,0.0,0.0,0.0,0.0,0.0,0.0,0.0,0.0,0.0,0.0,0.0,0.0,0.0,0.0,0.0,0.0,0.0,0.0,0.0,-1.5115,-1.5969,-1.6587,-1.6949,-1.7501,-1.7777,-1.781,-1.78,-1.7957,-1.8214,-1.7666,-1.7498,-1.7496,-1.709,-1.6713,-1.6379,-1.6316,-1.6126,-1.5789,-1.5661,-1.516,-1.4444,-1.3709,0.0,0.0,0.0,0.0,0.0,0.0,0.0,0.0,0.0,0.0,-1.5459,-1.6444,-1.6786,-1.7127,-1.847,-1.869,-1.8715,-1.9346,-1.9353,-1.9089,-1.8738,-1.8215,-1.7691,-1.7333,-1.6528,-1.5884,0.0,0.0,-1.5855,-1.5884,-1.6219,-1.645,-1.6493,-1.6299,-1.6204,0.0,0.0,0.0,0.0,0.0,0.0,-1.603,0.0,-1.5946,-1.5879,-1.5891,-1.5891,-1.5891,-1.5891,-1.6099,-1.6624,-1.673,-1.7054,-1.7582,-1.7582,-1.7582,-1.7582,-1.7582,-1.7422,-1.7134,-1.6834,-1.654,-1.6246,-1.5952,-1.5465,-1.5102,-1.5102,-1.4983,-1.4739,-1.4739,-1.4902,-1.5089,0.0,0.0,0.0,0.0,0.0,0.0,0.0,0.0,0.0,0.0,0.0,0.0,0.0,0.0,0.0,0.0,0.0,0.0,0.0,0.0,0.0,0.0,0.0,0.0,0.0,0.0,0.0,0.0,0.0,-1.6892,-1.6929,-1.6698,-1.6581,-1.6446,-1.6098,-1.593,-1.5811,-1.5583,-1.5231,-1.477,0.0,-1.391,-1.3378,0.0,0.0,0.0,0.0,0.0,0.0,0.0,0.0,0.0,0.0,0.0,-1.6709,-1.6895,0.0,-1.8375,-1.8732,-1.9304,-1.9945,-1.9928,-1.9837,-1.9537,-1.8544,-1.7978,-1.7431,-1.644,-1.5891,-1.5474,0.0,0.0,0.0,-1.5474,-1.5602,0.0,-1.6407,-1.6479,0.0,0.0,0.0,-1.6393,-1.6266,-1.6734,0.0,0.0,-1.6475,-1.6455,-1.6211,-1.5998,-1.5891,-1.5891,-1.5891,-1.6105,-1.6424,-1.6855,-1.7272,-1.7582,-1.7582,-1.7582,-1.7582,-1.7582,-1.7422,-1.7134,-1.6834,-1.6434,-1.5947,-1.5658,-1.5383,-1.5089,-1.5089,-1.5066,-1.501,-1.501,-1.5173,-1.539,0.0,0.0,0.0,0.0,0.0,0.0,0.0,0.0,0.0,0.0,0.0,0.0,0.0,0.0,0.0,0.0,0.0,0.0,0.0,0.0,0.0,0.0,0.0,0.0,0.0,0.0,0.0,0.0,0.0,0.0,0.0,-1.5268,-1.511,-1.5004,-1.4737,-1.4566,-1.4459,0.0,0.0,0.0,0.0,0.0,0.0,0.0,0.0,0.0,0.0,0.0,0.0,0.0,0.0,-1.4833,-1.5748,-1.6599,-1.7343,-1.7981,0.0,-1.9201,-1.9573,-2.0135,-2.0492,-2.0192,-2.01,-1.9682,-1.8552,-1.7817,-1.7011,-1.5848,-1.508,0.0,0.0,0.0,0.0,0.0,0.0,0.0,-1.5966,-1.6332,-1.6479,0.0,-1.6388,0.0,-1.6643,-1.6867,-1.6959,0.0,-1.6858,-1.663,-1.6324,-1.5998,-1.5891,-1.5891,-1.5891,-1.5998,-1.6324,-1.6855,-1.7279,-1.7378,-1.7582,-1.7582,-1.7582,-1.7582,-1.7495,-1.7321,0.0,-1.6504,-1.6234,-1.5842,-1.5528,-1.527,-1.527,-1.5236,-1.5282,-1.5282,-1.5445,-1.5674,0.0,0.0,0.0,0.0,0.0,0.0,0.0,0.0,0.0,0.0,0.0,0.0,0.0,0.0,0.0,0.0,0.0,0.0,0.0,0.0,0.0,0.0,0.0,0.0,0.0,0.0,0.0,0.0,0.0,0.0,0.0,0.0,0.0,0.0,0.0,0.0,0.0,0.0,0.0,0.0,0.0,0.0,0.0,0.0,0.0,0.0,0.0,0.0,0.0,0.0,-1.4444,-1.5076,-1.6554,-1.7249,-1.7879,-1.9181,-1.9671,-1.9909,-2.0557,-2.0783,-2.0848,-2.05,-2.0229,-1.9603,-1.8575,-1.7504,-1.6342,-1.5283,0.0,0.0,-1.2884,0.0,-1.2987,-1.3316,0.0,-1.4896,-1.5306,-1.5944,-1.6364,-1.6493,-1.6313,-1.6457,-1.7059,-1.6948,-1.6994,-1.7542,-1.7054,-1.663,-1.6324,-1.6105,-1.5891,-1.5891,-1.5891,-1.5998,-1.6324,-1.6861,-1.7073,-1.7179,-1.7483,-1.7582,-1.7582,-1.7582,-1.7582,-1.7569,-1.697,0.0,-1.662,-1.6024,-1.572,-1.5549,-1.5549,-1.5511,-1.5553,-1.5553,-1.5698,-1.5998,0.0,0.0,0.0,0.0,0.0,0.0,0.0,0.0,0.0,0.0,0.0,0.0,0.0,0.0,0.0,0.0,0.0,0.0,0.0,0.0,0.0,0.0,0.0,0.0,0.0,0.0,0.0,0.0,0.0,0.0,0.0,0.0,0.0,0.0,0.0,0.0,0.0,0.0,0.0,0.0,0.0,0.0,0.0,0.0,0.0,0.0,0.0,0.0,0.0,0.0,-1.5019,-1.5837,-1.7022,-1.7924,-1.8665,-1.9306,-1.9937,-2.0512,-2.0702,-2.099,-2.1156,-2.0856,-2.0061,-1.9178,-1.7948,-1.6792,0.0,0.0,0.0,-1.2848,-1.2111,-1.2223,0.0,-1.2643,0.0,0.0,0.0,0.0,-1.5799,0.0,0.0,0.0,0.0,0.0,0.0,0.0,0.0,-1.6955,-1.663,-1.6424,-1.6105,-1.5891,-1.5891,-1.5998,-1.6324,-1.643,-1.6749,-1.7179,-1.7285,-1.7384,-1.7582,-1.7582,-1.7582,-1.7569,-1.697,0.0,-1.6297,-1.5815,-1.5528,-1.553,-1.553,-1.5799,-1.615,-1.5931,-1.5962,-1.6217,0.0,0.0,0.0,0.0,0.0,0.0,0.0,0.0,0.0,0.0,-1.1429,0.0,0.0,0.0,0.0,0.0,0.0,0.0,0.0,0.0,0.0,0.0,0.0,0.0,0.0,0.0,0.0,0.0,0.0,0.0,0.0,0.0,0.0,0.0,0.0,0.0,0.0,0.0,0.0,0.0,0.0,0.0,0.0,0.0,0.0,0.0,0.0,0.0,0.0,0.0,-1.4786,-1.6,-1.7284,-1.8117,-1.8846,-1.9618,-2.0281,-2.0802,-2.0891,-2.0997,-2.0983,-2.0419,-1.9749,-1.8996,-1.7684,0.0,0.0,0.0,0.0,-1.2269,-1.1541,0.0,0.0,0.0,0.0,0.0,0.0,0.0,0.0,0.0,0.0,0.0,0.0,0.0,0.0,0.0,0.0,-1.7272,-1.6955,-1.6537,-1.6217,-1.5891,-1.5891,-1.5998,-1.6105,-1.6217,-1.6537,-1.6955,-1.7067,-1.7384,-1.7582,-1.7582,-1.7483,-1.7371,-1.6911,0.0,-1.6323,-1.5873,-1.5688,-1.5704,-1.581,-1.61,-1.6324,-1.6311,-1.6418,-1.6424,0.0,0.0,0.0,0.0,0.0,0.0,0.0,-1.066,-1.1177,-1.1672,-1.1541,-1.1307,-1.1015,-1.0873,0.0,0.0,0.0,0.0,0.0,0.0,0.0,0.0,0.0,0.0,0.0,0.0,0.0,0.0,0.0,0.0,0.0,0.0,0.0,0.0,0.0,0.0,0.0,0.0,0.0,0.0,0.0,0.0,0.0,0.0,0.0,0.0,0.0,0.0,0.0,0.0,-1.4292,-1.5615,-1.6887,-1.7848,-1.874,-1.9729,-2.0408,-2.0814,-2.0813,-2.0912,-2.0824,-1.9903,-1.9285,-1.8669,-1.7283,-1.5984,0.0,0.0,-1.2336,-1.1498,-1.0844,0.0,0.0,0.0,0.0,0.0,0.0,0.0,0.0,0.0,0.0,0.0,0.0,0.0,0.0,0.0,0.0,0.0,-1.7173,-1.6643,-1.6318,-1.6099,-1.6099,-1.6099,-1.6099,-1.6318,-1.653,-1.6842,-1.7067,-1.7384,-1.7582,-1.7582,-1.7378,-1.7179,-1.6736,0.0,0.0,-1.5998,-1.5891,-1.5891,-1.6217,-1.6324,-1.6424,-1.663,-1.673,-1.6736,0.0,0.0,0.0,0.0,0.0,0.0,0.0,-1.0681,-1.1202,-1.1715,-1.1564,-1.1307,-1.1015,-1.0825,0.0,0.0,0.0,0.0,0.0,0.0,0.0,0.0,0.0,0.0,0.0,0.0,0.0,0.0,0.0,0.0,0.0,0.0,0.0,0.0,0.0,0.0,0.0,0.0,0.0,0.0,0.0,0.0,0.0,0.0,0.0,0.0,0.0,0.0,0.0,0.0,0.0,-1.4626,-1.5384,-1.6881,-1.8403,-1.8872,0.0,0.0,-2.0386,-2.0704,-2.0766,-1.987,-1.8913,-1.7876,-1.6245,0.0,0.0,0.0,-1.1304,-1.049,-0.9895,-1.0081,-1.0262,0.0,0.0,0.0,0.0,0.0,0.0,0.0,0.0,0.0,0.0,0.0,0.0,0.0,0.0,0.0,-1.7173,-1.6849,-1.6624,-1.6624,-1.6624,-1.6624,-1.6624,-1.6624,-1.6842,-1.7173,-1.7179,-1.7384,-1.7582,-1.7384,-1.7179,-1.7179,-1.6537,0.0,0.0,-1.5998,-1.5891,-1.5891,-1.6217,-1.6424,-1.663,-1.673,-1.6842,-1.7067,0.0,0.0,0.0,0.0,0.0,0.0,0.0,-1.072,-1.1222,-1.1679,-1.1541,-1.1285,-1.0968,-1.0705,0.0,0.0,0.0,0.0,0.0,0.0,0.0,0.0,0.0,0.0,0.0,0.0,0.0,0.0,0.0,0.0,0.0,0.0,0.0,0.0,0.0,0.0,0.0,0.0,0.0,0.0,0.0,0.0,0.0,0.0,0.0,0.0,0.0,0.0,0.0,0.0,0.0,0.0,-1.4851,-1.5701,0.0,0.0,-1.8646,-1.9445,-1.935,-1.957,-1.9723,-1.9065,-1.828,-1.7401,-1.5998,0.0,0.0,-1.1956,-1.1042,-1.0288,-0.962,-0.9628,-0.9807,0.0,0.0,0.0,0.0,0.0,0.0,0.0,0.0,0.0,0.0,0.0,0.0,0.0,0.0,0.0,-1.7483,-1.7166,-1.6955,-1.673,-1.673,-1.673,-1.673,-1.673,-1.6849,-1.7179,-1.7179,-1.7279,-1.7384,-1.7285,-1.6967,-1.6643,-1.643,0.0,0.0,-1.5891,-1.5998,-1.6217,-1.6424,-1.6743,-1.706,-1.716,-1.7371,-1.7378,0.0,0.0,0.0,0.0,0.0,0.0,-0.9939,-1.0273,-1.0689,-1.1323,-1.1184,-1.098,-1.0859,-1.0583,-1.0233,-0.9779,0.0,0.0,0.0,0.0,0.0,0.0,0.0,0.0,0.0,0.0,0.0,0.0,0.0,0.0,0.0,0.0,0.0,0.0,0.0,0.0,0.0,0.0,0.0,0.0,0.0,0.0,0.0,0.0,0.0,0.0,0.0,0.0,0.0,0.0,0.0,0.0,0.0,0.0,0.0,0.0,-1.7534,-1.8351,-1.8181,-1.8459,-1.8642,-1.8187,-1.7449,-1.6534,0.0,0.0,-1.275,-1.1455,-1.0637,-0.997,-0.9358,-0.9247,-0.9399,0.0,0.0,0.0,0.0,0.0,0.0,0.0,0.0,0.0,0.0,0.0,0.0,0.0,0.0,0.0,0.0,-1.7378,-1.7166,-1.6942,-1.6942,-1.6942,-1.6942,-1.6942,-1.7054,-1.7279,-1.7279,-1.7279,-1.7279,-1.7173,-1.6855,-1.6424,0.0,0.0,0.0,-1.5998,-1.6105,-1.6324,-1.6743,-1.6955,-1.7279,-1.7483,-1.7582,-1.7582,0.0,0.0,0.0,0.0,0.0,0.0,0.0,-0.9142,-0.9423,-1.056,-1.0426,-1.0323,-1.0675,-1.0398,-0.9854,-0.8983,0.0,0.0,0.0,0.0,0.0,0.0,0.0,0.0,0.0,0.0,0.0,-0.841,0.0,0.0,0.0,0.0,0.0,0.0,0.0,0.0,0.0,0.0,0.0,0.0,0.0,0.0,0.0,0.0,0.0,0.0,0.0,0.0,0.0,0.0,0.0,0.0,0.0,0.0,0.0,0.0,-1.6394,-1.718,-1.6944,-1.7327,-1.7632,-1.7033,-1.6234,-1.5195,0.0,0.0,-1.1741,-1.0693,-0.9906,-0.9302,-0.8969,-0.8905,-0.9017,-0.935,-1.0144,0.0,0.0,0.0,0.0,0.0,0.0,0.0,0.0,0.0,0.0,0.0,0.0,0.0,0.0,-1.7582,-1.7582,-1.7582,-1.7582,-1.7582,-1.7582,-1.7582,-1.7582,-1.7582,-1.7582,-1.7582,-1.7582,-1.6942,-1.673,0.0,0.0,0.0,0.0,-1.6217,-1.6324,-1.6324,-1.6967,-1.7179,-1.7279,-1.7483,-1.7582,-1.7582,0.0,0.0,0.0,0.0,0.0,0.0,0.0,-0.8804,-0.9238,-0.9876,-0.9738,-0.9563,-0.9484,-0.9215,-0.8826,-0.8266,0.0,0.0,0.0,0.0,0.0,0.0,0.0,0.0,0.0,0.0,-0.8379,-0.8662,-0.8807,-0.9078,0.0,0.0,0.0,0.0,0.0,0.0,0.0,0.0,0.0,0.0,0.0,0.0,0.0,0.0,0.0,0.0,0.0,0.0,0.0,0.0,0.0,0.0,0.0,0.0,0.0,0.0,0.0,0.0,-1.5904,-1.605,-1.6178,-1.5823,-1.5037,-1.4215,-1.3443,-1.225,-1.109,-1.0264,-0.9541,-0.8953,-0.8603,-0.8738,-0.9009,-0.9342,-1.0245,0.0,0.0,0.0,0.0,0.0,0.0,0.0,0.0,0.0,0.0,0.0,0.0,0.0,0.0,-1.7582,-1.7582,-1.7582,-1.7582,-1.7582,-1.7582,-1.7582,-1.7582,-1.7582,-1.7582,-1.7483,-1.7279,-1.7173,0.0,0.0,0.0,0.0,0.0,-1.6524,-1.6743,-1.6961,-1.7179,-1.7279,-1.7483,-1.7582,-1.7582,-1.7582,0.0,0.0,0.0,0.0,0.0,0.0,0.0,-0.7884,-0.8364,-0.8791,-0.8867,-0.8877,-0.8853,-0.8592,-0.8207,-0.7633,0.0,0.0,0.0,0.0,0.0,0.0,0.0,0.0,0.0,-0.7545,-0.8055,-0.8601,-0.8804,-0.9117,-0.963,-0.9687,-0.9722,0.0,0.0,0.0,0.0,0.0,0.0,0.0,0.0,0.0,-1.0205,0.0,0.0,0.0,0.0,0.0,0.0,0.0,0.0,0.0,0.0,0.0,0.0,0.0,-1.2976,0.0,0.0,-1.4584,-1.453,-1.4387,-1.3745,0.0,0.0,-1.1519,-1.0558,-0.9716,-0.9199,-0.8794,-0.8486,-0.8667,-0.9056,-0.9517,-1.0383,0.0,0.0,0.0,0.0,0.0,0.0,0.0,0.0,0.0,0.0,0.0,0.0,0.0,0.0,-1.7687,-1.7582,-1.7582,-1.7582,-1.7582,-1.7582,-1.7582,-1.7582,-1.7582,-1.7582,-1.7477,-1.7384,-1.7285,0.0,0.0,0.0,0.0,0.0,-1.6842,-1.6955,-1.7173,-1.7279,-1.7483,-1.7582,-1.7483,-1.7483,-1.7483,0.0,0.0,0.0,0.0,0.0,0.0,0.0,0.0,0.0,0.0,-0.7844,-0.8223,-0.8632,-0.8378,-0.786,0.0,0.0,0.0,0.0,0.0,0.0,0.0,0.0,0.0,0.0,-0.6836,-0.7472,-0.8335,-0.8775,-0.9273,-0.9834,-1.0202,-1.038,-1.038,-1.0341,-1.0235,-1.0088,-1.0019,-0.998,-0.998,-0.998,-1.0049,0.0,0.0,0.0,0.0,0.0,0.0,0.0,0.0,0.0,0.0,0.0,0.0,0.0,0.0,0.0,0.0,0.0,0.0,0.0,0.0,0.0,0.0,0.0,-1.0669,0.0,-0.9112,-0.8862,-0.8759,-0.8468,-0.8723,-0.9146,-0.981,-1.0538,0.0,0.0,0.0,0.0,0.0,0.0,0.0,0.0,0.0,0.0,0.0,0.0,0.0,0.0,-1.7799,-1.7582,-1.7582,-1.7582,-1.7582,-1.7582,-1.7582,-1.7582,-1.7582,-1.7582,-1.7582,-1.7582,-1.7384,0.0,0.0,0.0,0.0,0.0,-1.7067,-1.7179,-1.7179,-1.7483,-1.7582,-1.7477,-1.7279,-1.7179,-1.7173,0.0,0.0,0.0,0.0,0.0,0.0,0.0,0.0,0.0,0.0,0.0,-0.691,-0.737,-0.7124,0.0,0.0,0.0,0.0,0.0,0.0,0.0,0.0,0.0,0.0,0.0,-0.6569,-0.7375,-0.8536,-0.8639,-0.9135,-0.9945,-1.005,-1.0088,-1.0088,-0.9971,-0.9902,-0.9793,-0.9823,-0.9862,-0.9862,-0.9941,-1.0019,0.0,0.0,0.0,0.0,-1.0019,-1.0019,0.0,0.0,0.0,0.0,0.0,0.0,0.0,0.0,-1.0777,-1.0674,-1.0863,0.0,-1.187,-1.2142,0.0,0.0,0.0,-1.0014,-0.9424,0.0,0.0,0.0,-0.8468,-0.8952,-0.9545,-1.012,0.0,0.0,0.0,0.0,0.0,0.0,0.0,0.0,0.0,0.0,0.0,0.0,0.0,0.0,0.0,-1.7799,-1.7582,-1.7582,-1.7582,-1.7582,-1.7582,-1.7582,-1.7582,-1.7582,-1.7582,-1.7582,-1.7582,-1.7477,-1.7483,0.0,0.0,0.0,-1.7371,-1.7477,-1.7384,-1.7179,-1.7279,-1.7166,-1.6942,-1.6842,-1.6842,-1.681,0.0,0.0,0.0,0.0,0.0,0.0,0.0,0.0,0.0,0.0,0.0,0.0,0.0,0.0,0.0,0.0,0.0,0.0,0.0,0.0,0.0,0.0,0.0,0.0,-0.595,-0.6185,-0.7002,-0.841,-0.841,-0.8958,-1.0062,-0.9858,-0.9876,-1.0012,-0.9698,-0.9536,-0.9496,-0.9536,-0.9567,-0.9558,-0.9502,0.0,0.0,0.0,0.0,0.0,-0.9291,-0.9375,0.0,-0.9389,-0.943,-0.9612,0.0,0.0,0.0,0.0,-1.0,-0.9925,-0.9926,-1.0275,-1.0755,-1.1058,-1.0741,-1.0352,0.0,0.0,0.0,0.0,0.0,0.0,0.0,0.0,0.0,0.0,0.0,0.0,0.0,0.0,0.0,0.0,0.0,0.0,0.0,0.0,0.0,0.0,0.0,0.0,0.0,-1.7793,-1.7582,-1.7582,-1.7582,-1.7582,-1.7582,-1.7582,-1.7582,-1.7582,-1.7582,-1.7582,-1.7582,-1.7582,-1.7582,0.0,0.0,0.0,-1.7378,-1.7378,-1.7272,-1.6955,-1.6955,-1.6842,-1.673,-1.6524,-1.6449,-1.6317,0.0,0.0,0.0,0.0,0.0,0.0,0.0,0.0,0.0,0.0,0.0,0.0,0.0,0.0,0.0,0.0,0.0,0.0,0.0,0.0,0.0,0.0,0.0,-0.512,-0.5759,-0.5865,-0.6635,-0.8123,-0.822,-0.8869,-1.0049,-0.9636,-0.9627,-0.9909,-0.9438,-0.9213,-0.9121,-0.9151,-0.9116,-0.9037,-0.8767,0.0,0.0,0.0,0.0,0.0,0.0,0.0,0.0,-0.8709,-0.8885,-0.9112,-0.9173,0.0,0.0,0.0,0.0,0.0,-0.9392,-0.9508,-0.9686,-1.0003,-0.9873,-0.9686,0.0,0.0,0.0,0.0,0.0,0.0,0.0,0.0,0.0,0.0,0.0,0.0,0.0,0.0,0.0,0.0,0.0,0.0,0.0,0.0,0.0,0.0,0.0,0.0,0.0,-1.7898,-1.7582,-1.7582,-1.7582,-1.7582,-1.7582,-1.7582,-1.7582,-1.7582,-1.7582,-1.7582,-1.7582,-1.7582,-1.7582,-1.7582,0.0,0.0,-1.7179,-1.7173,-1.6955,-1.663,-1.663,-1.663,-1.6518,-1.6274,-1.6014,-1.5805,0.0,0.0,0.0,0.0,0.0,0.0,0.0,0.0,0.0,0.0,0.0,0.0,0.0,0.0,0.0,0.0,0.0,0.0,0.0,0.0,0.0,0.0,-0.4825,-0.518,-0.5609,-0.6127,-0.6886,-0.785,-0.8276,-0.8902,-0.9752,-0.9474,-0.9274,-0.9142,-0.9018,-0.8734,-0.8362,-0.8421,-0.8273,-0.8048,-0.8104,0.0,0.0,0.0,0.0,0.0,0.0,0.0,0.0,-0.8113,-0.8193,-0.8343,-0.8697,0.0,0.0,0.0,0.0,0.0,-0.8872,-0.8766,-0.8918,-0.9873,-0.9873,-0.9686,-0.9653,0.0,0.0,0.0,0.0,0.0,0.0,0.0,0.0,0.0,0.0,0.0,0.0,0.0,0.0,0.0,0.0,0.0,0.0,0.0,0.0,0.0,0.0,0.0,0.0,-1.7898,-1.7582,-1.7582,-1.7582,-1.7582,-1.7582,-1.7582,-1.7582,-1.7582,-1.7582,-1.7582,-1.7582,-1.7582,-1.7582,-1.7582,0.0,-1.7279,-1.7173,-1.6842,-1.6636,-1.6324,-1.6324,-1.6211,-1.5968,-1.5743,-1.564,-1.5542,0.0,0.0,0.0,0.0,0.0,0.0,0.0,0.0,0.0,0.0,0.0,0.0,0.0,0.0,0.0,0.0,0.0,0.0,0.0,0.0,0.0,-0.4657,-0.4939,-0.5242,-0.549,-0.6158,-0.6876,-0.7709,-0.8077,-0.8686,-0.9495,-0.9359,-0.908,-0.8716,-0.8525,-0.8273,-0.8032,-0.7866,-0.7723,-0.7586,0.0,0.0,0.0,0.0,0.0,0.0,0.0,0.0,0.0,0.0,-0.7645,-0.7849,-0.8055,0.0,0.0,0.0,0.0,0.0,-0.8347,-0.8375,-0.8656,-0.9422,-0.9455,-0.9458,-0.9872,0.0,0.0,0.0,0.0,0.0,0.0,0.0,0.0,0.0,0.0,0.0,0.0,0.0,0.0,0.0,0.0,0.0,0.0,0.0,0.0,0.0,0.0,0.0,0.0,0.0,-1.7582,-1.7582,-1.7582,-1.7582,-1.7582,-1.7582,-1.7582,-1.7582,-1.7582,-1.7582,-1.7582,-1.7582,-1.7582,-1.7582,0.0,-1.7067,-1.6955,-1.6636,-1.6318,-1.6105,-1.6105,-1.5913,-1.5626,-1.5228,-1.5077,-1.5022,0.0,0.0,0.0,0.0,0.0,0.0,0.0,0.0,0.0,0.0,0.0,0.0,0.0,0.0,0.0,0.0,0.0,0.0,0.0,0.0,-0.449,-0.4702,-0.4995,-0.5249,-0.5441,-0.6215,-0.6884,-0.746,-0.7905,-0.8447,-0.9078,-0.916,-0.8911,-0.8423,-0.807,-0.7831,-0.766,-0.7348,-0.715,-0.7046,0.0,0.0,0.0,0.0,0.0,0.0,0.0,0.0,0.0,0.0,0.0,0.0,0.0,0.0,0.0,-0.7577,-0.7829,-0.8079,-0.7986,-0.8191,-0.855,-0.8974,0.0,-0.9305,-1.0135,0.0,0.0,0.0,0.0,0.0,0.0,0.0,0.0,0.0,0.0,0.0,0.0,0.0,0.0,0.0,0.0,0.0,0.0,0.0,0.0,0.0,0.0,0.0,0.0,0.0,-1.7582,-1.7582,-1.7582,-1.7582,-1.7582,-1.7515,-1.7515,-1.7582,-1.7582,-1.7582,-1.7582,-1.7582,-1.7582,-1.7582,-1.7272,-1.6955,-1.6624,-1.6318,-1.6105,-1.5885,-1.5819,-1.5602,-1.527,-1.4865,-1.4672,-1.4588,0.0,0.0,0.0,0.0,0.0,0.0,0.0,0.0,0.0,0.0,0.0,0.0,0.0,0.0,0.0,0.0,0.0,0.0,0.0,0.0,-0.4223,-0.441,-0.4806,-0.5193,-0.5571,-0.6497,-0.699,-0.7036,-0.7811,-0.8283,-0.8462,-0.8738,-0.8621,-0.8201,-0.7795,-0.7432,-0.7051,-0.6792,-0.6428,-0.609,-0.6067,0.0,0.0,0.0,0.0,0.0,0.0,0.0,0.0,0.0,0.0,0.0,0.0,0.0,-0.7106,-0.7503,-0.7711,-0.7833,-0.7833,-0.8162,-0.8534,-0.876,-0.9041,0.0,-1.0134,-1.0701,0.0,0.0,0.0,0.0,0.0,0.0,0.0,0.0,0.0,0.0,0.0,0.0,0.0,0.0,0.0,0.0,0.0,0.0,0.0,0.0,0.0,0.0,0.0,0.0,0.0,-1.7582,-1.7582,-1.7582,-1.7582,-1.7315,-1.7315,-1.7582,-1.7582,-1.7582,-1.7582,-1.7582,-1.7582,-1.7582,-1.6948,-1.673,-1.6624,-1.6099,-1.5891,-1.5867,-1.5626,-1.5215,-1.4769,-1.4733,-1.4552,-1.4322,0.0,0.0,0.0,0.0,0.0,0.0,0.0,0.0,0.0,0.0,0.0,0.0,0.0,0.0,0.0,0.0,0.0,0.0,0.0,0.0,-0.3894,-0.4146,-0.4531,-0.4907,-0.5225,-0.6383,-0.7,-0.7,-0.7676,-0.8002,-0.7961,-0.8047,-0.7885,-0.7509,-0.7137,-0.6739,-0.6354,-0.6036,-0.5826,-0.5679,-0.5679,-0.5749,0.0,0.0,0.0,0.0,0.0,0.0,0.0,0.0,-0.5974,-0.6059,0.0,-0.6347,-0.6403,-0.656,-0.6931,-0.7293,-0.7293,-0.7787,-0.8356,-0.8846,-0.9264,0.0,0.0,0.0,0.0,0.0,0.0,0.0,0.0,0.0,0.0,0.0,0.0,0.0,0.0,0.0,0.0,0.0,0.0,0.0,0.0,0.0,0.0,0.0,0.0,0.0,0.0,0.0,0.0,-1.7582,-1.7582,-1.7495,-1.7315,-1.7201,-1.7114,-1.7041,-1.7041,-1.7041,-1.7041,-1.7041,-1.7041,-1.7041,-1.6632,-1.6433,-1.6433,-1.5912,-1.57,-1.5573,-1.5214,-1.4896,-1.4696,-1.4521,-1.4389,-1.4298,0.0,0.0,0.0,0.0,0.0,0.0,0.0,0.0,0.0,0.0,0.0,0.0,0.0,0.0,0.0,0.0,0.0,0.0,0.0,-0.3333,-0.3455,-0.3834,-0.4142,-0.4508,-0.4903,-0.5953,-0.6619,-0.6855,-0.743,-0.7712,-0.7587,-0.7587,-0.7414,-0.7005,-0.6691,-0.6343,-0.597,-0.5623,-0.546,-0.546,-0.5428,-0.5498,0.0,0.0,0.0,0.0,0.0,0.0,0.0,0.0,-0.5787,0.0,0.0,0.0,0.0,-0.5936,-0.6376,-0.6862,-0.6862,-0.7488,-0.8289,0.0,0.0,0.0,0.0,0.0,0.0,0.0,0.0,0.0,0.0,0.0,0.0,0.0,0.0,0.0,0.0,0.0,0.0,0.0,0.0,0.0,0.0,0.0,0.0,0.0,0.0,0.0,0.0,0.0,0.0,0.0,-1.7495,-1.7355,-1.7154,-1.6967,-1.6774,-1.6567,-1.6473,-1.6526,-1.6707,-1.6707,-1.6707,-1.6707,-1.6419,-1.6325,-1.6218,-1.5802,-1.5544,-1.5351,-1.4979,-1.4759,-1.4564,-1.437,-1.4394,-1.4394,0.0,0.0,0.0,0.0,0.0,0.0,0.0,0.0,0.0,0.0,0.0,0.0,0.0,0.0,0.0,0.0,0.0,0.0,-0.2696,-0.2632,-0.287,-0.3471,-0.3633,-0.4012,-0.4688,-0.5161,-0.5745,-0.649,-0.711,-0.7405,-0.737,-0.737,-0.7202,-0.6894,-0.6631,-0.6314,-0.5963,-0.5552,-0.5383,-0.539,-0.5334,-0.5334,-0.5383,0.0,0.0,0.0,0.0,0.0,0.0,0.0,-0.5484,0.0,0.0,0.0,0.0,0.0,-0.6181,-0.6614,-0.6585,-0.7447,0.0,0.0,0.0,0.0,0.0,0.0,0.0,0.0,0.0,0.0,0.0,0.0,0.0,0.0,0.0,0.0,0.0,0.0,0.0,0.0,0.0,0.0,0.0,0.0,0.0,0.0,0.0,0.0,0.0,0.0,0.0,0.0,-1.7295,-1.725,-1.7141,-1.6567,-1.6273,-1.6266,-1.5972,-1.6132,-1.67,-1.67,-1.67,-1.6693,-1.6413,-1.6319,-1.6312,-1.6004,-1.5538,-1.5091,-1.5091,-1.4826,-1.4298,-1.4298,-1.4496,-1.4688,0.0,0.0,0.0,0.0,0.0,0.0,0.0,0.0,0.0,0.0,0.0,0.0,0.0,0.0,0.0,0.0,0.0,0.0,-0.2399,-0.2406,-0.2557,-0.2918,-0.3289,-0.3572,-0.379,-0.4608,-0.5431,-0.6226,-0.6402,-0.652,-0.664,-0.664,-0.6488,-0.6204,-0.6118,-0.5773,-0.5307,-0.5183,-0.5112,-0.5112,-0.5087,-0.5087,-0.5112,0.0,0.0,0.0,0.0,0.0,0.0,0.0,0.0,0.0,0.0,0.0,0.0,-0.5442,-0.5869,-0.6354,-0.6566,-0.7296,0.0,0.0,0.0,0.0,0.0,0.0,0.0,0.0,0.0,0.0,0.0,0.0,0.0,0.0,0.0,0.0,0.0,0.0,0.0,0.0,0.0,0.0,0.0,0.0,0.0,0.0,0.0,0.0,0.0,0.0,0.0,-1.6974,-1.7088,-1.6954,-1.6533,-1.6359,-1.6166,-1.5959,-1.5872,-1.5919,-1.6086,-1.6086,-1.6086,-1.6086,-1.5996,-1.5996,-1.5899,-1.5699,-1.5364,-1.5107,-1.5107,-1.4961,-1.4885,-1.4885,-1.4885,-1.4987,0.0,0.0,0.0,0.0,0.0,0.0,0.0,0.0,0.0,0.0,0.0,0.0,0.0,0.0,0.0,0.0,0.0,0.0,0.0,0.0,-0.2145,-0.2536,-0.2858,-0.3143,-0.3321,-0.4029,-0.4679,-0.5314,-0.5757,-0.6072,-0.6276,-0.627,-0.622,-0.6053,-0.5945,-0.5615,-0.5123,-0.4978,-0.4896,-0.4826,-0.48,-0.4838,-0.4934,0.0,0.0,0.0,0.0,0.0,0.0,0.0,0.0,0.0,0.0,0.0,0.0,-0.4944,-0.5436,-0.6076,-0.6317,0.0,0.0,0.0,0.0,0.0,0.0,0.0,0.0,0.0,0.0,0.0,0.0,0.0,0.0,0.0,0.0,0.0,0.0,0.0,0.0,0.0,0.0,0.0,0.0,0.0,0.0,0.0,0.0,0.0,0.0,0.0,-1.75,-1.7007,-1.7061,-1.6932,-1.6474,-1.6353,-1.6108,-1.5832,-1.5832,-1.5832,-1.5832,-1.5832,-1.5832,-1.5832,-1.5832,-1.5832,-1.5825,-1.5635,-1.5452,-1.5267,-1.5267,-1.5172,-1.5083,-1.5083,-1.5178,-1.5267,0.0,0.0,0.0,0.0,0.0,0.0,0.0,0.0,0.0,0.0,0.0,0.0,0.0,0.0,0.0,0.0,0.0,0.0,0.0,0.0,-0.173,-0.225,-0.2403,-0.2702,-0.3152,-0.3417,-0.3711,-0.407,-0.5122,-0.5795,-0.6132,-0.6198,-0.6205,-0.6224,-0.5971,-0.5663,-0.523,-0.4952,-0.4728,-0.4602,-0.4517,-0.4619,-0.4774,-0.475,0.0,0.0,0.0,0.0,0.0,0.0,0.0,0.0,0.0,0.0,-0.4387,-0.4387,-0.5003,-0.5738,0.0,0.0,0.0,0.0,0.0,0.0,0.0,0.0,0.0,0.0,0.0,0.0,0.0,0.0,0.0,0.0,0.0,0.0,0.0,0.0,0.0,0.0,0.0,0.0,0.0,0.0,0.0,0.0,0.0,0.0,0.0,-1.7702,-1.7761,-1.7421,-1.7169,-1.6933,-1.6732,-1.6361,-1.6123,-1.5832,-1.5832,-1.5832,-1.5832,-1.5832,-1.5832,-1.5832,-1.5832,-1.5832,-1.5832,-1.5832,-1.5737,-1.554,-1.554,-1.5363,-1.5178,-1.5178,-1.5363,-1.554,0.0,0.0,0.0,0.0,0.0,0.0,0.0,0.0,0.0,0.0,0.0,0.0,0.0,0.0,0.0,0.0,0.0,0.0,0.0,0.0,-0.1621,-0.2037,-0.2245,-0.2512,-0.2885,-0.2989,-0.3261,-0.3695,-0.4233,-0.4806,-0.5497,-0.5491,-0.5603,-0.5763,-0.571,-0.543,-0.4998,-0.4906,-0.4733,-0.4517,-0.4523,-0.4523,-0.4564,-0.4386,-0.4299,0.0,0.0,0.0,0.0,0.0,0.0,0.0,-0.3546,-0.3855,-0.4252,-0.4252,-0.4771,-0.543,0.0,0.0,0.0,0.0,0.0,0.0,0.0,0.0,0.0,0.0,0.0,0.0,0.0,0.0,0.0,0.0,0.0,0.0,0.0,0.0,0.0,0.0,0.0,0.0,0.0,0.0,0.0,0.0,0.0,0.0,-1.7079,-1.7373,-1.7334,-1.6791,-1.6945,-1.6924,-1.6599,-1.6347,-1.613,0.0,-1.5927,-1.5832,-1.5832,-1.5832,-1.5832,-1.5832,-1.5832,-1.5832,-1.5832,-1.5832,-1.5737,-1.573,-1.573,-1.5737,-1.5642,-1.5642,-1.5737,-1.573,0.0,0.0,0.0,0.0,0.0,0.0,0.0,0.0,0.0,0.0,0.0,0.0,0.0,0.0,0.0,0.0,0.0,0.0,0.0,0.0,0.0,-0.1927,-0.2118,-0.2292,-0.2502,-0.2576,-0.2854,-0.3303,-0.356,-0.4182,0.0,0.0,-0.5426,-0.5783,-0.5664,-0.5359,-0.4993,-0.4839,-0.4576,-0.4296,-0.4258,-0.4252,-0.4199,-0.4096,-0.3957,-0.3773,-0.3514,0.0,0.0,0.0,0.0,0.0,0.0,0.0,-0.3634,-0.3749,-0.424,-0.4859,0.0,0.0,0.0,0.0,0.0,0.0,0.0,0.0,0.0,0.0,0.0,0.0,0.0,0.0,0.0,0.0,0.0,0.0,0.0,0.0,0.0,0.0,0.0,0.0,0.0,0.0,0.0,0.0,0.0,-1.7239,-1.7153,-1.7312,-1.7224,-1.6965,-1.7115,-1.7028,-1.6784,-1.669,-1.6501,-1.6407,-1.6116,-1.5927,-1.5832,-1.5832,-1.5832,-1.5832,-1.5832,-1.5832,-1.5832,-1.5832,-1.5832,-1.5832,-1.5832,-1.5832,-1.5832,-1.5832,-1.5832,-1.5832,0.0,0.0,0.0,0.0,0.0,0.0,0.0,0.0,0.0,0.0,0.0,0.0,0.0,0.0,0.0,0.0,0.0,0.0,0.0,0.0,0.0,-0.1862,-0.1986,-0.2096,-0.2176,-0.2245,-0.25,-0.2973,-0.3087,0.0,0.0,0.0,0.0,-0.5884,-0.5641,-0.5352,-0.4996,-0.4723,-0.4408,-0.4064,-0.4026,-0.3977,-0.3927,-0.3854,-0.3662,-0.3375,-0.3336,-0.3175,-0.2934,-0.288,0.0,0.0,0.0,0.0,-0.3008,-0.3189,-0.3663,-0.4238,0.0,0.0,0.0,0.0,0.0,0.0,0.0,0.0,0.0,0.0,0.0,0.0,0.0,0.0,0.0,0.0,0.0,0.0,0.0,0.0,0.0,0.0,0.0,0.0,0.0,0.0,0.0,0.0,0.0,-1.7326,-1.7326,-1.7326,-1.7326,-1.7326,-1.7326,-1.7239,-1.7066,-1.6979,-1.6885,-1.6683,-1.6407,-1.6116,-1.5927,-1.5927,-1.5927,-1.5832,-1.5832,-1.5832,-1.5832,-1.5832,-1.5832,-1.5832,-1.5832,-1.5832,-1.5832,-1.5832,-1.5832,-1.5832,0.0,0.0,0.0,0.0,0.0,0.0,0.0,0.0,0.0,0.0,0.0,0.0,0.0,0.0,0.0,0.0,0.0,0.0,-0.0919,0.0,0.0,-0.1803,-0.1828,-0.1916,-0.21,-0.2122,-0.2362,-0.2828,0.0,0.0,0.0,0.0,0.0,-0.5371,0.0,0.0,-0.4737,-0.4706,-0.4413,-0.4026,-0.3993,-0.4006,-0.396,-0.3736,-0.3503,-0.3282,-0.3118,-0.2921,-0.274,-0.2724,-0.2724,0.0,0.0,0.0,-0.2929,-0.2954,-0.3369,-0.3868,0.0,0.0,0.0,0.0,0.0,0.0,0.0,0.0,0.0,0.0,0.0,0.0,0.0,0.0,0.0,0.0,0.0,0.0,0.0,0.0,0.0,0.0,0.0,0.0,0.0,0.0,0.0,0.0,0.0,-1.7326,-1.7326,-1.7326,-1.7326,-1.7326,-1.7326,-1.7333,-1.7239,-1.7066,-1.6979,-1.6979,-1.6683,-1.6494,-1.6487,-1.6487,-1.6211,-1.5832,-1.5832,-1.5832,-1.5832,-1.5832,-1.5832,-1.5832,-1.5832,-1.5832,-1.5832,-1.5832,-1.5927,-1.6123,0.0,0.0,0.0,0.0,0.0,0.0,0.0,0.0,0.0,0.0,0.0,0.0,0.0,0.0,0.0,-0.1036,-0.0962,-0.0963,-0.1057,-0.1317,-0.1524,-0.1677,-0.1762,-0.1872,-0.2034,-0.2078,-0.2319,-0.2754,0.0,0.0,0.0,-0.4318,-0.4739,0.0,0.0,0.0,0.0,-0.4673,-0.4401,-0.4102,-0.3917,-0.379,-0.3704,-0.358,-0.3432,-0.3279,-0.3189,-0.3114,-0.3028,-0.2984,-0.2904,-0.28,-0.2735,0.0,0.0,0.0,-0.2917,0.0,0.0,0.0,0.0,0.0,0.0,0.0,0.0,0.0,0.0,0.0,0.0,0.0,0.0,0.0,0.0,0.0,0.0,0.0,0.0,0.0,0.0,0.0,0.0,0.0,0.0,0.0,0.0,0.0,0.0,-1.7326,-1.7326,-1.7326,-1.7326,-1.7326,-1.7326,-1.7326,-1.7326,-1.7239,-1.7066,-1.6979,-1.6878,-1.6777,-1.6588,-1.6588,-1.6494,-1.6204,-1.6204,-1.6204,-1.6204,-1.6204,-1.6204,-1.6204,-1.6204,-1.6204,-1.6204,-1.6204,-1.6305,-1.6407,0.0,0.0,0.0,0.0,0.0,0.0,0.0,0.0,0.0,0.0,0.0,0.0,0.0,0.0,0.0,0.0,-0.1132,-0.113,-0.1268,-0.1427,-0.1547,-0.1613,-0.174,-0.1872,-0.1986,-0.2056,-0.2275,0.0,0.0,0.0,-0.3868,-0.4029,-0.4498,0.0,-0.5203,0.0,0.0,0.0,0.0,-0.4223,-0.3994,-0.3804,-0.3726,-0.3726,-0.3617,-0.3487,-0.3487,-0.3418,-0.3324,-0.3278,-0.3111,-0.2893,-0.2751,-0.258,0.0,0.0,0.0,0.0,0.0,0.0,0.0,0.0,0.0,0.0,0.0,0.0,0.0,0.0,0.0,0.0,0.0,0.0,0.0,0.0,0.0,0.0,0.0,0.0,0.0,0.0,0.0,0.0,0.0,0.0,0.0,0.0,0.0,-1.7245,-1.7326,-1.7326,-1.7326,-1.7326,-1.7326,-1.7326,-1.7326,-1.7326,-1.7239,-1.7066,-1.7066,-1.6972,-1.677,-1.677,-1.677,-1.677,-1.6676,-1.6588,-1.6588,-1.6588,-1.6588,-1.6588,-1.6588,-1.6588,-1.6588,-1.6588,-1.6683,-1.6683,0.0,0.0,0.0,0.0,0.0,0.0,0.0,0.0,0.0,0.0,0.0,0.0,-0.2015,-0.1856,-0.164,-0.1316,-0.1287,-0.1334,-0.1485,-0.1496,-0.1566,-0.1692,-0.1759,0.0,-0.1986,-0.2056,0.0,0.0,0.0,0.0,-0.3707,-0.3855,-0.4257,-0.4845,-0.4941,-0.4909,-0.4704,0.0,0.0,0.0,0.0,-0.4361,0.0,0.0,0.0,0.0,0.0,0.0,-0.3397,-0.3402,-0.3208,-0.2955,-0.2772,-0.2601,-0.2456,0.0,0.0,0.0,0.0,0.0,0.0,0.0,0.0,0.0,0.0,0.0,0.0,0.0,0.0,0.0,0.0,0.0,0.0,0.0,0.0,0.0,0.0,0.0,0.0,0.0,0.0,0.0,0.0,0.0,0.0,0.0,0.0,-1.7011,-1.7311,-1.7326,-1.7326,-1.7326,-1.7326,-1.7326,-1.7326,-1.7326,-1.7326,-1.7232,-1.7232,-1.7232,-1.7239,-1.7239,-1.7239,-1.7239,-1.677,-1.6588,-1.6588,-1.6588,-1.6588,-1.6588,-1.6588,-1.6588,-1.6588,-1.6588,-1.6784,-1.6979,0.0,0.0,0.0,0.0,0.0,0.0,0.0,0.0,0.0,0.0,0.0,0.0,0.0,-0.2164,-0.1969,-0.1772,-0.1672,-0.1641,-0.1692,-0.1696,-0.174,-0.1825,-0.185,-0.1916,-0.2056,-0.2078,0.0,0.0,0.0,-0.2925,-0.3377,-0.3707,-0.4077,-0.4535,-0.479,-0.4899,-0.4862,-0.4647,0.0,0.0,0.0,0.0,0.0,0.0,0.0,0.0,0.0,0.0,0.0,-0.4219,-0.3869,-0.3374,-0.3241,-0.2877,-0.2444,-0.2215,-0.2289,0.0,0.0,0.0,0.0,0.0,0.0,0.0,0.0,0.0,0.0,0.0,0.0,0.0,0.0,0.0,0.0,0.0,0.0,0.0,0.0,0.0,0.0,0.0,0.0,0.0,0.0,0.0,0.0,0.0,0.0,-1.6682,-1.7011,-1.7026,-1.7121,-1.7318,-1.7326,-1.7326,-1.7326,-1.7326,-1.7326,-1.7326,-1.7326,-1.7326,-1.7326,-1.7326,-1.7326,-1.7326,-1.7145,-1.7052,-1.7052,-1.7052,-1.7052,-1.7052,-1.7052,-1.7052,-1.7052,-1.7052,-1.7145,-1.7153,0.0,0.0,0.0,0.0,0.0,0.0,0.0,0.0,0.0,0.0,0.0,0.0,0.0,0.0,-0.2362,-0.2206,-0.2111,-0.202,-0.1898,-0.1894,-0.1916,-0.1964,-0.1982,-0.2048,-0.214,-0.2162,-0.2242,0.0,0.0,0.0,0.0,-0.3504,-0.3907,-0.4329,-0.45,-0.4763,0.0,0.0,0.0,-0.4809,0.0,0.0,-0.4933,0.0,0.0,0.0,0.0,0.0,0.0,0.0,0.0,-0.3876,-0.3675,-0.309,-0.2428,-0.2243,-0.2247,0.0,0.0,0.0,0.0,0.0,0.0,0.0,0.0,0.0,0.0,0.0,0.0,0.0,0.0,0.0,0.0,0.0,0.0,0.0,0.0,0.0,0.0,0.0,0.0,0.0,0.0,0.0,0.0,0.0,0.0,0.0,-1.6674,-1.6689,-1.6843,-1.7157,-1.7274,-1.7326,-1.7326,-1.7326,-1.7326,-1.7326,-1.7326,-1.7326,-1.7326,-1.7326,-1.7326,-1.7326,-1.7326,-1.7326,-1.7326,-1.7326,-1.7326,-1.7326,-1.7326,-1.7326,-1.7326,-1.7326,-1.7326,-1.7333,0.0,0.0,0.0,0.0,0.0,0.0,0.0,0.0,0.0,-0.3342,0.0,0.0,0.0,0.0,0.0,-0.2643,-0.2614,-0.2487,-0.2142,-0.213,-0.2126,-0.21,-0.2176,-0.2193,-0.2193,-0.2263,-0.2307,0.0,0.0,0.0,0.0,0.0,-0.3694,-0.4186,-0.419,-0.4498,-0.4971,0.0,-0.498,-0.5004,0.0,-0.5292,-0.5349,0.0,0.0,0.0,-0.5935,-0.5807,0.0,0.0,0.0,0.0,0.0,0.0,-0.2424,-0.2412,0.0,0.0,0.0,0.0,0.0,0.0,0.0,0.0,0.0,0.0,0.0,0.0,0.0,0.0,0.0,0.0,0.0,0.0,0.0,0.0,0.0,0.0,0.0,0.0,0.0,0.0,0.0,0.0,0.0,0.0,-1.5899,-1.6038,-1.6338,-1.636,-1.6513,-1.6828,-1.715,-1.7311,-1.7311,-1.7326,-1.7326,-1.7326,-1.7326,-1.7326,-1.7326,-1.7326,-1.7326,-1.7326,-1.7326,-1.7326,-1.7326,-1.7326,-1.7326,-1.7326,-1.7326,-1.7326,-1.7333,-1.7333,-1.7326,-1.7333,0.0,0.0,0.0,0.0,0.0,0.0,0.0,0.0,-0.4371,0.0,0.0,0.0,-0.3922,-0.3649,-0.3393,-0.3183,-0.313,-0.2955,-0.2631,-0.2617,-0.253,-0.232,-0.2333,-0.2333,-0.2263,-0.2285,-0.2307,-0.2307,0.0,0.0,0.0,0.0,0.0,0.0,-0.3952,-0.4243,-0.4585,-0.4614,0.0,0.0,-0.512,-0.5376,0.0,0.0,0.0,0.0,0.0,-0.6398,0.0,0.0,-0.5639,-0.5052,0.0,0.0,0.0,0.0,0.0,0.0,-0.2679,0.0,0.0,0.0,0.0,0.0,0.0,0.0,0.0,0.0,0.0,0.0,0.0,0.0,0.0,0.0,0.0,0.0,0.0,0.0,0.0,0.0,0.0,0.0,0.0,0.0,0.0,0.0,-1.5562,-1.5701,-1.6023,-1.625,-1.6411,-1.6499,-1.6813,-1.6982,-1.6982,-1.7216,-1.7326,-1.7326,-1.7326,-1.7326,-1.7326,-1.7326,-1.7326,-1.7326,-1.7326,-1.7326,-1.7326,-1.7326,-1.7326,-1.7326,-1.7326,-1.7426,-1.7628,-1.7628,-1.7714,-1.7893,0.0,0.0,0.0,0.0,0.0,0.0,0.0,0.0,-0.4814,0.0,0.0,0.0,-0.4733,-0.4655,-0.4386,-0.3943,-0.3862,-0.3632,-0.317,-0.3013,-0.2855,-0.2709,-0.2577,-0.2507,-0.2459,-0.2442,-0.2425,-0.2425,0.0,0.0,0.0,0.0,0.0,0.0,0.0,0.0,0.0,0.0,0.0,0.0,-0.5181,0.0,0.0,-0.6285,-0.6637,0.0,0.0,0.0,-0.6762,-0.6501,-0.6098,0.0,0.0,0.0,0.0,0.0,0.0,0.0,0.0,0.0,0.0,0.0,0.0,0.0,-0.428,-0.4716,0.0,0.0,0.0,0.0,0.0,0.0,0.0,0.0,0.0,0.0,0.0,0.0,0.0,0.0,0.0,0.0,0.0,0.0,0.0,-1.5211,-1.5226,-1.5372,-1.5694,-1.6009,-1.6177,-1.6177,-1.6484,-1.6652,-1.6652,-1.6835,-1.693,-1.693,-1.7069,-1.7128,-1.7135,-1.7267,-1.7326,-1.7326,-1.7326,-1.7333,-1.7434,-1.7434,-1.7434,-1.752,-1.7613,-1.7714,-1.7908,-1.7908,-1.8001,-1.8087,0.0,0.0,0.0,0.0,0.0,0.0,0.0,0.0,0.0,0.0,-0.5161,-0.5301,-0.5574,-0.574,-0.5539,-0.4823,-0.4749,-0.4437,-0.3755,-0.3439,-0.3248,-0.317,-0.2902,-0.276,-0.2733,-0.2657,-0.2609,-0.2609,0.0,0.0,0.0,0.0,0.0,0.0,0.0,0.0,0.0,0.0,0.0,-0.4762,-0.5353,-0.5746,0.0,0.0,-0.6993,0.0,-0.7254,-0.7254,-0.7221,-0.6955,-0.6407,0.0,0.0,0.0,0.0,0.0,-0.3601,0.0,0.0,0.0,0.0,0.0,0.0,0.0,-0.3976,-0.4404,-0.4895,0.0,0.0,0.0,0.0,0.0,0.0,0.0,0.0,0.0,0.0,0.0,0.0,0.0,0.0,0.0,0.0,-1.445,-1.4582,-1.4867,-1.4889,-1.5035,-1.5357,-1.565,-1.5826,-1.5862,-1.6155,-1.6404,-1.6404,-1.6441,-1.6463,-1.6463,-1.675,-1.6889,-1.6904,-1.7135,-1.7274,-1.7368,-1.7311,-1.7527,-1.7721,-1.7822,-1.7721,-1.7721,-1.7994,-1.8087,-1.8179,-1.8179,-1.8179,-1.8179,-0.6377,0.0,0.0,0.0,0.0,0.0,0.0,0.0,-0.6439,-0.6499,-0.6375,-0.6286,-0.6233,-0.6156,-0.5996,-0.5668,-0.5583,-0.5242,-0.4522,-0.444,-0.4135,-0.3615,-0.3266,-0.3064,-0.3017,-0.2795,-0.2681,-0.2681,0.0,0.0,0.0,0.0,0.0,0.0,0.0,0.0,0.0,0.0,0.0,-0.4762,-0.5353,0.0,-0.6164,-0.6623,-0.7078,-0.7464,-0.7464,-0.7464,-0.7431,0.0,-0.6686,-0.6061,0.0,0.0,0.0,0.0,0.0,0.0,0.0,0.0,0.0,0.0,0.0,0.0,-0.4508,-0.4692,-0.4895,0.0,0.0,0.0,0.0,0.0,0.0,0.0,0.0,0.0,0.0,0.0,0.0,0.0,0.0,0.0,0.0,-1.4079,-1.433,-1.456,-1.456,-1.4699,-1.5021,-1.5094,-1.5255,-1.5511,-1.5996,-1.6238,-1.6238,-1.6688,-1.6911,-1.6911,-1.6979,-1.7009,-1.7017,-1.7168,-1.7318,-1.7508,-1.7602,-1.7807,-1.7994,-1.8288,-1.8195,-1.7994,-1.8087,-1.8187,-1.8388,-1.8388,-1.8558,-1.8643,-0.698,0.0,0.0,0.0,0.0,0.0,0.0,0.0,-0.7091,-0.7042,-0.7092,-0.7259,-0.7536,-0.7363,-0.7099,-0.6786,-0.6553,-0.6169,-0.5528,-0.5052,-0.4641,-0.4317,-0.3796,-0.3493,-0.3441,-0.3128,-0.2958,-0.2958,0.0,0.0,0.0,0.0,0.0,0.0,0.0,0.0,0.0,0.0,-0.4739,-0.5084,-0.5448,0.0,-0.636,-0.6674,-0.7106,-0.7596,-0.7596,-0.7657,-0.7692,-0.7545,-0.7198,0.0,0.0,-0.5998,-0.5678,0.0,-0.5067,-0.488,0.0,0.0,0.0,-0.4495,0.0,0.0,0.0,-0.4793,-0.4984,0.0,0.0,0.0,0.0,0.0,0.0,0.0,0.0,0.0,0.0,0.0,0.0,0.0,0.0,0.0,0.0,-1.3034,-1.3336,-1.3802,-1.3975,-1.4285,-1.4692,-1.4853,-1.5013,-1.5182,-1.5649,-1.598,-1.598,-1.6329,-1.6591,-1.6505,-1.668,-1.6756,-1.6771,-1.7175,-1.7492,-1.7598,-1.7849,-1.8094,-1.8288,-1.8473,-1.8473,-1.8458,-1.8458,-1.8558,-1.8658,-1.8658,-1.8743,-1.8827,-0.7618,0.0,0.0,0.0,0.0,0.0,0.0,0.0,-0.7541,-0.7491,-0.778,-0.8202,-0.8786,-0.8616,-0.8348,-0.7981,-0.764,-0.7204,-0.6654,0.0,-0.5276,-0.5159,-0.4436,-0.4017,-0.4017,-0.3557,-0.3326,-0.3326,0.0,0.0,0.0,0.0,0.0,0.0,0.0,0.0,0.0,0.0,0.0,-0.5489,0.0,-0.6101,-0.6611,-0.6825,-0.7231,-0.7731,-0.7731,-0.7857,-0.7962,-0.7785,0.0,-0.7629,-0.7074,-0.6809,0.0,0.0,0.0,0.0,0.0,0.0,0.0,0.0,0.0,-0.4882,0.0,0.0,0.0,-0.5225,0.0,0.0,0.0,0.0,0.0,0.0,0.0,0.0,0.0,0.0,0.0,0.0,0.0,0.0,0.0,-1.1822,-1.2171,-1.2813,-1.3221,-1.364,-1.4183,-1.4523,-1.475,-1.486,-1.5427,-1.5674,-1.5741,-1.6079,-1.6252,-1.6252,-1.6446,-1.6584,-1.6599,-1.7198,-1.7512,-1.7679,-1.7934,-1.8218,-1.8574,-1.8574,-1.8658,-1.8827,-1.8827,-1.8827,-1.8827,-1.8827,-1.892,-1.8928,-0.7569,-0.744,0.0,0.0,0.0,0.0,0.0,0.0,-0.8156,-0.8492,-0.8781,-0.9035,0.0,0.0,0.0,0.0,0.0,0.0,-0.7829,0.0,-0.6633,-0.6175,-0.5252,-0.4765,-0.4765,-0.4098,-0.3717,-0.3717,0.0,0.0,0.0,0.0,0.0,0.0,-0.3883,0.0,0.0,0.0,-0.5443,0.0,-0.6319,-0.6743,0.0,-0.7175,-0.7536,-0.7987,-0.7987,-0.7987,-0.7982,0.0,-0.7825,-0.7716,0.0,-0.7196,0.0,0.0,0.0,0.0,0.0,0.0,0.0,0.0,-0.5591,0.0,0.0,0.0,-0.5454,-0.5454,0.0,0.0,0.0,0.0,0.0,0.0,0.0,0.0,0.0,0.0,0.0,0.0,0.0,0.0,0.0,0.0,-1.1671,-1.1741,-1.2173,-1.2747,-1.3345,-1.3564,-1.4055,-1.4831,-1.5373,-1.5782,-1.6079,-1.6409,-1.6648,-1.6656,-1.6696,-1.6711,-1.6727,-1.6853,-1.7282,-1.7763,-1.785,-1.8268,-1.8735,-1.8735,-1.8735,-1.8827,-1.8827,-1.8827,-1.8827,-1.9104,-1.9188,-1.9236,-0.7539,-0.749,0.0,0.0,0.0,0.0,0.0,0.0,-0.895,-0.9771,-0.9833,0.0,0.0,0.0,0.0,0.0,0.0,-0.9642,0.0,0.0,-0.7527,-0.7317,0.0,0.0,0.0,-0.4876,-0.443,-0.443,-0.3984,0.0,0.0,0.0,0.0,0.0,-0.4378,0.0,-0.5193,0.0,0.0,0.0,0.0,0.0,0.0,-0.7603,-0.7858,-0.8368,-0.8299,-0.8401,-0.8496,0.0,-0.8254,0.0,0.0,0.0,0.0,0.0,0.0,0.0,0.0,0.0,0.0,0.0,0.0,0.0,0.0,0.0,-0.5798,0.0,0.0,0.0,0.0,0.0,0.0,0.0,0.0,0.0,0.0,0.0,0.0,0.0,0.0,0.0,0.0,0.0,0.0,0.0,-1.1276,-1.1772,-1.2348,-1.2971,-1.3527,-1.4092,-1.4956,-1.5564,-1.5797,-1.6308,-1.6566,-1.673,-1.673,-1.673,-1.6746,-1.702,-1.7368,-1.7787,-1.8063,-1.8411,-1.8827,-1.8827,-1.892,-1.9004,-1.9004,-1.9004,-1.9096,-1.9296,-1.9518,-1.98,-0.7954,0.0,0.0,0.0,0.0,0.0,0.0,0.0,0.0,0.0,0.0,0.0,-1.1545,-1.1802,0.0,0.0,0.0,-1.0894,0.0,0.0,-0.8648,0.0,0.0,0.0,0.0,0.0,-0.5258,-0.5258,0.0,0.0,0.0,0.0,0.0,0.0,0.0,-0.5314,-0.589,0.0,0.0,-0.7257,-0.7395,-0.7885,-0.8471,-0.8159,-0.8309,-0.8648,-0.8676,-0.877,-0.884,-0.8667,-0.8565,0.0,-0.8307,0.0,0.0,0.0,0.0,0.0,-0.7132,0.0,0.0,0.0,0.0,0.0,0.0,0.0,0.0,0.0,0.0,0.0,0.0,0.0,0.0,-0.6184,0.0,0.0,0.0,0.0,0.0,0.0,0.0,0.0,0.0,0.0,0.0,-0.9829,-1.0274,-1.0836,-1.1496,-1.2305,-1.2913,-1.3411,-1.4394,-1.5057,-1.5496,-1.5975,-1.6382,-1.6648,-1.6648,-1.673,-1.6746,-1.7008,-1.7366,-1.7787,-1.8041,-1.8406,-1.892,-1.892,-1.9104,-1.9288,-1.9371,-1.9371,-1.9387,-1.9778,-1.9977,-2.0312,-0.8907,-0.8427,0.0,0.0,0.0,0.0,0.0,0.0,0.0,0.0,0.0,0.0,0.0,0.0,0.0,0.0,0.0,-1.2186,-1.2049,0.0,-1.0251,0.0,0.0,0.0,0.0,0.0,0.0,0.0,0.0,0.0,0.0,0.0,0.0,0.0,0.0,-0.5809,-0.6102,-0.6579,-0.7091,-0.762,-0.8063,-0.8703,-0.9298,0.0,-0.8851,-0.8894,-0.9104,0.0,0.0,-0.8923,-0.87,0.0,0.0,0.0,0.0,0.0,0.0,0.0,0.0,0.0,0.0,-0.7206,0.0,0.0,0.0,0.0,-0.6717,0.0,0.0,0.0,0.0,0.0,-0.6062,-0.6184,-0.5967,0.0,0.0,0.0,0.0,0.0,0.0,0.0,0.0,0.0,0.0,-0.8646,-0.9221,-0.9948,-1.0912,-1.1297,-1.2006,-1.3157,-1.3652,-1.4351,-1.532,-1.5736,-1.6059,-1.6394,-1.6648,-1.673,-1.673,-1.6746,-1.7127,-1.7771,-1.7787,-1.8354,-1.9188,-1.9188,-1.9387,-1.9587,-1.9845,-1.9837,-1.9978,-2.0323,-2.0458,-2.0669,0.0,0.0,0.0,0.0,0.0,0.0,0.0,-1.0505,0.0,0.0,0.0,0.0,0.0,0.0,-1.3862,0.0,0.0,-1.3769,-1.3112,-1.2291,0.0,0.0,0.0,-0.9458,0.0,0.0,0.0,0.0,0.0,0.0,0.0,0.0,0.0,0.0,0.0,-0.6095,0.0,0.0,0.0,0.0,0.0,-0.9165,-0.9388,0.0,0.0,-0.9749,-0.946,-0.9482,0.0,-0.9037,-0.8874,-0.8843,-0.8755,-0.8709,-0.873,-0.864,-0.8476,0.0,0.0,0.0,-0.7749,-0.7784,0.0,0.0,0.0,0.0,0.0,0.0,0.0,0.0,0.0,0.0,-0.6484,-0.6349,-0.5947,-0.5697,0.0,0.0,0.0,0.0,0.0,0.0,0.0,0.0,0.0,-0.7987,-0.8671,-0.9194,-0.9603,-1.0618,-1.1539,-1.2241,-1.3155,-1.397,-1.4667,-1.5347,-1.5862,-1.6051,-1.6537,-1.673,-1.673,-1.673,-1.7111,-1.7771,-1.7961,-1.854,-1.9188,-1.9387,-1.9579,-1.9845,-1.9845,-2.018,-2.0602,-2.0729,-2.0925,-2.1232,-1.0024,0.0,0.0,0.0,0.0,0.0,0.0,0.0,0.0,0.0,-1.3293,0.0,-1.4318,0.0,-1.4856,0.0,-1.4872,-1.4867,-1.4271,-1.3633,0.0,-1.2705,-1.1672,0.0,0.0,0.0,0.0,0.0,0.0,-0.6551,0.0,0.0,0.0,0.0,0.0,0.0,0.0,0.0,-0.7913,0.0,0.0,-0.9714,0.0,0.0,-1.0002,-1.0147,0.0,-0.9952,-0.9963,-0.9502,-0.9269,-0.9159,-0.9074,-0.9026,-0.8988,-0.8954,-0.8844,-0.874,-0.862,-0.8387,0.0,-0.8152,-0.7979,0.0,-0.7817,0.0,0.0,0.0,0.0,0.0,0.0,0.0,-0.6834,-0.6624,-0.6135,-0.5705,0.0,-0.5304,0.0,0.0,0.0,0.0,0.0,0.0,-0.7122,-0.7457,-0.797,-0.847,0.0,0.0,-1.0868,-1.1532,-1.2564,-1.3432,-1.4089,-1.4979,-1.5612,-1.5888,-1.6401,-1.673,-1.673,-1.673,-1.7119,-1.7953,-1.8143,-1.8725,-1.9471,-1.9671,-1.9929,-2.023,-2.023,-2.0551,-2.1071,-2.1071,-2.1388,-2.1884,0.0,0.0,0.0,0.0,-1.0306,0.0,0.0,0.0,-1.2666,0.0,-1.4286,-1.5032,-1.5275,-1.5511,-1.5723,-1.5996,-1.566,0.0,-1.542,-1.4949,0.0,0.0,-1.3108,-1.2336,-1.1551,0.0,0.0,0.0,0.0,0.0,0.0,0.0,0.0,0.0,-0.6588,0.0,-0.7506,-0.7853,-0.853,-0.9328,-0.9962,-1.0251,-1.0381,-1.0641,-1.0527,-1.0277,-1.0433,-1.0364,-1.0243,-1.0231,-0.9892,-0.9405,-0.9394,-0.9217,-0.9081,-0.9274,-0.9103,-0.8971,-0.9088,-0.8957,-0.8697,-0.8444,0.0,0.0,0.0,0.0,-0.8389,0.0,0.0,0.0,0.0,0.0,0.0,-0.7025,-0.6428,-0.5939,-0.5632,0.0,0.0,0.0,0.0,0.0,0.0,-0.6323,-0.6681,-0.7039,-0.7244,0.0,0.0,0.0,-1.0136,-1.1073,-1.1963,-1.288,-1.3768,-1.4661,-1.5397,-1.5888,-1.6401,-1.673,-1.673,-1.6746,-1.7311,-1.8238,-1.8254,-1.8919,-1.9928,-1.9928,-2.0339,-2.0883,-2.0883,-2.1105,-2.1439,-2.1439,-2.191,-2.2644,-1.2829,-1.2822,-1.274,0.0,-1.1981,-1.1792,0.0,0.0,0.0,0.0,-1.4968,-1.5497,-1.5819,-1.6271,-1.653,-1.6393,-1.6557,0.0,0.0,0.0,0.0,-1.4988,-1.4164,-1.3573,-1.3189,-1.1889,0.0,-1.0009,0.0,0.0,-0.745,0.0,0.0,0.0,0.0,0.0,-0.7519,-0.8057,-0.9048,-1.018,-1.0539,-1.0874,0.0,0.0,-1.1378,-1.1243,-1.0864,-1.0697,-1.0615,-1.0289,-1.0013,-0.9851,-0.9664,-0.9497,-0.935,-0.9414,-0.943,-0.9382,-0.9566,-0.9426,-0.9259,-0.9323,-0.9206,-0.908,0.0,0.0,0.0,0.0,0.0,0.0,0.0,0.0,0.0,-0.714,-0.6603,-0.6135,0.0,0.0,0.0,0.0,0.0,0.0,0.0,-0.6412,-0.6734,-0.6933,-0.726,0.0,0.0,0.0,0.0,-1.0756,-1.1632,-1.2542,-1.3416,-1.4539,-1.5273,-1.5529,-1.6283,-1.673,-1.6746,-1.7167,-1.7714,-1.8246,-1.8858,-1.941,-1.9928,-2.011,-2.0431,-2.0883,-2.0883,-2.1276,-2.185,-2.185,-2.2141,-2.2644,-1.4395,0.0,0.0,-1.4469,0.0,0.0,-1.3865,0.0,0.0,-1.5329,-1.5876,0.0,-1.6657,-1.6918,-1.6992,-1.699,-1.7187,0.0,0.0,0.0,0.0,-1.5615,-1.5149,-1.4582,-1.392,-1.2908,0.0,-1.0748,0.0,0.0,-0.7944,0.0,0.0,0.0,0.0,-0.7242,0.0,-0.8612,-0.959,-1.0625,-1.0902,0.0,0.0,-1.1598,-1.1706,-1.1632,-1.1335,-1.1111,-1.1001,-1.0597,-1.0266,-1.0077,-0.9958,-0.9759,-0.9676,-0.967,-0.9734,-0.9734,-0.9862,-0.9806,-0.9656,-0.9672,-0.964,-0.9538,-0.9415,-0.9447,-0.9505,0.0,0.0,0.0,0.0,0.0,0.0,0.0,0.0,0.0,0.0,0.0,0.0,0.0,0.0,0.0,0.0,0.0,-0.6751,0.0,0.0,0.0,0.0,0.0,0.0,-1.0235,-1.1498,-1.2483,-1.3218,-1.4574,-1.5312,-1.5543,-1.6324,-1.673,-1.691,-1.7347,-1.788,-1.8514,-1.9125,-1.9673,-2.0127,-2.0388,-2.0771,-2.1148,-2.1482,-2.1867,-2.2235,-2.2235,-2.2364,-2.2644,0.0,0.0,0.0,0.0,0.0,0.0,0.0,-1.5707,0.0,-1.6298,0.0,-1.7403,-1.751,-1.7448,-1.7443,-1.7666,0.0,-1.7392,-1.7139,-1.7139,-1.675,-1.6118,-1.5975,-1.5444,-1.4283,-1.3757,0.0,0.0,0.0,0.0,0.0,0.0,0.0,0.0,0.0,0.0,0.0,-0.9342,-1.0207,0.0,-1.1119,-1.1274,-1.152,-1.1685,-1.1781,-1.1781,-1.1781,-1.1632,-1.1366,-1.0955,-1.0615,-1.0353,-1.0288,-1.0015,-0.9868,-0.9989,-0.9983,-0.9983,-1.0047,-1.0047,-0.9996,-0.9884,-0.9881,-0.9932,-0.9689,-0.9741,-0.9858,-0.9858,-0.9825,-0.9798,0.0,0.0,0.0,0.0,0.0,0.0,0.0,0.0,0.0,0.0,0.0,0.0,0.0,0.0,0.0,0.0,0.0,0.0,0.0,0.0,0.0,-0.9707,-1.1387,-1.2488,-1.3073,0.0,-1.5536,-1.569,-1.6397,-1.6918,-1.722,-1.7579,-1.8209,-1.8919,-1.9377,-1.9805,-2.0317,-2.072,-2.1122,-2.1559,-2.227,-2.2644,-2.2644,-2.2644,-2.2644,-2.2644,0.0,0.0,0.0,0.0,0.0,-1.7929,-1.7828,-1.7279,-1.7081,-1.7467,-1.7774,-1.7863,-1.7787,-1.7995,-1.8043,-1.7691,-1.77,0.0,0.0,0.0,0.0,-1.6879,-1.6437,-1.5827,-1.5218,-1.4522,-1.36,0.0,0.0,0.0,0.0,0.0,0.0,0.0,0.0,0.0,-0.947,-0.9876,0.0,-1.1764,-1.1614,-1.1891,-1.2378,-1.2211,-1.2157,-1.215,-1.2003,-1.1855,-1.1588,-1.1316,-1.1038,-1.076,-1.0482,-1.0211,-0.9989,-0.9983,-0.9983,-1.0047,-1.0174,-1.0244,-1.0295,-1.0431,-1.0488,-1.0474,-1.0421,-1.0532,-1.0588,-1.0588,-1.0512,-1.0453,-1.0453,0.0,0.0,0.0,0.0,0.0,0.0,0.0,0.0,0.0,0.0,0.0,0.0,0.0,0.0,0.0,0.0,0.0,0.0,0.0,0.0,0.0,-1.1234,0.0,0.0,0.0,-1.5536,-1.569,-1.6629,-1.7211,-1.7511,-1.8217,-1.8849,-1.9297,-1.9937,-2.0232,-2.0317,-2.072,-2.1285,-2.1936,-2.2381,-2.2644,-2.2644,-2.2644,-2.2644,-2.2644,0.0,0.0,0.0,0.0,0.0,0.0,0.0,-1.9375,0.0,-1.8181,-1.8563,-1.878,-1.8629,-1.8801,-1.8863,-1.8688,-1.853,-1.8372,-1.8129,-1.8037,-1.787,-1.7606,-1.7171,0.0,-1.5975,-1.5127,-1.412,-1.3018,0.0,0.0,-0.9532,0.0,0.0,0.0,0.0,-0.9068,0.0,0.0,0.0,-1.1997,-1.2082,-1.2345,-1.2746,-1.2673,-1.2599,-1.2599,-1.2526,-1.2378,-1.2238,-1.1365,-1.0994,-1.081,-1.0443,-1.0283,-1.0174,-1.0308,-1.0308,-1.0308,-1.0434,-1.0434,-1.0498,-1.0561,-1.0618,-1.0681,-1.0681,-1.0807,-1.0933,-1.0933,-1.0878,-1.0786,-1.0625,-1.0233,0.0,0.0,0.0,0.0,0.0,0.0,0.0,0.0,0.0,0.0,0.0,0.0,0.0,0.0,0.0,0.0,0.0,0.0,0.0,0.0,0.0,0.0,0.0,0.0,0.0,-1.5851,-1.6717,-1.7409,-1.7945,-1.8573,-1.9124,-1.9575,-2.0039,-2.0292,-2.0335,-2.0917,-2.1602,-2.2304,-2.2475,-2.2644,-2.2644,-2.2644,-2.2644,-2.2644,0.0,-2.029,0.0,0.0,-2.0615,0.0,-2.0966,-2.1056,-2.0512,-1.9158,-1.9408,-1.9705,-1.9475,-1.9583,-1.9665,-1.958,-1.9418,-1.917,-1.8998,-1.8835,-1.8623,-1.817,-1.7894,-1.7383,-1.674,-1.5642,-1.4655,0.0,0.0,0.0,0.0,0.0,0.0,0.0,0.0,0.0,0.0,0.0,-1.1588,-1.2239,-1.2417,-1.2699,-1.2973,-1.29,-1.29,-1.29,-1.29,-1.29,-1.2729,-1.156,-1.1086,-1.0989,-1.0484,-1.0371,-1.0371,-1.0561,-1.0624,-1.0624,-1.0688,-1.0688,-1.0688,-1.0688,-1.0807,-1.087,-1.087,-1.1045,-1.122,-1.122,-1.134,-1.1284,-1.0972,-1.0859,0.0,0.0,0.0,0.0,0.0,0.0,0.0,0.0,0.0,0.0,0.0,0.0,0.0,0.0,0.0,0.0,0.0,0.0,0.0,0.0,0.0,-1.2521,-1.3416,0.0,-1.5835,-1.6005,-1.6797,-1.7615,-1.8406,-1.87,-1.9253,-1.9881,-2.0163,-2.0386,-2.0583,-2.1251,-2.1936,-2.2644,-2.2644,-2.2644,-2.2644,-2.2644,-2.2644,-2.2653,0.0,0.0,0.0,0.0,0.0,0.0,0.0,-2.1495,-2.132,-2.0699,-2.0504,-2.0298,-2.0138,-2.009,-2.0023,-1.992,-1.958,-1.9495,-1.9418,-1.8998,-1.8818,-1.8698,-1.8279,-1.7738,-1.735,-1.639,-1.5575,0.0,0.0,0.0,0.0,0.0,0.0,0.0,0.0,0.0,0.0,-1.1524,-1.2102,-1.2895,-1.2706,-1.2913,-1.3127,-1.2973,-1.29,-1.29,-1.29,-1.29,-1.2802,-1.2117,-1.1771,-1.1533,-1.0806,-1.0561,-1.0624,-1.0744,-1.0807,-1.0807,-1.0996,-1.1059,-1.1059,-1.1059,-1.1059,-1.1059,-1.1059,-1.1404,-1.1739,-1.1739,-1.2094,-1.2269,-1.1942,-1.165,-1.1406,0.0,0.0,0.0,0.0,0.0,0.0,0.0,0.0,0.0,0.0,0.0,0.0,0.0,0.0,0.0,0.0,0.0,0.0,-0.9858,0.0,-1.2521,-1.3416,-1.4917,-1.5835,-1.6005,-1.6965,-1.7846,-1.8784,-1.9076,-1.9564,-2.024,-2.0275,-2.0677,-2.1336,-2.1764,-2.2184,-2.2644,-2.2644,-2.2644,-2.2644,-2.2644,-2.2644,-2.2595,0.0,0.0,0.0,0.0,0.0,0.0,0.0,-2.237,-2.2294,-2.2035,-2.1465,-2.105,-2.0964,-2.0934,-2.0914,-2.0826,-2.0545,-2.036,-2.0192,-2.0015,-1.9744,-1.9355,-1.9011,-1.8564,-1.7987,-1.7218,-1.6415,0.0,0.0,0.0,0.0,0.0,0.0,0.0,0.0,-1.192,-1.2202,-1.26,-1.3006,-1.3382,-1.3499,-1.3648,-1.3695,-1.3622,-1.3557,-1.3419,-1.3419,-1.3346,-1.3201,-1.2692,-1.2206,-1.1803,-1.1127,-1.087,-1.0933,-1.0933,-1.0996,-1.0996,-1.1059,-1.1122,-1.1122,-1.1122,-1.1185,-1.1247,-1.1247,-1.1553,-1.1906,-1.1906,-1.2233,-1.2482,-1.235,-1.2226,-1.2028,0.0,0.0,0.0,0.0,0.0,0.0,0.0,0.0,0.0,0.0,0.0,0.0,0.0,0.0,0.0,0.0,0.0,0.0,-1.0318,0.0,-1.2952,-1.3842,-1.5168,-1.6102,-1.6563,-1.7456,-1.833,-1.9007,-1.9323,-1.9804,-2.0309,-2.054,-2.0934,-2.1439,-2.1833,-2.221,-2.2644,-2.2644,-2.2644,-2.2578,-2.28,-2.2886,-2.2937,-2.4159,0.0,-2.3757,0.0,-2.3694,-2.3446,-2.3565,-2.3427,-2.3258,-2.3258,-2.252,-2.1954,-2.1658,-2.1655,-2.1571,-2.1482,-2.1284,-2.1105,-2.0934,-2.0835,-2.0532,-2.0004,-1.9698,0.0,-1.8617,-1.7887,-1.7121,-1.6238,-1.5421,0.0,0.0,0.0,0.0,0.0,-1.2636,-1.2841,-1.2897,-1.3386,-1.3645,-1.3744,-1.3966,-1.4129,-1.4129,-1.4129,-1.3992,-1.3863,-1.3863,-1.3783,-1.3585,-1.3197,-1.2723,-1.223,-1.1565,-1.1332,-1.1396,-1.1461,-1.1461,-1.1439,-1.1411,-1.1383,-1.1361,-1.1269,-1.1374,-1.1502,-1.1502,-1.1891,-1.235,-1.2445,-1.265,-1.2782,-1.2755,-1.2733,-1.2623,-1.2365,0.0,0.0,0.0,0.0,0.0,0.0,0.0,-1.0313,-0.9929,0.0,0.0,0.0,0.0,0.0,0.0,0.0,0.0,0.0,0.0,0.0,0.0,-1.5436,-1.6387,-1.7092,-1.7887,-1.8701,-1.9358,-1.9735,-2.0043,-2.0317,-2.0823,-2.1174,-2.1448,-2.1953,-2.2312,-2.2644,-2.2644,-2.2612,-2.2749,-2.3014,-2.3186,-2.3331,-2.6225,-2.5885,-2.5533,-2.5543,-2.5158,-2.4772,-2.4782,-2.4588,-2.4404,-2.4404,-2.3751,-2.3066,-2.2223,-2.2097,-2.2008,-2.1741,-2.1472,-2.1392,-2.1392,-2.1105,-2.0907,0.0,0.0,-1.9817,-1.917,-1.826,-1.7612,-1.7162,0.0,0.0,-1.5251,0.0,-1.3725,-1.3408,-1.3416,-1.3468,-1.3576,-1.3584,-1.3767,-1.4122,-1.4129,-1.4129,-1.4129,-1.4129,-1.4129,-1.4129,-1.4129,-1.4057,-1.4011,-1.3691,-1.3437,-1.316,-1.2272,-1.1969,-1.2037,-1.2248,-1.2316,-1.2244,-1.2051,-1.1963,-1.1955,-1.1641,-1.1794,-1.1963,-1.1963,-1.2533,-1.3089,-1.3411,-1.3477,-1.3461,-1.3279,-1.3289,-1.3254,-1.3126,0.0,0.0,0.0,0.0,0.0,0.0,-1.1301,-1.1108,-1.0609,0.0,0.0,0.0,0.0,0.0,0.0,0.0,0.0,-1.1238,-1.2351,0.0,-1.4553,-1.5565,-1.6431,-1.7392,-1.8012,-1.8752,-1.9752,-2.0121,-2.0292,-2.0335,-2.1079,-2.1405,-2.1465,-2.2227,-2.2644,-2.2644,-2.2644,-2.2775,-2.3109,-2.3117,-2.3348,-2.3708,-2.6357,-2.5986,-2.5725,-2.5655,-2.5473,-2.5178,-2.4894,-2.471,-2.4608,-2.4414,-2.4205,-2.3779,-2.3085,-2.2443,-2.2097,0.0,-2.1741,-2.1571,0.0,-2.1302,-2.1195,-2.0916,-2.0792,-2.0554,-2.0096,-1.9314,-1.865,-1.802,0.0,0.0,0.0,-1.5592,-1.5324,-1.5056,-1.5284,-1.5307,-1.5271,-1.5271,-1.5253,-1.5189,-1.5189,-1.5056,-1.4859,-1.4859,-1.4637,-1.4281,-1.4281,-1.4209,-1.4114,-1.4014,-1.3905,-1.3818,-1.3491,-1.2947,-1.2316,-1.239,-1.2458,-1.2429,-1.2327,-1.2365,-1.2343,-1.2241,-1.2292,-1.2372,-1.2506,-1.2983,-1.3527,-1.3852,-1.392,-1.389,-1.3848,-1.3833,-1.3727,-1.3477,-1.3134,0.0,0.0,0.0,0.0,0.0,-1.1631,-1.1449,0.0,-1.0967,0.0,0.0,0.0,0.0,0.0,0.0,0.0,0.0,-1.3341,0.0,-1.5006,-1.6081,-1.7045,-1.7788,-1.8566,-1.9297,-2.0121,-2.024,-2.0437,-2.072,-2.1199,-2.1559,-2.185,-2.2338,-2.2644,-2.2644,-2.2644,-2.2775,-2.3143,-2.3391,-2.3725,-2.411,-2.6954,-2.676,-2.6495,-2.6239,-2.6156,-2.5971,-2.5671,-2.5485,-2.5381,-2.509,-2.4952,-2.4594,-2.388,-2.3104,0.0,-2.2195,-2.2008,-2.183,-2.166,-2.1571,-2.1383,-2.1195,-2.1186,-2.0927,-2.0544,-1.9876,0.0,-1.8742,-1.7899,-1.6936,-1.6121,-1.6338,-1.6246,-1.5972,-1.6178,-1.6209,-1.6141,-1.6141,-1.6065,-1.5904,-1.5904,-1.5775,-1.5581,-1.5452,-1.5185,-1.4896,-1.4697,-1.4497,-1.4425,-1.4281,-1.4274,-1.4201,-1.4201,-1.3704,-1.3085,-1.3085,-1.3085,-1.3063,-1.2944,-1.2914,-1.2885,-1.2758,-1.2825,-1.2952,-1.3201,-1.3537,-1.3821,-1.4091,-1.4129,-1.4129,-1.4209,-1.4201,-1.414,-1.401,-1.3576,-1.3189,-1.3045,0.0,0.0,0.0,0.0,0.0,0.0,-1.192,-1.1867,0.0,0.0,0.0,0.0,0.0,0.0,-1.2995,-1.4047,0.0,-1.5562,-1.6599,-1.7425,-1.8159,-1.9177,-1.9838,-2.0292,-2.0292,-2.0506,-2.09,-2.1251,-2.1636,-2.203,-2.2398,-2.2644,-2.2644,-2.2644,-2.286,-2.3348,-2.358,-2.3999,-2.4487,-2.8092,-2.782,-2.7536,0.0,-2.7081,0.0,-2.69,-2.6699,-2.64,-2.6197,-2.5754,-2.5224,-2.4473,-2.388,-2.3194,-2.2479,0.0,0.0,0.0,-2.183,-2.1651,-2.1491,-2.1392,-2.1132,-2.0579,-2.0075,-1.9649,-1.9224,-1.8347,-1.7493,-1.675,-1.675,-1.6598,-1.6436,-1.6436,-1.6436,-1.6428,-1.6428,-1.636,-1.636,-1.636,-1.6335,-1.6286,-1.5964,-1.5807,-1.5724,-1.517,-1.496,-1.4864,-1.4713,-1.4569,-1.4425,-1.4425,-1.4281,-1.4129,-1.4129,-1.4129,-1.4068,-1.3698,-1.3622,-1.3546,-1.3225,-1.3386,-1.3769,-1.4068,-1.4129,-1.4129,-1.4129,-1.4129,-1.4201,-1.4353,-1.4425,-1.4425,-1.4569,-1.4069,-1.3608,-1.3584,0.0,0.0,0.0,0.0,0.0,0.0,-1.2956,-1.3222,0.0,0.0,0.0,0.0,0.0,-1.3412,-1.4125,-1.4538,-1.5221,-1.6198,-1.6993,-1.7796,-1.8609,-1.9762,-2.0292,-2.0292,-2.0317,-2.0549,-2.0934,-2.1293,-2.167,-2.2064,-2.2407,-2.2644,-2.2644,-2.2644,-2.3006,-2.3665,-2.3665,-2.4153,-2.4821,0.0,0.0,-2.7536,-2.7536,-2.7357,-2.7177,-2.69,-2.6805,-2.6699,-2.64,-2.6108,-2.5654,-2.4789,-2.4418,-2.3874,-2.3027,-2.253,-2.2353,-2.2353,-2.2097,-2.2008,-2.1919,-2.1741,-2.1606,-2.1416,-2.0553,-1.9692,-1.8833,-1.8567,-1.8347,-1.8004,-1.8004,-1.7845,-1.7607,-1.7607,-1.7519,-1.7351,-1.7351,-1.7279,-1.7128,-1.7128,-1.6962,-1.6785,-1.6702,-1.632,-1.5757,-1.5667,-1.538,-1.5133,-1.5062,-1.5062,-1.4991,-1.4864,-1.4721,-1.4649,-1.4201,-1.4129,-1.4114,-1.3966,-1.3943,-1.3927,-1.3915,-1.4032,-1.426,-1.4338,-1.4425,-1.4497,-1.4497,-1.4497,-1.4497,-1.4569,-1.4569,-1.4569,-1.4569,-1.4275,-1.3894,-1.3624,-1.3441,0.0,0.0,-1.3194,-1.3399,-1.3399,-1.3412,-1.3636,0.0,0.0,0.0,0.0,-1.4975,-1.4895,-1.4522,-1.5372,-1.6038,-1.6452,-1.7417,-1.8354,-1.9431,-1.9979,-2.0292,-2.03,-2.0609,-2.0942,-2.1302,-2.1687,-2.2073,-2.2424,-2.2509,-2.2644,-2.2644,-2.2644,-2.3014,-2.3691,-2.3674,-2.4153,-2.4821,-2.8395,-2.8207,-2.7925,-2.7631,-2.7536,-2.7357,-2.7081,-2.7081,-2.6986,-2.6699,-2.6592,-2.6059,-2.4891,-2.47,-2.4163,-2.3213,-2.2794,-2.2618,-2.2618,-2.2353,-2.2274,-2.2274,-2.2008,-2.1919,-2.1919,-2.0857,-1.9805,-1.8851,-1.8851,-1.8772,-1.8523,-1.8523,-1.8442,-1.8282,-1.8201,-1.8112,-1.8031,-1.787,-1.7789,-1.7635,-1.7635,-1.7599,-1.7397,-1.722,-1.6909,-1.6539,-1.6296,-1.603,-1.5846,-1.5691,-1.5691,-1.5691,-1.5561,-1.5454,-1.5251,-1.4952,-1.4615,-1.4346,-1.4346,-1.4346,-1.4346,-1.4346,-1.4425,-1.4497,-1.4497,-1.4569,-1.4569,-1.4569,-1.4569,-1.4569,-1.4569,-1.4569,-1.4569,-1.4569,-1.4339,-1.4045,-1.3854,-1.3688,0.0,-1.3338,-1.3616,-1.3886,-1.4053,-1.422,-1.4458,-1.48,-1.5006,0.0,-1.5404,-1.5737,-1.5745,-1.5372,-1.599,-1.6525,-1.7017,-1.8077,-1.907,-2.0001,-2.0198,-2.0386,-2.0566,-2.078,-2.1174,-2.1687,-2.1901,-2.221,-2.2644,-2.2644,-2.2644,-2.2644,-2.2644,-2.3014,-2.3699,-2.3674,-2.4153,-2.4821,-2.8488,-2.8395,-2.8301,-2.782,-2.7631,-2.7536,-2.7357,-2.7357,-2.7262,-2.6986,-2.69,-2.6384,-2.5175,-2.4934,-2.4475,-2.3389,-2.3096,-2.2891,-2.2891,-2.2618,-2.2441,-2.2441,-2.2274,-2.2185,-2.2185,-2.1105,-2.0071,-1.9172,-1.9109,-1.8922,-1.878,-1.878,-1.87,-1.87,-1.8523,-1.8442,-1.8442,-1.8201,-1.8121,-1.8121,-1.8121,-1.8121,-1.8086,-1.7759,-1.7674,-1.7501,-1.6954,-1.6725,-1.6674,-1.6438,-1.6362,-1.6362,-1.6353,-1.6163,-1.5922,-1.584,-1.5397,-1.484,-1.4737,-1.4641,-1.4641,-1.4641,-1.4569,-1.4569,-1.4569,-1.4681,-1.472,-1.472,-1.476,-1.4784,-1.4728,-1.472,-1.4704,-1.4577,-1.4387,-1.4172,-1.4117,0.0,-1.3743,-1.3743,-1.4053,-1.4411,-1.476,-1.5078,-1.5396,-1.5729,-1.5753,-1.5777,-1.5833,-1.6174,-1.6445,-1.6445,-1.6613,-1.7033,-1.7831,-1.8879,-1.9737,-2.0292,-2.0292,-2.0497,-2.0883,-2.0934,-2.1336,-2.2004,-2.2055,-2.2252,-2.2644,-2.2644,-2.2644,-2.2644,-2.2644,-2.3014,-2.3699,-2.3674,-2.4153,-2.4821,-2.8757,-2.8581,-2.8395,-2.8301,-2.7914,-2.7641,-2.7547,-2.7452,-2.7262,-2.7262,-2.7081,-2.6696,-2.6042,-2.5482,-2.4887,-2.4355,-2.3712,-2.3329,-2.3057,-2.2882,-2.2715,-2.2715,-2.253,-2.2353,-2.2353,-2.1362,-2.0633,-2.0086,-1.9556,-1.9152,-1.8922,-1.8922,-1.8851,-1.87,-1.87,-1.862,-1.862,-1.862,-1.862,-1.862,-1.862,-1.862,-1.8612,-1.855,-1.8311,-1.8002,-1.7726,-1.7414,-1.7052,-1.6834,-1.6843,-1.6758,-1.6598,-1.6489,-1.6439,-1.6279,-1.6154,-1.5905,-1.5297,-1.4999,-1.4792,-1.4641,-1.4569,-1.4569,-1.4569,-1.4879,-1.5102,-1.5102,-1.5324,-1.5427,-1.5149,-1.5102,-1.4998,-1.4689,-1.4522,-1.4458,-1.4156,0.0,-1.4403,-1.4403,-1.48,-1.5149,-1.5483,-1.557,-1.5745,-1.6095,-1.6118,-1.6254,-1.6555,-1.7062,-1.7347,-1.7347,-1.743,-1.794,-1.9109,-1.9499,-1.9834,-2.0292,-2.0292,-2.0497,-2.0891,-2.1191,-2.1576,-2.2013,-2.2329,-2.2492,-2.2644,-2.2644,-2.2644,-2.2644,-2.2644,-2.3006,-2.3665,-2.3665,-2.4153,-2.4821,-2.8943,-2.8757,-2.8571,-2.8395,-2.8207,-2.8019,-2.782,-2.7631,-2.7441,-2.7441,-2.7262,-2.6896,-2.6227,-2.5717,-2.5189,-2.4555,-2.4015,-2.358,-2.3493,-2.3144,-2.2969,-2.2969,-2.2706,-2.2425,-2.211,-2.1646,-2.1053,-2.0495,-2.0056,-1.9691,-1.932,-1.9231,-1.9073,-1.9002,-1.8922,-1.8851,-1.8851,-1.878,-1.87,-1.87,-1.87,-1.87,-1.87,-1.87,-1.8585,-1.8417,-1.8347,-1.8153,-1.7986,-1.7917,-1.7848,-1.7839,-1.7596,-1.745,-1.7218,-1.697,-1.6531,-1.5931,-1.5601,-1.5289,-1.507,-1.4919,-1.5073,-1.5219,-1.5219,-1.5494,-1.5821,-1.5821,-1.5799,-1.5787,-1.5635,-1.5527,-1.534,-1.499,-1.4935,0.0,0.0,-1.4832,-1.4998,-1.5173,-1.5348,-1.5586,-1.5928,-1.596,-1.6111,-1.6468,-1.6492,-1.6643,-1.7159,-1.7419,-1.7766,-1.8217,-1.8501,-1.8854,-1.9558,-1.9851,-2.0121,-2.0292,-2.0506,-2.0805,-2.1174,-2.155,-2.1936,-2.2304,-2.2475,-2.2644,-2.2644,-2.2644,-2.2644,-2.2644,-2.2644,-2.3006,-2.3665,-2.3665,-2.4153,-2.4821,-2.922,-2.9035,-2.8757,-2.8581,-2.8488,-2.829,-2.8092,-2.7914,-2.7726,-2.7726,-2.7536,-2.7117,-2.6568,-2.6146,-2.5523,-2.4875,-2.4341,-2.4048,-2.3937,-2.3493,-2.3222,-2.3232,-2.2969,-2.265,-2.215,-2.1969,-2.1598,-2.0952,-2.0599,-2.0173,-1.9865,-1.9594,-1.9381,-1.9381,-1.9231,-1.9082,-1.9073,-1.8922,-1.8851,-1.8851,-1.8851,-1.8851,-1.8851,-1.8851,-1.8851,-1.8851,-1.8772,-1.8772,-1.8772,-1.87,-1.87,-1.87,-1.8523,-1.825,-1.8013,-1.7839,-1.7056,-1.6221,-1.6063,-1.5748,-1.5524,-1.5452,-1.5675,-1.5889,-1.5889,-1.6162,-1.6409,-1.6409,-1.6415,-1.6293,-1.6211,-1.611,-1.5843,-1.5498,0.0,0.0,0.0,-1.5375,-1.5427,-1.5761,-1.5801,-1.5944,-1.6293,-1.6333,-1.6476,-1.6908,-1.694,-1.7175,-1.7782,-1.7965,-1.8349,-1.9166,-1.936,-1.9592,-1.9872,-2.0155,-2.0292,-2.0292,-2.0694,-2.1071,-2.1422,-2.1816,-2.2201,-2.2644,-2.2644,-2.2644,-2.2644,-2.2644,-2.2644,-2.2644,-2.2644,-2.3006,-2.3665,-2.3665,-2.4153,-2.4821,-2.9497,-2.922,-2.9035,-2.9035,-2.8664,-2.8395,-2.8395,-2.8092,-2.7998,-2.7998,-2.7715,-2.7526,-2.7484,-2.689,-2.6341,-2.5875,-2.5163,-2.4655,-2.4227,-2.3937,-2.3667,-2.3503,-2.3232,-2.3038,-2.3008,-2.2457,-2.2149,-2.2092,-2.1037,-2.0557,-2.0519,-2.0052,-1.9794,-1.9566,-1.9566,-1.9478,-1.9301,-1.9222,-1.9222,-1.9222,-1.9222,-1.9222,-1.9222,-1.9222,-1.9222,-1.9231,-1.9073,-1.9002,-1.8922,-1.8772,-1.87,-1.87,-1.87,-1.8683,-1.8656,-1.8656,-1.8197,-1.7476,-1.6733,-1.6539,-1.6439,-1.6279,-1.622,-1.6244,-1.6244,-1.6533,-1.6884,-1.6884,-1.7078,-1.721,-1.6863,-1.6806,-1.6682,-1.6302,0.0,0.0,-1.5956,-1.5795,-1.5777,-1.6126,-1.6166,-1.6309,-1.6659,-1.669,-1.6924,-1.7527,-1.7552,-1.7798,-1.8415,-1.8929,-1.9554,-2.0198,-1.9817,-1.9906,-2.0249,-2.0275,-2.0292,-2.0292,-2.0694,-2.1071,-2.1422,-2.1816,-2.2201,-2.2644,-2.2644,-2.2644,-2.2644,-2.2644,-2.2644,-2.2644,-2.2644,-2.3006,-2.3665,-2.3665,-2.4153,-2.4821,-2.9794,-2.9497,-2.9301,-2.9128,-2.8943,-2.8757,-2.8664,-2.8384,-2.829,-2.829,-2.7998,-2.7809,-2.7809,-2.7222,-2.6794,-2.6616,-2.5896,-2.5362,-2.482,-2.4615,-2.423,-2.3513,-2.3406,-2.3232,-2.3135,-2.2901,-2.2601,-2.2349,-2.1851,-2.147,-2.1183,-2.0609,-2.0259,-2.025,-1.9907,-1.9706,-1.9696,-1.9696,-1.9696,-1.9696,-1.9696,-1.9627,-1.9478,-1.9478,-1.939,-1.9301,-1.9222,-1.9152,-1.9143,-1.9073,-1.9073,-1.9082,-1.8922,-1.8851,-1.8851,-1.878,-1.8514,-1.8285,-1.7804,-1.7261,-1.6758,-1.6683,-1.6851,-1.7012,-1.7012,-1.7308,-1.7586,-1.7586,-1.7607,-1.7577,-1.7443,-1.7257,-1.7062,-1.6768,0.0,-1.6563,-1.6563,-1.6477,-1.6537,-1.6895,-1.6944,-1.6993,-1.7131,-1.7343,-1.7605,-1.7828,-1.805,-1.8423,-1.905,-1.9605,-2.0056,-2.0283,-2.0155,-2.0155,-2.0292,-2.0292,-2.0412,-2.066,-2.1037,-2.1405,-2.179,-2.2167,-2.2415,-2.2644,-2.2644,-2.2644,-2.2644,-2.2644,-2.2644,-2.2569,-2.2809,-2.3211,-2.3691,-2.3931,-2.4359,-2.4821,-3.0216,-3.0145,-3.0004,-2.9661,-2.9442,-2.9212,-2.8965,-2.8664,-2.8488,-2.8488,-2.829,-2.8102,-2.8102,-2.7628,-2.7292,-2.7144,-2.6564,-2.6007,-2.556,-2.5228,-2.4588,-2.361,-2.359,-2.3493,-2.3309,-2.3232,-2.3085,-2.2801,-2.2493,-2.21,-2.1781,-2.1293,-2.0929,-2.091,-2.0533,-2.041,-2.032,-2.0188,-2.014,-2.0131,-1.9998,-1.9794,-1.9715,-1.9715,-1.9636,-1.946,-1.946,-1.946,-1.939,-1.939,-1.9381,-1.9301,-1.9152,-1.9073,-1.9073,-1.8851,-1.8772,-1.8772,-1.8523,-1.7979,-1.7432,-1.7269,-1.7458,-1.7646,-1.7646,-1.7843,-1.804,-1.804,-1.787,-1.7781,-1.7781,-1.7708,-1.7471,-1.7292,-1.7171,-1.7171,-1.7171,-1.7092,-1.7111,-1.7359,-1.7491,-1.7565,-1.7565,-1.7971,-1.8228,-1.8429,-1.8671,-1.9067,-1.9614,-2.0065,-2.0352,-2.0472,-2.048,-2.0531,-2.0643,-2.0531,-2.0609,-2.0883,-2.1362,-2.1739,-2.2013,-2.2381,-2.2644,-2.2644,-2.2644,-2.2644,-2.2644,-2.2644,-2.2621,-2.2749,-2.3014,-2.3417,-2.3871,-2.4136,-2.4479,-2.4821,-3.1019,-3.1232,-3.1224,-3.0702,-3.0225,-2.9692,-2.9205,-2.8943,-2.8757,-2.8757,-2.8571,-2.8395,-2.8395,-2.8196,-2.7806,-2.7328,-2.7133,-2.677,-2.6298,-2.5581,-2.4764,-2.3871,-2.3841,-2.3841,-2.3841,-2.358,-2.3503,-2.3503,-2.281,-2.2519,-2.251,-2.209,-2.1792,-2.1505,-2.1505,-2.1422,-2.1154,-2.0746,-2.0576,-2.0538,-2.0121,-1.9872,-1.9872,-1.9872,-1.9872,-1.9872,-1.9872,-1.9803,-1.9576,-1.9576,-1.9478,-1.9311,-1.9311,-1.9311,-1.9222,-1.9073,-1.9002,-1.8922,-1.8772,-1.87,-1.862,-1.8121,-1.804,-1.804,-1.804,-1.804,-1.804,-1.804,-1.804,-1.804,-1.804,-1.804,-1.804,-1.804,-1.787,-1.77,-1.77,-1.7554,-1.74,-1.74,-1.7796,-1.8012,-1.8012,-1.8344,-1.8796,-1.9348,-1.9373,-1.963,-2.0266,-2.0292,-2.048,-2.0865,-2.0883,-2.1054,-2.1405,-2.1062,-2.0883,-2.09,-2.1645,-2.1996,-2.2013,-2.2381,-2.2644,-2.2644,-2.2644,-2.2644,-2.2644,-2.2552,-2.2775,-2.3117,-2.3117,-2.358,-2.423,-2.4239,-2.4487,-2.4821,-3.1536,-3.1662,-3.1529,-3.1179,-3.0755,-3.0274,-2.9963,-2.9453,-2.9035,-2.9035,-2.885,-2.8664,-2.8664,-2.8477,-2.8236,-2.8086,-2.7796,-2.7418,-2.6873,-2.6128,-2.5403,-2.4784,-2.437,-2.4024,-2.3841,-2.3754,-2.3667,-2.3667,-2.3537,-2.3381,-2.3381,-2.2869,-2.2577,-2.2473,-2.2002,-2.1792,-2.17,-2.1574,-2.1525,-2.1506,-2.138,-2.1149,-2.1048,-2.1048,-2.0967,-2.0813,-2.0813,-2.0731,-2.0731,-2.0731,-2.0649,-2.0592,-2.0158,-1.9903,-1.9687,-1.9314,-1.9222,-1.9152,-1.9002,-1.8922,-1.8851,-1.8531,-1.8362,-1.8282,-1.8282,-1.8121,-1.804,-1.804,-1.804,-1.804,-1.804,-1.804,-1.804,-1.804,-1.7951,-1.8044,-1.83,-1.826,-1.8362,-1.8634,-1.8761,-1.8829,-1.8829,-1.9177,-1.944,-1.9638,-1.9886,-2.0082,-2.0283,-2.0557,-2.0754,-2.0874,-2.1122,-2.1302,-2.1413,-2.1302,-2.1388,-2.167,-2.1893,-2.2133,-2.2389,-2.2601,-2.2644,-2.2644,-2.2644,-2.2644,-2.267,-2.2835,-2.3014,-2.3169,-2.3691,-2.4033,-2.4264,-2.4538,-2.4718,-2.4821,-3.2245,-3.2321,-3.2305,-3.1894,-3.1502,-3.1133,-3.0773,-3.003,-2.952,-2.9415,-2.9157,-2.885,-2.885,-2.8664,-2.8581,-2.8581,-2.829,-2.79,-2.7154,-2.6666,-2.6219,-2.5691,-2.5057,-2.4553,-2.411,-2.4013,-2.3937,-2.3937,-2.3841,-2.3841,-2.3831,-2.3408,-2.3288,-2.3278,-2.2839,-2.2636,-2.2542,-2.2375,-2.2222,-2.2119,-2.1953,-2.1783,-2.169,-2.169,-2.1607,-2.1441,-2.1441,-2.1441,-2.1339,-2.1349,-2.1265,-2.1144,-2.0733,-2.0494,-2.0282,-2.0024,-1.9758,-1.9469,-1.9398,-1.9279,-1.9073,-1.9002,-1.8763,-1.8523,-1.8523,-1.8362,-1.8282,-1.8282,-1.8282,-1.8282,-1.8201,-1.8201,-1.8164,-1.8228,-1.8254,-1.8382,-1.8768,-1.8819,-1.8913,-1.9144,-1.9307,-1.9401,-1.9401,-1.9735,-1.9966,-1.9966,-2.0163,-2.036,-2.0514,-2.0754,-2.1011,-2.1311,-2.1525,-2.1713,-2.1859,-2.1859,-2.191,-2.1996,-2.215,-2.2329,-2.2644,-2.2644,-2.2644,-2.2644,-2.2644,-2.2629,-2.2783,-2.3023,-2.3288,-2.3605,-2.4059,-2.4324,-2.4496,-2.4735,-2.4821,-2.4821,-3.2948,-3.3146,-3.3132,-3.2638,-3.2328,-3.195,-3.1519,-3.0841,-3.0303,-2.9953,-2.9564,-2.9079,-2.885,-2.885,-2.885,-2.8757,-2.8571,-2.8107,-2.7473,-2.7349,-2.7056,-2.643,-2.5999,-2.5382,-2.4674,-2.442,-2.4206,-2.4206,-2.4013,-2.3841,-2.3841,-2.3841,-2.3841,-2.3841,-2.3841,-2.3667,-2.3474,-2.3172,-2.2834,-2.2614,-2.2232,-2.2085,-2.2085,-2.2085,-2.2002,-2.2002,-2.2002,-2.1816,-2.162,-2.1713,-2.1547,-2.137,-2.1332,-2.1165,-2.0997,-2.095,-2.0513,-1.998,-1.998,-1.9696,-1.9412,-1.9412,-1.911,-1.887,-1.8718,-1.87,-1.87,-1.87,-1.87,-1.8629,-1.8486,-1.8495,-1.8528,-1.8662,-1.8723,-1.886,-1.9256,-1.9222,-1.9239,-1.9273,-1.9581,-1.9795,-1.9795,-2.0095,-2.0292,-2.0292,-2.0292,-2.0463,-2.0857,-2.0908,-2.1251,-2.197,-2.203,-2.221,-2.2644,-2.2644,-2.2381,-2.2055,-2.2389,-2.2644,-2.2644,-2.2644,-2.2644,-2.2644,-2.2644,-2.2766,-2.3117,-2.3151,-2.3588,-2.4239,-2.4273,-2.4504,-2.4821,-2.4821,-2.4821,-2.4821,-3.3604,-3.3598,-3.3545,-3.3231,-3.2764,-3.2357,-3.2254,-3.1638,-3.0981,-3.0469,-3.024,-2.9758,-2.9079,-2.9035,-2.8943,-2.885,-2.8571,-2.8351,-2.815,-2.7942,-2.7625,-2.7066,-2.695,-2.6695,-2.626,-2.5086,-2.4454,-2.4454,-2.4368,-2.4368,-2.4368,-2.4196,-2.411,-2.411,-2.3927,-2.3754,-2.3744,-2.3654,-2.3527,-2.3517,-2.3418,-2.3388,-2.3388,-2.3226,-2.314,-2.314,-2.2957,-2.2775,-2.2765,-2.2775,-2.2602,-2.238,-2.2054,-2.1779,-2.1542,-2.1202,-2.0959,-2.0643,-2.0643,-2.0495,-2.0255,-2.0255,-2.0172,-1.9934,-1.9146,-1.8772,-1.87,-1.87,-1.87,-1.8789,-1.9082,-1.9135,-1.9185,-1.9565,-1.9449,-1.9427,-1.9826,-1.9703,-1.9727,-2.0009,-2.0129,-2.0172,-2.0172,-2.0249,-2.0292,-2.0292,-2.0292,-2.0463,-2.0857,-2.1148,-2.1508,-2.1978,-2.2278,-2.2466,-2.2644,-2.2644,-2.261,-2.2424,-2.261,-2.2644,-2.2644,-2.2644,-2.2644,-2.2644,-2.2644,-2.2766,-2.3134,-2.3425,-2.3819,-2.4264,-2.4573,-2.4744,-2.4821,-2.4821,-2.4821,-2.4821,-3.4052,-3.3965,-3.3779,-3.358,-3.325,-3.3065,-3.2868,-3.2345,-3.1746,-3.1043,-3.0676,-3.015,-2.9368,-2.9312,-2.922,-2.8943,-2.885,-2.8664,-2.8571,-2.8466,-2.8265,-2.7832,-2.7597,-2.7372,-2.6955,-2.5767,-2.512,-2.5034,-2.4815,-2.4625,-2.454,-2.4368,-2.4368,-2.4378,-2.4196,-2.41,-2.4024,-2.4024,-2.3927,-2.3841,-2.3841,-2.3841,-2.3754,-2.3667,-2.3667,-2.358,-2.3406,-2.3232,-2.3135,-2.3135,-2.3057,-2.2931,-2.2717,-2.2476,-2.2255,-2.2026,-2.1646,-2.1325,-2.1231,-2.0922,-2.0689,-2.0521,-2.0521,-2.0327,-1.9825,-1.9652,-1.957,-1.957,-1.957,-1.9551,-1.9674,-1.9719,-1.9844,-2.0152,-2.0042,-2.0087,-2.0474,-2.0438,-2.0338,-2.0447,-2.0473,-2.0473,-2.0292,-2.0292,-2.0292,-2.0292,-2.0472,-2.0737,-2.1114,-2.1482,-2.1867,-2.2244,-2.2449,-2.2644,-2.2644,-2.2644,-2.2644,-2.2644,-2.2644,-2.2644,-2.2644,-2.2644,-2.2644,-2.2644,-2.2644,-2.286,-2.3391,-2.358,-2.3999,-2.453,-2.4744,-2.4821,-2.4821,-2.4915,-2.5136,-2.5255,-3.4433,-3.4249,-3.4064,-3.3779,-3.3779,-3.3679,-3.3381,-3.3001,-3.2443,-3.1672,-3.1149,-3.0544,-2.9757,-2.953,-2.9393,-2.922,-2.9128,-2.9128,-2.8943,-2.885,-2.8757,-2.8488,-2.8099,-2.7791,-2.7586,-2.6672,-2.6072,-2.5651,-2.5177,-2.4871,-2.4625,-2.4625,-2.454,-2.454,-2.454,-2.4368,-2.4292,-2.4292,-2.411,-2.3927,-2.3927,-2.3927,-2.3927,-2.3841,-2.3841,-2.3841,-2.359,-2.3406,-2.3232,-2.3144,-2.3144,-2.3144,-2.3135,-2.2969,-2.2891,-2.2891,-2.2466,-2.193,-2.1748,-2.1409,-2.1071,-2.0817,-2.0817,-2.0723,-2.0732,-2.0622,-2.0521,-2.0521,-2.0521,-2.0455,-2.0368,-2.0377,-2.0427,-2.0658,-2.0721,-2.074,-2.1051,-2.0997,-2.0907,-2.0736,-2.0744,-2.0645,-2.0464,-2.0374,-2.0408,-2.0477,-2.087,-2.1156,-2.1586,-2.1913,-2.2266,-2.2636,-2.2644,-2.2644,-2.2644,-2.2644,-2.2644,-2.2644,-2.2644,-2.2644,-2.2644,-2.2644,-2.2644,-2.2644,-2.2644,-2.2972,-2.3665,-2.3771,-2.4227,-2.4923,-2.4923,-2.4923,-2.5034,-2.5238,-2.5459,-2.5688,-3.4433,-3.4335,-3.4249,-3.4075,-3.4075,-3.3977,-3.3679,-3.3621,-3.3279,-3.2454,-3.1961,-3.1361,-3.0555,-2.9836,-2.9485,-2.9485,-2.9485,-2.9393,-2.9393,-2.922,-2.9035,-2.9035,-2.8784,-2.8659,-2.8566,-2.8032,-2.7079,-2.5826,-2.5434,-2.5115,-2.5115,-2.4946,-2.4861,-2.4871,-2.4615,-2.4454,-2.4454,-2.4454,-2.4454,-2.4454,-2.4454,-2.4454,-2.4368,-2.4196,-2.412,-2.411,-2.3841,-2.3754,-2.3667,-2.3493,-2.3416,-2.3416,-2.3135,-2.3047,-2.3057,-2.3057,-2.2843,-2.2629,-2.2629,-2.2406,-2.2183,-2.1929,-2.1841,-2.1841,-2.1575,-2.1025,-2.0521,-2.0521,-2.0521,-2.0622,-2.0884,-2.0948,-2.1076,-2.1496,-2.14,-2.1329,-2.1383,-2.1186,-2.0997,-2.0997,-2.0997,-2.0907,-2.0907,-2.0907,-2.1048,-2.1401,-2.1481,-2.1834,-2.2567,-2.2451,-2.2563,-2.2937,-2.2745,-2.2644,-2.2644,-2.2644,-2.2644,-2.2644,-2.2644,-2.2644,-2.2644,-2.2644,-2.2644,-2.2644,-2.2644,-2.2972,-2.3771,-2.3982,-2.4425,-2.5119,-2.5459,-2.5578,-2.5578,-2.5578,-2.5688,-2.5679,-3.4628,-3.4628,-3.4543,-3.4347,-3.4249,-3.4162,-3.3977,-3.3878,-3.3581,-3.2839,-3.2245,-3.1654,-3.0867,-3.025,-2.9863,-2.9691,-2.9691,-2.968,-2.9485,-2.9393,-2.9301,-2.9301,-2.9209,-2.9117,-2.8943,-2.8459,-2.7829,-2.7047,-2.6227,-2.5637,-2.52,-2.5115,-2.5031,-2.5031,-2.4946,-2.4871,-2.47,-2.47,-2.4625,-2.454,-2.454,-2.454,-2.4454,-2.4368,-2.4378,-2.4378,-2.411,-2.3937,-2.3754,-2.3667,-2.3667,-2.3667,-2.3406,-2.3319,-2.3319,-2.3144,-2.3057,-2.2969,-2.2803,-2.2706,-2.253,-2.2353,-2.2264,-2.2264,-2.2087,-2.172,-2.1373,-2.12,-2.12,-2.1245,-2.1429,-2.1456,-2.152,-2.1704,-2.1651,-2.1571,-2.1571,-2.1463,-2.1365,-2.1203,-2.1096,-2.0997,-2.0997,-2.1201,-2.1414,-2.1591,-2.2017,-2.2416,-2.2762,-2.2885,-2.3079,-2.3247,-2.3147,-2.2946,-2.2846,-2.2846,-2.2745,-2.2644,-2.2644,-2.2644,-2.2644,-2.2644,-2.2644,-2.2653,-2.2745,-2.3279,-2.3982,-2.4184,-2.4755,-2.545,-2.5679,-2.5789,-2.5907,-2.5907,-2.6017,-2.6245]},{"header":{"parameterUnit":"m.s-1","parameterCategory":1,"la1":30.6,"la2":28.766,"lo1":-90.7593,"lo2":-88.6598,"dy":0.0162,"dx":0.0183,"nx":116,"ny":114,"refTime":"2023-07-14T00:00:00:Z","depth":0,"parameterNumber":3,"parameterNumberName":"V-component_of_WINDS"},"data":[0.0,0.0,0.0,0.0,0.0,0.0,0.0,0.0,0.0,0.0,0.0,0.0,0.0,0.0,0.0,0.0,0.0,0.0,0.0,0.0,0.0,0.0,0.0,0.0,0.0,0.0,0.0,0.0,0.0,0.0,0.0,0.0,0.0,0.0,0.0,0.0,0.0,0.0,0.0,0.0,0.0,0.0,0.0,0.0,0.0,0.0,0.0,0.0,0.0,0.0,0.0,0.0,0.0,0.0,0.0,0.0,0.0,0.0,0.0,0.0,0.0,0.0,0.0,0.0,0.0,0.0,0.0,0.0,0.0,0.0,0.0,0.0,0.0,0.0,0.0,0.0,0.0,0.0,0.0,0.0,0.0,0.0,0.0,0.0,0.0,0.0,0.0,0.0,0.0,0.0,0.0,0.0,0.0,0.0,0.0,0.0,0.0,0.0,0.0,0.0,0.0,0.0,0.0,0.0,0.0,0.0,0.0,0.0,0.0,0.0,0.0,0.0,0.0,0.0,0.0,0.0,0.0,0.0,0.0,0.0,0.0,0.0,0.0,0.0,0.0,0.0,0.0,0.0,0.0,0.0,0.0,0.0,0.0,0.0,0.0,0.0,0.0,0.0,0.0,0.0,0.0,0.0,0.0,0.0,0.0,0.0,0.0,0.0,0.0,0.0,0.0,0.0,0.0,0.0,0.0,0.0,0.0,0.0,0.0,0.0,0.0,0.0,0.0,0.0,0.0,0.0,0.0,0.0,0.0,0.0,0.0,0.0,0.0,0.0,0.0,0.0,0.0,0.0,0.0,0.0,0.0,0.0,0.0,0.0,0.0,0.0,0.0,0.0,0.0,0.0,0.0,0.0,0.0,0.0,0.0,0.0,0.0,0.0,0.0,0.0,0.0,0.0,0.0,0.0,0.0,0.0,0.0,0.0,0.0,0.0,0.0,0.0,0.0,0.0,0.0,0.0,0.0,0.0,0.0,0.0,0.0,0.0,0.0,0.0,0.0,0.0,0.0,0.0,0.0,0.0,0.0,0.0,0.0,0.0,0.0,0.0,0.0,0.0,0.0,0.0,0.0,0.0,0.0,0.0,0.0,0.0,0.0,0.0,0.0,0.0,0.0,0.0,0.0,0.0,0.0,0.0,0.0,0.0,0.0,0.0,0.0,0.0,0.0,0.0,0.0,0.0,0.0,0.0,0.0,0.0,0.0,0.0,0.0,0.0,0.0,0.0,0.0,0.0,0.0,0.0,0.0,0.0,0.0,0.0,0.0,0.0,0.0,0.0,0.0,0.0,0.0,0.0,0.0,0.0,0.0,0.0,0.0,0.0,0.0,0.0,0.0,0.0,0.0,0.0,0.0,0.0,0.0,0.0,0.0,0.0,0.0,0.0,0.0,0.0,0.0,0.0,0.0,0.0,0.0,0.0,0.0,0.0,0.0,0.0,0.0,0.0,0.0,0.0,0.0,0.0,0.0,0.0,0.0,0.0,0.0,0.0,0.0,0.0,0.0,0.0,0.0,0.0,0.0,0.0,0.0,0.0,0.0,0.0,0.0,0.0,0.0,0.0,0.0,0.0,0.0,0.0,0.0,0.0,0.0,0.0,0.0,0.0,0.0,0.0,0.0,0.0,0.0,0.0,0.0,0.0,0.0,0.0,0.0,0.0,0.0,0.0,0.0,0.0,0.0,0.0,0.0,0.0,0.0,0.0,0.0,0.0,0.0,0.0,0.0,0.0,0.0,0.0,0.0,0.0,0.0,0.0,0.0,0.0,0.0,0.0,0.0,0.0,0.0,0.0,0.0,0.0,0.0,0.0,0.0,0.0,0.0,0.0,0.0,0.0,0.0,0.0,0.0,0.0,0.0,0.0,0.0,0.0,0.0,0.0,0.0,0.0,0.0,0.0,0.0,0.0,0.0,0.0,0.0,0.0,0.0,0.0,0.0,0.0,0.0,0.0,0.0,0.0,0.0,0.0,0.0,0.0,0.0,0.0,0.0,0.0,0.0,0.0,0.0,0.0,0.0,0.0,0.0,0.0,0.0,0.0,0.0,0.0,0.0,0.0,0.0,0.0,0.0,0.0,0.0,0.0,0.0,0.0,0.0,0.0,0.0,0.0,0.0,0.0,0.0,0.0,0.0,0.0,0.0,0.0,0.0,0.0,0.0,0.0,0.0,0.0,0.0,0.0,0.0,0.0,0.0,0.0,0.0,0.0,0.0,0.0,0.0,0.0,0.0,0.0,0.0,0.0,0.0,0.0,0.0,0.0,0.0,0.0,0.0,0.0,0.0,0.0,0.0,0.0,0.0,0.0,0.0,0.0,0.0,0.0,0.0,0.0,0.0,0.0,0.0,0.0,0.0,0.0,0.0,0.0,0.0,0.0,0.0,0.0,0.0,0.0,0.0,0.0,0.0,0.0,0.0,0.0,0.0,0.0,0.0,0.0,0.0,0.0,0.0,0.0,0.0,0.0,0.0,0.0,0.0,0.0,0.0,0.0,0.0,0.0,0.0,0.0,0.0,0.0,0.0,0.0,0.0,0.0,0.0,0.0,0.0,0.0,0.0,0.0,0.0,0.0,0.0,0.0,0.0,0.0,0.0,0.0,0.0,0.0,0.0,0.0,0.0,0.0,0.0,0.0,0.0,0.0,0.0,0.0,0.0,0.0,0.0,0.0,0.0,0.0,0.0,0.0,0.0,0.0,0.0,0.0,0.0,0.0,0.0,0.0,0.0,0.0,0.0,0.0,0.0,0.0,0.0,0.0,0.0,0.0,0.0,0.0,0.0,0.0,0.0,0.0,0.0,0.0,0.0,0.0,0.0,0.0,0.0,0.0,0.0,0.0,0.0,0.0,0.0,0.0,0.0,0.0,0.0,0.0,0.0,0.0,0.0,0.0,0.0,0.0,0.0,0.0,0.0,0.0,0.0,0.0,0.0,0.0,0.0,0.0,0.0,0.0,0.0,0.0,0.0,0.0,0.0,0.0,0.0,0.0,0.0,0.0,0.0,0.0,0.0,0.0,0.0,0.0,0.0,0.0,0.0,0.0,0.0,0.0,0.0,0.0,0.0,0.0,0.0,0.0,0.0,0.0,0.0,0.0,0.0,0.0,0.0,0.0,0.0,0.0,0.0,0.0,0.0,0.0,0.0,0.0,0.0,0.0,0.0,0.0,0.0,0.0,0.0,0.0,0.0,0.0,0.0,0.0,0.0,0.0,0.0,0.0,0.0,0.0,0.0,0.0,0.0,0.0,0.0,0.0,0.0,0.0,0.0,0.0,0.0,0.0,0.0,0.0,0.0,0.0,0.0,0.0,0.0,0.0,0.0,0.0,0.0,0.0,0.0,0.0,0.0,0.0,0.0,0.0,0.0,0.0,0.0,0.0,0.0,0.0,0.0,0.0,0.0,0.0,0.0,0.0,0.0,0.0,0.0,0.0,0.0,0.0,0.0,0.0,0.0,0.0,0.0,0.0,0.0,0.0,0.0,0.0,0.0,0.0,0.0,0.0,0.0,0.0,0.0,0.0,0.0,0.0,0.0,0.0,0.0,0.0,0.0,0.0,0.0,0.0,0.0,0.0,0.0,0.0,0.0,0.0,0.0,0.0,0.0,0.0,0.0,0.0,0.0,0.0,0.0,0.0,0.0,0.0,0.0,0.0,0.0,0.0,0.0,0.0,0.0,0.0,0.0,0.0,0.0,0.0,0.0,0.0,0.0,0.0,0.0,0.0,0.0,0.0,0.0,0.0,0.0,0.0,0.0,0.0,0.0,0.0,0.0,0.0,0.0,0.0,0.0,0.0,0.0,0.0,0.0,0.0,0.0,0.0,0.0,0.0,0.0,0.0,0.0,0.0,0.0,0.0,0.0,0.0,0.0,0.0,0.0,0.0,0.0,0.0,0.0,0.0,0.0,0.0,0.0,0.0,0.0,0.0,0.0,0.0,0.0,0.0,0.0,0.0,0.0,0.0,0.0,0.0,0.0,0.0,0.0,0.0,0.0,0.0,0.0,0.0,0.0,0.0,0.0,0.0,0.0,0.0,0.0,0.0,0.0,0.0,0.0,0.0,0.0,0.0,0.0,0.0,0.0,0.0,0.0,0.0,0.0,0.0,0.0,0.0,0.0,0.0,0.0,0.0,0.0,0.0,0.0,0.0,0.0,0.0,0.0,0.0,0.0,0.0,0.0,0.0,0.0,0.0,0.0,0.0,0.0,0.0,0.0,0.0,0.0,0.0,0.0,0.0,0.0,0.0,0.0,0.0,0.0,0.0,0.0,0.0,0.0,0.0,0.0,0.0,0.0,0.0,0.0,0.0,0.0,0.0,0.0,0.0,0.0,0.0,0.0,0.0,0.0,0.0,0.0,0.0,0.0,0.0,0.0,0.0,0.0,0.0,0.0,0.0,0.0,0.0,0.0,0.0,0.0,0.0,0.0,0.0,0.0,0.0,0.0,0.0,0.0,0.0,0.0,0.0,0.0,0.0,0.0,0.0,0.0,0.0,0.0,0.0,0.0,0.0,0.0,0.0,0.0,0.0,0.0,0.0,0.0,0.0,0.0,0.0,0.0,0.0,0.0,0.0,0.0,0.0,0.0,0.0,0.0,0.0,0.0,0.0,0.0,0.0,0.0,0.0,0.0,0.0,0.0,0.0,0.0,0.0,0.0,0.0,0.0,0.0,0.0,0.0,0.0,0.0,0.0,0.0,0.0,0.0,0.0,0.0,0.0,0.0,0.0,0.0,0.0,0.0,0.0,0.0,0.0,0.0,0.0,0.0,0.0,0.0,0.0,0.0,0.0,0.0,0.0,0.0,0.0,0.0,0.0,0.0,0.0,0.0,0.0,0.0,0.0,0.0,0.0,0.0,0.0,0.0,0.0,0.0,0.0,0.0,0.0,0.0,0.0,0.0,0.0,0.0,0.0,0.0,0.0,0.0,0.0,0.0,0.0,0.0,0.0,0.0,0.0,0.0,0.0,0.0,0.0,0.0,0.0,0.0,0.0,0.0,0.0,0.0,0.0,0.0,0.0,0.0,0.0,0.0,0.0,0.0,0.0,0.0,0.0,0.0,0.0,0.0,0.0,0.0,0.0,0.0,0.0,0.0,0.0,0.0,0.0,0.0,0.0,0.0,0.0,0.0,0.0,0.0,0.0,0.0,0.0,0.0,0.0,0.0,0.0,0.0,0.0,0.0,0.0,0.0,0.0,0.0,0.0,0.0,0.0,0.0,0.0,0.0,0.0,0.0,0.0,0.0,0.0,0.0,0.0,0.0,0.0,0.0,0.0,0.0,0.0,0.0,0.0,0.0,0.0,0.0,0.0,0.0,0.0,0.0,0.0,0.0,0.0,0.0,0.0,0.0,0.0,0.0,0.0,0.0,0.0,0.0,0.0,0.0,0.0,0.0,0.0,0.0,0.0,0.0,0.0,0.0,0.0,0.0,0.0,0.0,0.0,0.0,0.0,0.0,0.0,0.0,0.0,0.0,0.0,0.0,0.0,0.0,0.0,0.0,0.0,0.0,0.0,0.0,0.0,0.0,0.0,0.0,0.0,0.0,0.0,0.0,0.0,0.0,0.0,0.0,0.0,0.0,0.0,0.0,0.0,0.0,0.0,0.0,0.0,0.0,0.0,0.0,0.0,0.0,0.0,0.0,0.0,0.0,0.0,0.0,0.0,0.0,0.0,0.0,0.0,0.0,0.0,0.0,0.0,0.0,0.0,0.0,0.0,0.0,0.0,0.0,0.0,0.0,0.0,0.0,0.0,0.0,0.0,0.0,0.0,0.0,0.0,0.0,0.0,0.0,0.0,0.0,0.0,0.0,0.0,0.0,0.0,0.0,0.0,0.0,0.0,0.0,0.0,0.0,0.0,0.0,0.0,0.0,0.0,0.0,0.0,0.0,0.0,0.0,0.0,0.0,0.0,0.0,0.0,0.0,0.0,0.0,0.0,0.0,0.0,0.0,0.0,0.0,0.0,0.0,0.0,0.0,0.0,0.0,0.0,0.0,0.0,0.0,0.0,0.0,0.0,0.0,0.0,0.0,0.0,0.0,0.0,0.0,0.0,0.0,0.0,0.0,0.0,0.0,0.0,0.0,0.0,0.0,0.0,0.0,0.0,0.0,-2.0407,0.0,0.0,0.0,0.0,0.0,0.0,0.0,0.0,0.0,0.0,0.0,0.0,0.0,0.0,0.0,0.0,0.0,0.0,0.0,0.0,0.0,0.0,0.0,0.0,0.0,0.0,0.0,0.0,0.0,0.0,0.0,0.0,0.0,0.0,0.0,0.0,0.0,0.0,0.0,0.0,0.0,0.0,0.0,0.0,0.0,0.0,0.0,0.0,0.0,0.0,0.0,0.0,0.0,0.0,0.0,0.0,0.0,0.0,0.0,0.0,0.0,0.0,0.0,0.0,0.0,0.0,0.0,0.0,0.0,0.0,0.0,0.0,0.0,0.0,0.0,0.0,0.0,0.0,0.0,0.0,0.0,0.0,0.0,0.0,0.0,0.0,0.0,0.0,0.0,0.0,0.0,0.0,0.0,0.0,0.0,0.0,0.0,0.0,0.0,0.0,0.0,0.0,0.0,0.0,0.0,0.0,0.0,0.0,0.0,0.0,0.0,0.0,0.0,0.0,0.0,0.0,-2.2245,0.0,0.0,0.0,0.0,0.0,0.0,0.0,0.0,0.0,0.0,0.0,0.0,0.0,0.0,0.0,0.0,0.0,0.0,0.0,0.0,0.0,0.0,0.0,0.0,0.0,0.0,0.0,0.0,0.0,0.0,0.0,0.0,0.0,0.0,0.0,0.0,0.0,0.0,0.0,0.0,0.0,0.0,0.0,0.0,0.0,0.0,0.0,0.0,0.0,0.0,0.0,0.0,0.0,0.0,0.0,0.0,0.0,0.0,0.0,0.0,0.0,0.0,0.0,0.0,0.0,0.0,0.0,0.0,0.0,0.0,0.0,0.0,0.0,0.0,0.0,0.0,0.0,0.0,0.0,0.0,0.0,0.0,0.0,0.0,0.0,0.0,0.0,0.0,0.0,0.0,0.0,0.0,0.0,0.0,0.0,0.0,0.0,0.0,0.0,0.0,0.0,0.0,0.0,0.0,0.0,0.0,0.0,0.0,-2.8004,-2.8897,-2.989,-2.9871,-2.9959,-2.9902,-2.7142,-2.5648,-2.517,0.0,0.0,0.0,0.0,0.0,0.0,0.0,0.0,0.0,0.0,0.0,0.0,0.0,0.0,0.0,0.0,0.0,0.0,0.0,0.0,0.0,0.0,0.0,0.0,0.0,0.0,0.0,0.0,0.0,0.0,0.0,0.0,0.0,0.0,0.0,0.0,0.0,0.0,0.0,-2.6455,-2.7911,-2.8553,-2.837,-2.6264,0.0,0.0,0.0,0.0,0.0,0.0,0.0,0.0,0.0,0.0,0.0,0.0,0.0,0.0,0.0,0.0,0.0,0.0,0.0,0.0,0.0,0.0,0.0,0.0,0.0,0.0,0.0,0.0,0.0,0.0,0.0,0.0,0.0,0.0,0.0,0.0,0.0,0.0,0.0,0.0,0.0,0.0,0.0,-1.7379,-1.7642,0.0,0.0,0.0,0.0,0.0,0.0,0.0,0.0,0.0,0.0,0.0,0.0,0.0,-2.6575,-2.8246,-2.8375,-2.9203,-3.0736,-3.0919,-3.1832,-3.3342,-3.34,-3.3475,-3.3525,-3.308,0.0,-2.8632,-2.8653,0.0,0.0,0.0,0.0,0.0,0.0,0.0,0.0,0.0,0.0,0.0,0.0,0.0,0.0,0.0,0.0,0.0,0.0,0.0,0.0,0.0,0.0,0.0,0.0,0.0,0.0,0.0,0.0,0.0,0.0,0.0,0.0,0.0,0.0,0.0,0.0,-2.5526,-2.7282,-2.8116,-2.9703,-3.0521,-3.0629,-2.9959,-2.8813,-2.7281,-2.6371,0.0,0.0,0.0,0.0,0.0,0.0,0.0,0.0,0.0,0.0,0.0,0.0,0.0,0.0,0.0,0.0,0.0,0.0,0.0,0.0,0.0,0.0,0.0,0.0,0.0,0.0,0.0,0.0,0.0,0.0,0.0,0.0,0.0,0.0,0.0,0.0,0.0,0.0,0.0,-1.783,-1.9643,-2.0604,-2.1443,-2.1972,0.0,0.0,0.0,0.0,0.0,0.0,0.0,0.0,0.0,-2.9219,-2.9274,-3.0087,-3.1814,-3.2274,-3.2863,-3.3589,-3.4076,-3.4718,-3.5465,-3.5499,-3.5551,-3.5621,-3.5627,-3.4835,-3.3403,-3.2009,-3.0993,-3.0217,0.0,0.0,0.0,0.0,-2.7326,-2.7307,0.0,0.0,0.0,0.0,0.0,0.0,0.0,0.0,0.0,0.0,0.0,0.0,0.0,0.0,0.0,-2.0639,0.0,0.0,0.0,0.0,0.0,0.0,0.0,0.0,0.0,0.0,0.0,0.0,-2.7982,-2.9308,-2.992,-3.15,-3.234,-3.2474,-3.3042,-3.22,-3.019,-2.8798,-2.7772,0.0,0.0,0.0,0.0,0.0,0.0,0.0,0.0,0.0,0.0,0.0,0.0,0.0,0.0,0.0,0.0,0.0,0.0,0.0,0.0,0.0,0.0,0.0,0.0,0.0,0.0,0.0,0.0,0.0,0.0,0.0,0.0,0.0,0.0,0.0,0.0,0.0,0.0,-2.0117,-2.1899,-2.3541,-2.4494,-2.512,0.0,0.0,0.0,0.0,0.0,0.0,-2.7846,-2.9412,-3.0962,-3.2435,-3.2674,-3.3493,-3.5003,-3.5816,-3.6334,-3.6528,-3.7165,-3.7609,-3.784,-3.7868,-3.7922,-3.7931,-3.7806,-3.7757,-3.7578,-3.5104,-3.3635,-3.2895,-3.2278,-3.1532,-3.0784,-3.0766,-3.0766,-3.0786,0.0,0.0,0.0,0.0,0.0,0.0,0.0,0.0,0.0,0.0,0.0,0.0,0.0,0.0,-2.1285,-2.1524,-2.2784,-2.3719,0.0,0.0,0.0,0.0,0.0,0.0,0.0,0.0,0.0,-2.7465,-3.0519,-3.2108,-3.2366,-3.39,-3.4658,-3.4748,-3.4924,-3.4155,-3.2684,-3.1813,-3.1041,-3.017,0.0,0.0,0.0,0.0,0.0,0.0,0.0,0.0,0.0,0.0,0.0,0.0,0.0,0.0,0.0,0.0,0.0,0.0,0.0,0.0,0.0,0.0,0.0,0.0,0.0,0.0,0.0,0.0,0.0,0.0,0.0,0.0,0.0,0.0,0.0,0.0,0.0,0.0,0.0,-2.602,-2.698,0.0,0.0,0.0,0.0,-2.8755,-3.0318,-3.1243,-3.1243,-3.2908,-3.4227,-3.5069,-3.5872,-3.6666,-3.7516,-3.8311,-3.9106,-3.9852,-4.0015,-4.0507,-4.1267,-4.1319,-4.1349,-4.1293,-4.0635,-4.0337,-4.0213,-3.7736,-3.624,-3.5493,-3.5455,-3.4974,-3.4244,-3.4252,-3.4252,-3.4252,0.0,0.0,0.0,0.0,0.0,0.0,0.0,0.0,0.0,0.0,0.0,0.0,0.0,-2.007,-2.2102,-2.4194,-2.3982,-2.4265,-2.5479,0.0,0.0,0.0,0.0,0.0,0.0,0.0,-2.8097,-3.0352,-3.1603,-3.2756,-3.3809,-3.4916,-3.552,-3.5629,-3.6235,-3.6256,-3.5669,-3.3975,-3.2777,-3.1898,-3.0098,-2.8497,0.0,0.0,0.0,0.0,0.0,0.0,0.0,0.0,0.0,0.0,0.0,0.0,0.0,0.0,0.0,0.0,0.0,0.0,0.0,0.0,0.0,0.0,0.0,0.0,0.0,0.0,0.0,0.0,0.0,0.0,0.0,0.0,0.0,0.0,0.0,0.0,0.0,-2.8518,-2.9984,0.0,-3.1286,-3.1788,-3.21,-3.21,-3.3206,-3.4123,-3.4639,-3.5789,-3.7063,-3.846,-3.8793,-3.9341,-4.0214,-4.0492,-4.0789,-4.1056,-4.1104,-4.1301,-4.1579,-4.159,-4.159,-4.1571,-4.1418,-4.1344,-4.1297,-4.0506,-3.9052,-3.7333,-3.6808,-3.6433,-3.6171,-3.6175,-3.6175,-3.6175,0.0,0.0,0.0,0.0,0.0,0.0,0.0,0.0,0.0,0.0,0.0,-1.6855,-1.9116,-2.0894,-2.2959,-2.5595,-2.5226,-2.5332,-2.6521,0.0,0.0,0.0,0.0,0.0,0.0,-2.8352,-2.9834,-3.1894,-3.2819,-3.3835,-3.4923,-3.6032,-3.6601,-3.6732,-3.7662,-3.8114,-3.8011,-3.6381,-3.5061,-3.3901,-3.2125,-3.0664,-2.9376,0.0,0.0,0.0,0.0,0.0,0.0,0.0,0.0,0.0,0.0,0.0,0.0,0.0,0.0,0.0,0.0,0.0,0.0,0.0,0.0,0.0,0.0,0.0,0.0,0.0,0.0,0.0,0.0,0.0,0.0,0.0,0.0,0.0,0.0,0.0,-2.9418,-3.1016,-3.2517,-3.355,-3.3825,-3.4578,-3.5037,-3.5037,-3.6149,-3.7071,-3.7616,-3.8514,-3.9515,-4.0696,-4.0993,-4.1431,-4.1999,-4.2259,-4.2407,-4.2407,-4.2407,-4.2407,-4.2407,-4.2407,-4.2407,-4.2389,-4.2228,-4.2184,-4.2193,-4.205,-4.1016,-3.9502,-3.8957,-3.8751,-3.8713,-3.845,-3.8338,-3.83,0.0,0.0,0.0,0.0,0.0,0.0,0.0,0.0,0.0,0.0,-1.5744,-1.757,-1.9885,-2.2019,-2.3942,-2.5635,-2.6531,-2.7071,-2.7238,-2.6687,0.0,0.0,0.0,0.0,-2.8288,-3.0465,-3.1726,-3.1998,-3.4302,-3.5566,-3.5797,-3.7318,-3.8082,-3.8164,-3.9141,-3.9615,-3.9562,-3.9032,-3.7933,-3.6274,-3.4002,-3.2603,-3.1739,0.0,0.0,0.0,0.0,0.0,0.0,0.0,0.0,0.0,0.0,0.0,0.0,0.0,0.0,0.0,0.0,0.0,0.0,0.0,0.0,0.0,0.0,0.0,0.0,0.0,0.0,0.0,0.0,0.0,0.0,0.0,0.0,0.0,-2.7562,-2.9701,-3.1881,-3.3478,-3.4521,-3.5459,-3.6285,-3.711,-3.7617,-3.7617,-3.9099,-4.0075,-4.0166,-4.1051,-4.1575,-4.1664,-4.2426,-4.2835,-4.2835,-4.3615,-4.4005,-4.4005,-4.4005,-4.4005,-4.4005,-4.4005,-4.4005,-4.3949,-4.3248,-4.2984,-4.2996,-4.2277,-4.1994,-4.2066,-4.201,-4.1991,-4.1897,-4.1116,-4.0835,-4.0722,0.0,0.0,0.0,0.0,0.0,0.0,0.0,0.0,0.0,0.0,-1.5593,-1.7606,-2.0385,-2.2207,-2.4305,-2.6935,-2.6964,-2.7382,-2.8629,0.0,0.0,0.0,0.0,0.0,-3.0435,-3.1216,-3.2423,-3.4152,-3.552,-3.6509,-3.7106,-3.8248,-3.8786,-3.8846,-3.9324,-3.9552,-3.9598,-3.954,-3.8999,-3.7987,-3.6202,-3.47,-3.344,0.0,0.0,0.0,0.0,0.0,0.0,0.0,0.0,0.0,0.0,0.0,0.0,0.0,0.0,0.0,0.0,0.0,0.0,0.0,0.0,0.0,0.0,0.0,0.0,0.0,0.0,0.0,0.0,0.0,0.0,0.0,0.0,-3.0939,-3.0939,-3.2092,-3.356,-3.5224,-3.6758,-3.779,-3.8028,-3.9313,-4.012,-4.012,-4.057,-4.118,-4.1865,-4.2218,-4.2668,-4.3318,-4.3559,-4.367,-4.367,-4.3893,-4.4005,-4.4005,-4.4005,-4.4005,-4.4005,-4.4005,-4.4005,-4.3986,-4.3893,-4.383,-4.3841,-4.3687,-4.368,-4.3606,-4.246,-4.1991,-4.1954,-4.1755,-4.168,-4.1567,0.0,0.0,0.0,0.0,0.0,0.0,0.0,0.0,0.0,0.0,-1.5541,-1.7628,-2.0575,-2.2216,-2.4227,-2.6961,-2.6935,-2.7183,-2.819,0.0,0.0,0.0,0.0,-3.0391,-3.1676,-3.248,-3.3613,-3.4998,-3.6224,-3.7111,-3.7629,-3.8912,-3.9547,-3.9625,-4.0215,-4.0482,-4.0488,-4.0352,-4.0099,-3.9587,-3.8021,-3.6506,-3.5021,-3.4333,-3.3337,-3.2211,-3.1412,-3.062,-2.9692,-2.803,0.0,0.0,0.0,0.0,0.0,0.0,0.0,0.0,0.0,0.0,0.0,0.0,0.0,0.0,0.0,0.0,0.0,0.0,0.0,0.0,0.0,0.0,0.0,0.0,-3.1919,-3.3684,-3.479,-3.5367,-3.6054,-3.7028,-3.8645,-3.9717,-3.9717,-4.0873,-4.1607,-4.1607,-4.1934,-4.2437,-4.3065,-4.3449,-4.3934,-4.4525,-4.4878,-4.4896,-4.4544,-4.4544,-4.4358,-4.4005,-4.4005,-4.4005,-4.4005,-4.4005,-4.4005,0.0,-4.4085,-4.4135,-4.4184,-4.4244,-4.4285,0.0,0.0,0.0,0.0,0.0,-4.2318,-4.1916,0.0,0.0,0.0,0.0,0.0,0.0,0.0,0.0,0.0,0.0,0.0,-1.749,-2.0416,-2.1956,-2.3718,-2.6133,-2.6484,-2.6714,0.0,0.0,0.0,-2.9642,-3.0587,-3.1486,-3.2391,-3.3922,-3.4798,-3.5094,-3.6663,-3.7533,-3.7724,-3.9398,-4.0279,-4.0447,-4.135,-4.178,-4.1788,-4.1286,-4.1049,-4.0895,-3.9551,-3.8112,-3.6577,-3.5824,-3.5121,-3.4483,-3.3674,-3.3015,-3.2252,-3.0625,0.0,0.0,0.0,0.0,0.0,0.0,0.0,0.0,0.0,0.0,0.0,0.0,0.0,0.0,0.0,0.0,0.0,0.0,0.0,0.0,0.0,0.0,0.0,0.0,-3.4211,-3.614,-3.8546,-3.898,-3.898,-3.8907,-4.0258,-4.1258,-4.1258,-4.1974,-4.2433,-4.2433,-4.3167,-4.3747,-4.3952,0.0,0.0,0.0,0.0,-4.616,-4.5435,-4.5435,-4.5045,-4.4283,-4.4191,-4.4153,-4.4135,-4.4042,-4.4005,-4.4005,-4.4005,-4.4055,-4.4184,-4.4184,-4.4214,-4.4285,-4.4354,-4.444,-4.4421,-4.3707,-4.2956,-4.228,0.0,0.0,0.0,0.0,0.0,0.0,0.0,0.0,0.0,-1.3678,-1.4924,-1.6647,-1.9547,-2.0715,-2.2436,-2.5201,-2.5619,-2.6539,0.0,0.0,-2.932,-3.0261,-3.1191,-3.211,-3.3094,-3.4066,-3.488,-3.564,-3.7346,-3.8219,-3.8281,-4.0078,-4.0943,-4.1046,-4.1356,-4.1604,-4.178,-4.1664,-4.1386,-4.0984,-4.0682,-3.9694,-3.8183,-3.6826,-3.6251,-3.6137,-3.5393,-3.5078,-3.4857,-3.3869,-3.2973,-3.2007,-3.0306,0.0,0.0,0.0,0.0,0.0,0.0,0.0,0.0,0.0,0.0,0.0,0.0,0.0,0.0,0.0,0.0,0.0,0.0,0.0,0.0,-3.6035,-3.7653,-3.9223,-4.0357,-4.1137,-4.1335,-4.0694,-4.1497,-4.2066,-4.2066,-4.28,-4.3259,-4.3259,-4.4099,-4.4681,-4.4764,-4.5571,-4.6135,-4.6252,-4.642,-4.642,-4.6271,-4.6271,-4.6178,-4.6011,0.0,0.0,-4.5026,-4.4321,-4.4005,-4.4005,-4.4005,-4.4005,-4.4036,-4.4036,-4.4116,-4.4244,-4.4354,-4.444,-4.4496,-4.4346,-4.4177,-4.3933,0.0,0.0,0.0,0.0,0.0,0.0,0.0,0.0,0.0,0.0,-1.4311,-1.6099,-1.822,-1.9845,-2.1521,-2.3385,-2.4425,0.0,0.0,-2.8347,-2.9124,-3.0393,-3.1613,-3.2523,-3.3081,-3.4347,-3.5222,-3.5711,-3.703,-3.7946,-3.8459,-3.983,-4.0712,-4.1152,-4.1335,-4.1471,-4.1604,-4.1736,-4.1654,-4.1332,-4.0677,-3.9953,-3.9195,-3.8077,-3.7453,-3.711,-3.6404,-3.62,-3.6125,-3.5363,-3.4506,-3.353,-3.2331,-3.1339,-3.0212,0.0,0.0,0.0,0.0,0.0,0.0,0.0,0.0,0.0,0.0,0.0,0.0,0.0,0.0,-3.3717,0.0,0.0,-3.7895,-3.8364,-3.9557,-4.0701,-4.1522,-4.2014,-4.2158,-4.1754,-4.2415,-4.2892,-4.2892,-4.3259,-4.3513,-4.3566,-4.4391,-4.4955,-4.5053,-4.6252,-4.6987,-4.7107,-4.7497,-4.7516,-4.7107,-4.7107,-4.6903,-4.6494,-4.6034,-4.5797,-4.5778,-4.4911,-4.4541,-4.4536,-4.4128,-4.3974,-4.4005,-4.4005,-4.4085,-4.4214,-4.4255,-4.4344,-4.4401,-4.4401,-4.4401,-4.4345,0.0,0.0,0.0,0.0,0.0,0.0,0.0,0.0,0.0,0.0,-1.3619,-1.5402,-1.6939,-1.8718,-2.0283,0.0,0.0,0.0,0.0,-2.7315,-2.8535,-3.0011,-3.1632,-3.2591,-3.2873,-3.4387,-3.5323,-3.5594,-3.6508,-3.7354,-3.8145,-3.9072,-3.9917,-4.0597,-4.0809,-4.0882,-4.0926,-4.1192,-4.1278,-4.1216,-4.0164,-3.9682,-3.9526,-3.8963,-3.8327,-3.7596,-3.6913,-3.6728,-3.6702,-3.5959,-3.5182,-3.4393,-3.3664,-3.2798,-3.1787,-3.037,-2.9444,0.0,0.0,0.0,0.0,0.0,0.0,0.0,0.0,0.0,-3.2433,-3.422,-3.5659,-3.6867,-3.7667,-3.9075,-4.0127,-4.0229,-4.0958,-4.1742,-4.2433,-4.2525,-4.2525,-4.2525,-4.3112,-4.3497,-4.3497,-4.3513,-4.3621,-4.3821,-4.4681,-4.5284,-4.5582,-4.7043,-4.7874,-4.7924,-4.8556,-4.8593,-4.7943,-4.7909,-4.7575,-4.6925,-4.6672,-4.6511,-4.6474,-4.5629,-4.526,-4.5271,-4.449,-4.4077,-4.3974,-4.4005,-4.4055,-4.4153,-4.4153,-4.4195,-4.4255,-4.4285,-4.4285,-4.4285,0.0,0.0,0.0,0.0,0.0,0.0,0.0,0.0,0.0,0.0,0.0,0.0,0.0,0.0,0.0,0.0,0.0,0.0,-2.5349,-2.688,-2.8102,-2.8955,-3.0674,-3.1962,-3.2724,-3.3689,-3.4621,-3.5492,-3.6371,-3.6915,-3.7172,-3.8145,-3.8659,-3.8898,-3.9049,-3.9138,-3.9269,-3.9363,-3.9491,-3.9557,-3.9541,-3.9208,-3.8727,-3.8638,-3.8217,-3.7596,-3.6861,-3.6712,-3.6702,-3.5959,-3.5182,-3.4483,-3.4393,-3.3718,-3.278,-3.1823,0.0,-3.1094,-2.9625,-2.9701,-3.0252,-3.0342,-3.1598,-3.3266,0.0,0.0,-3.596,-3.8343,-3.8961,-3.934,-4.0242,-4.1204,-4.1894,-4.1946,-4.2674,-4.3259,-4.3332,-4.3369,-4.3369,-4.3369,-4.3442,-4.3497,-4.3497,-4.3548,-4.3894,-4.4702,-4.5614,-4.6474,-4.7268,-4.8227,-4.8779,-4.8779,-4.8853,-4.8872,-4.8779,-4.8709,-4.8637,-4.8544,-4.7679,-4.7293,-4.7256,-4.6445,-4.6059,-4.6039,-4.5308,-4.4564,-4.3929,-4.3974,-4.4005,-4.4005,-4.4005,-4.4036,-4.4067,-4.4237,-4.4285,-4.4285,0.0,0.0,0.0,0.0,0.0,0.0,0.0,0.0,0.0,0.0,0.0,0.0,0.0,0.0,0.0,0.0,0.0,0.0,-2.3856,-2.5413,-2.705,-2.8725,-2.9935,-3.1035,-3.1979,-3.3255,-3.4139,-3.4638,-3.5593,-3.632,-3.6881,-3.7371,-3.7911,-3.8487,-3.8639,-3.8745,-3.8894,-3.9007,-3.9118,-3.9151,-3.8837,-3.8347,-3.7816,-3.7429,-3.6827,-3.6291,-3.6521,-3.6323,0.0,0.0,-3.5051,-3.4371,-3.4371,-3.375,-3.297,-3.2599,-3.2138,0.0,-3.1099,-3.2247,0.0,0.0,-3.4974,-3.649,-3.7631,-3.7902,-3.8479,-4.0488,-4.0939,-4.1245,-4.2136,-4.266,-4.2968,0.0,-4.3277,-4.3497,-4.3497,-4.3497,-4.3497,-4.3497,-4.3497,-4.3497,-4.3497,-4.3548,-4.3965,-4.4881,-4.5793,-4.6709,-4.7596,-4.8447,-4.8909,-4.8909,-4.8909,-4.8874,-4.8839,-4.8822,-4.8751,-4.8678,-4.8255,-4.8053,-4.8034,-4.715,-4.6248,-4.5363,-4.5134,-4.4591,-4.3897,-4.3929,-4.3974,-4.4005,-4.4005,-4.4005,-4.4005,-4.4097,-4.4116,-4.4116,0.0,0.0,0.0,0.0,0.0,0.0,0.0,0.0,0.0,0.0,0.0,0.0,0.0,0.0,0.0,0.0,0.0,0.0,0.0,-2.4137,-2.5966,-2.7727,-2.8941,-3.0082,-3.1019,-3.243,-3.3338,-3.3627,-3.4404,-3.5256,-3.6118,-3.6051,-3.6502,-3.7364,-3.7308,-3.7353,-3.7456,-3.7585,-3.7694,-3.7707,-3.7294,-3.6907,-3.6496,-3.5864,-3.5171,-3.4617,-3.5325,-3.5198,0.0,0.0,-3.38,-3.3368,-3.3602,-3.3247,-3.2773,-3.2957,-3.2697,-3.2501,-3.3073,0.0,0.0,-3.666,-3.7959,-3.9369,-4.0166,-4.0365,-4.0781,-4.2268,-4.2432,-4.2522,-4.3231,-4.3393,0.0,-4.3428,-4.3463,-4.3463,-4.3463,-4.3497,-4.3497,-4.3497,-4.3497,-4.3497,-4.3497,-4.36,-4.4125,-4.5263,-4.5956,-4.6854,-4.798,-4.8574,-4.8909,-4.8909,-4.8909,-4.8874,-4.8787,-4.8768,-4.8697,-4.8569,-4.8494,-4.8457,-4.8438,-4.7756,-4.6599,-4.5109,-4.5268,-4.4746,-4.3832,-4.3851,-4.3897,-4.3974,-4.3974,-4.3974,-4.4005,-4.4005,-4.4005,-4.4005,0.0,0.0,0.0,0.0,0.0,0.0,0.0,0.0,0.0,0.0,0.0,0.0,0.0,0.0,0.0,0.0,0.0,0.0,0.0,-2.3449,-2.5092,-2.5289,-2.7582,-2.9205,-2.9935,-3.1019,-3.1946,-3.2713,-3.2879,-3.35,-3.4476,-3.3829,-3.3965,-3.4806,-3.4192,-3.3973,-3.4077,-3.4174,-3.4293,-3.4376,-3.4533,-3.4684,-3.4707,-3.4111,-3.347,-3.2894,-3.2991,0.0,0.0,0.0,-3.0876,-3.1042,-3.1815,-3.2049,0.0,-3.2796,-3.3516,0.0,0.0,0.0,-3.811,-3.8922,-4.0366,-4.1814,-4.2611,-4.2774,-4.3065,-4.4031,-4.3595,-4.3105,-4.3178,-4.3214,-4.3214,-4.3214,-4.3305,-4.3394,-4.3394,-4.3463,-4.3497,-4.3497,-4.3497,-4.3497,0.0,-4.3686,-4.445,-4.6039,-4.6376,-4.72,-4.8779,-4.889,-4.8909,-4.8909,-4.8909,-4.8874,-4.8787,-4.8678,-4.8569,-4.8513,-4.8363,-4.8306,-4.8306,-4.8288,-4.7388,-4.5865,-4.601,-4.5125,-4.3615,-4.3753,-4.3851,-4.3897,-4.3897,-4.3961,-4.4005,-4.4005,-4.4005,-4.4005,0.0,0.0,0.0,0.0,0.0,0.0,0.0,0.0,0.0,0.0,0.0,0.0,0.0,0.0,0.0,0.0,0.0,0.0,0.0,-2.0754,-2.2627,-2.3671,-2.5447,-2.6848,-2.7762,-2.9056,-3.0172,-3.117,-3.1795,-3.254,-3.3372,-3.3371,-3.3499,-3.3829,-3.3692,-3.3731,-3.3853,-3.3917,-3.3727,-3.336,-3.3567,-3.314,-3.237,-3.219,-3.1738,-3.108,0.0,0.0,0.0,0.0,-3.057,-3.0742,-3.1548,0.0,0.0,-3.3344,-3.5005,-3.6577,0.0,0.0,-4.1061,-4.1483,-4.2765,-4.3927,-4.3751,-4.3697,-4.3663,-4.3541,-4.2868,-4.2323,-4.2412,-4.1956,-4.1774,-4.2321,-4.2448,-4.2684,-4.3303,-4.3411,-4.3446,-4.3479,-4.3497,0.0,0.0,0.0,0.0,-4.6112,-4.6826,-4.7707,-4.8853,-4.8909,-4.8909,-4.8909,-4.8909,-4.8839,-4.8678,-4.8623,-4.8532,-4.8363,-4.8306,-4.8306,-4.8306,-4.8306,-4.7425,-4.5902,-4.5938,-4.5055,-4.3615,-4.3667,-4.3767,-4.3897,-4.3897,-4.3961,-4.4005,-4.4005,-4.4376,-4.4785,0.0,0.0,0.0,0.0,0.0,0.0,0.0,0.0,0.0,0.0,0.0,0.0,0.0,0.0,0.0,0.0,0.0,0.0,0.0,0.0,-2.0552,-2.2106,-2.3607,-2.484,-2.5744,-2.7267,-2.8388,-2.9083,-3.0013,-3.0866,-3.1691,-3.1641,-3.1806,-3.2131,-3.1975,-3.1992,-3.211,-3.2171,-3.1994,-3.166,-3.1823,-3.1237,-3.0252,-3.0068,-2.9624,0.0,0.0,0.0,0.0,-2.9216,-2.9637,-3.0243,-3.1028,-3.1867,-3.2938,-3.4793,-3.6417,-3.7863,0.0,-4.0888,-4.2669,-4.3328,-4.4548,-4.5328,-4.4614,-4.4256,-4.3917,-4.3175,-4.196,-4.1016,-4.105,-4.0666,-4.0484,-4.1012,-4.1558,-4.2158,-4.2776,-4.3176,-4.3429,-4.3463,-4.3497,0.0,0.0,0.0,0.0,-4.6149,-4.7085,-4.797,-4.8853,-4.8909,-4.8909,-4.8909,-4.8909,-4.8785,-4.8587,-4.8587,-4.8476,-4.8306,-4.8306,-4.8306,-4.8306,-4.8306,-4.759,-4.6305,-4.6012,-4.5185,-4.397,-4.3676,-4.3667,-4.3851,-4.3851,-4.4114,-4.4451,-4.4451,-4.4989,-4.5602,0.0,0.0,0.0,0.0,0.0,0.0,0.0,0.0,0.0,0.0,0.0,0.0,0.0,0.0,0.0,0.0,0.0,0.0,0.0,0.0,0.0,-2.0426,-2.1979,-2.3147,-2.3872,-2.5583,-2.6481,-2.6529,-2.7541,-2.8461,-2.9291,-2.8688,-2.8837,-2.9703,-2.9013,-2.8803,-2.8949,-2.8985,-2.9091,-2.9231,-2.93,-2.8968,-2.8349,-2.7799,0.0,0.0,0.0,0.0,0.0,0.0,0.0,0.0,0.0,0.0,-3.4722,-3.6934,-3.7702,-3.8469,-4.1484,-4.2476,-4.3041,-4.4492,-4.5594,-4.6086,-4.5238,-4.4523,-4.3788,-4.29,-4.0908,-3.9315,0.0,0.0,-3.9242,-3.9315,-4.0653,-4.176,-4.1869,-4.274,-4.3339,0.0,0.0,0.0,0.0,0.0,0.0,-4.6225,0.0,-4.8007,-4.8872,-4.8909,-4.8909,-4.8909,-4.8909,-4.882,-4.8623,-4.8587,-4.8495,-4.8306,-4.8306,-4.8306,-4.8306,-4.8306,-4.7865,-4.7076,-4.625,-4.5443,-4.4635,-4.3828,-4.3671,-4.3859,-4.3859,-4.4457,-4.5361,-4.5361,-4.5862,-4.6438,0.0,0.0,0.0,0.0,0.0,0.0,0.0,0.0,0.0,0.0,0.0,0.0,0.0,0.0,0.0,0.0,0.0,0.0,0.0,0.0,0.0,0.0,0.0,0.0,0.0,0.0,0.0,0.0,0.0,-2.6012,-2.6961,-2.6853,-2.6925,-2.7236,-2.7194,-2.7179,-2.7249,-2.7403,-2.7197,-2.6783,0.0,-2.658,-2.5976,0.0,0.0,0.0,0.0,0.0,0.0,0.0,0.0,0.0,0.0,0.0,-3.6665,-3.7288,0.0,-4.127,-4.2073,-4.3614,-4.5061,-4.5559,-4.5896,-4.5749,-4.4493,-4.3671,-4.2607,-4.0691,-3.9333,-3.8301,0.0,0.0,0.0,-3.8301,-3.886,0.0,-4.1651,-4.2105,0.0,0.0,0.0,-4.4436,-4.469,-4.5975,0.0,0.0,-4.7848,-4.8475,-4.8804,-4.8874,-4.8909,-4.8909,-4.8909,-4.8839,-4.8732,-4.8606,-4.8438,-4.8306,-4.8306,-4.8306,-4.8306,-4.8306,-4.7865,-4.7076,-4.625,-4.546,-4.4722,-4.3913,-4.4051,-4.4772,-4.4772,-4.5356,-4.6197,-4.6197,-4.6698,-4.7367,0.0,0.0,0.0,0.0,0.0,0.0,0.0,0.0,0.0,0.0,0.0,0.0,0.0,0.0,0.0,0.0,0.0,0.0,0.0,0.0,0.0,0.0,0.0,0.0,0.0,0.0,0.0,0.0,0.0,0.0,0.0,-2.4199,-2.4298,-2.4364,-2.4526,-2.4605,-2.4669,0.0,0.0,0.0,0.0,0.0,0.0,0.0,0.0,0.0,0.0,0.0,0.0,0.0,0.0,-3.1809,-3.358,-3.5597,-3.762,-3.9004,0.0,-4.2376,-4.3451,-4.4698,-4.5757,-4.5891,-4.5952,-4.5538,-4.3706,-4.249,-4.1069,-3.8739,-3.7091,0.0,0.0,0.0,0.0,0.0,0.0,0.0,-4.0019,-4.1197,-4.2105,0.0,-4.3541,0.0,-4.5114,-4.603,-4.6912,0.0,-4.8274,-4.8642,-4.8787,-4.8874,-4.8909,-4.8909,-4.8909,-4.8874,-4.8787,-4.8606,-4.8457,-4.8401,-4.8306,-4.8306,-4.8306,-4.8306,-4.8067,-4.759,0.0,-4.6286,-4.5843,-4.5049,-4.5097,-4.5638,-4.5638,-4.6205,-4.7033,-4.7033,-4.7534,-4.824,0.0,0.0,0.0,0.0,0.0,0.0,0.0,0.0,0.0,0.0,0.0,0.0,0.0,0.0,0.0,0.0,0.0,0.0,0.0,0.0,0.0,0.0,0.0,0.0,0.0,0.0,0.0,0.0,0.0,0.0,0.0,0.0,0.0,0.0,0.0,0.0,0.0,0.0,0.0,0.0,0.0,0.0,0.0,0.0,0.0,0.0,0.0,0.0,0.0,0.0,-3.0113,-3.2148,-3.5101,-3.6781,-3.8125,-4.0901,-4.1945,-4.2695,-4.4849,-4.5605,-4.5747,-4.5775,-4.5704,-4.5083,-4.2718,-4.0989,-3.9211,-3.6669,0.0,0.0,-3.189,0.0,-3.2144,-3.2958,0.0,-3.687,-3.7884,-3.9964,-4.1542,-4.1869,-4.2776,-4.4016,-4.5626,-4.5938,-4.6691,-4.8196,-4.8495,-4.8642,-4.8787,-4.8839,-4.8909,-4.8909,-4.8909,-4.8874,-4.8787,-4.8624,-4.855,-4.8513,-4.8363,-4.8306,-4.8306,-4.8306,-4.8306,-4.8269,-4.7592,0.0,-4.726,-4.6537,-4.6311,-4.6471,-4.6471,-4.704,-4.7868,-4.7868,-4.8314,-4.8874,0.0,0.0,0.0,0.0,0.0,0.0,0.0,0.0,0.0,0.0,0.0,0.0,0.0,0.0,0.0,0.0,0.0,0.0,0.0,0.0,0.0,0.0,0.0,0.0,0.0,0.0,0.0,0.0,0.0,0.0,0.0,0.0,0.0,0.0,0.0,0.0,0.0,0.0,0.0,0.0,0.0,0.0,0.0,0.0,0.0,0.0,0.0,0.0,0.0,0.0,-3.0289,-3.2651,-3.5094,-3.7369,-3.9353,-4.0475,-4.2273,-4.3988,-4.4395,-4.5531,-4.6422,-4.5765,-4.4795,-4.3328,-4.1032,-3.885,0.0,0.0,0.0,-3.0828,-2.9421,-2.9692,0.0,-3.1292,0.0,0.0,0.0,0.0,-3.9601,0.0,0.0,0.0,0.0,0.0,0.0,0.0,0.0,-4.855,-4.8642,-4.8732,-4.8839,-4.8909,-4.8909,-4.8874,-4.8787,-4.8751,-4.8642,-4.8513,-4.8475,-4.8419,-4.8306,-4.8306,-4.8306,-4.8269,-4.7592,0.0,-4.7331,-4.6588,-4.6746,-4.7445,-4.7445,-4.7911,-4.8618,-4.867,-4.8763,-4.8822,0.0,0.0,0.0,0.0,0.0,0.0,0.0,0.0,0.0,0.0,-1.0336,0.0,0.0,0.0,0.0,0.0,0.0,0.0,0.0,0.0,0.0,0.0,0.0,0.0,0.0,0.0,0.0,0.0,0.0,0.0,0.0,0.0,0.0,0.0,0.0,0.0,0.0,0.0,0.0,0.0,0.0,0.0,0.0,0.0,0.0,0.0,0.0,0.0,0.0,0.0,-2.9336,-3.2092,-3.4856,-3.7145,-3.9071,-4.0672,-4.2282,-4.3613,-4.4047,-4.4774,-4.5255,-4.4547,-4.3586,-4.2169,-3.9953,0.0,0.0,0.0,0.0,-2.908,-2.7522,0.0,0.0,0.0,0.0,0.0,0.0,0.0,0.0,0.0,0.0,0.0,0.0,0.0,0.0,0.0,0.0,-4.8438,-4.855,-4.8715,-4.8822,-4.8909,-4.8909,-4.8874,-4.8839,-4.8822,-4.8715,-4.855,-4.8532,-4.8419,-4.8306,-4.8306,-4.8363,-4.8382,-4.809,0.0,-4.8086,-4.7784,-4.7927,-4.8333,-4.8298,-4.847,-4.8787,-4.875,-4.8714,-4.8732,0.0,0.0,0.0,0.0,0.0,0.0,0.0,-0.8404,-0.9132,-0.9881,-1.0211,-1.0498,-1.0777,-1.092,0.0,0.0,0.0,0.0,0.0,0.0,0.0,0.0,0.0,0.0,0.0,0.0,0.0,0.0,0.0,0.0,0.0,0.0,0.0,0.0,0.0,0.0,0.0,0.0,0.0,0.0,0.0,0.0,0.0,0.0,0.0,0.0,0.0,0.0,0.0,0.0,-2.79,-3.0646,-3.3504,-3.5994,-3.8211,-4.0227,-4.1612,-4.2675,-4.3392,-4.3842,-4.3905,-4.3172,-4.2317,-4.0966,-3.8592,-3.6113,0.0,0.0,-2.8542,-2.6925,-2.5548,0.0,0.0,0.0,0.0,0.0,0.0,0.0,0.0,0.0,0.0,0.0,0.0,0.0,0.0,0.0,0.0,0.0,-4.8494,-4.8679,-4.8768,-4.882,-4.882,-4.882,-4.882,-4.8768,-4.8697,-4.8569,-4.8532,-4.8419,-4.8306,-4.8306,-4.8401,-4.8513,-4.8605,0.0,0.0,-4.8874,-4.8909,-4.8909,-4.8822,-4.8787,-4.8732,-4.8642,-4.8587,-4.8605,0.0,0.0,0.0,0.0,0.0,0.0,0.0,-0.8345,-0.9071,-0.983,-1.0186,-1.0498,-1.0777,-1.0968,0.0,0.0,0.0,0.0,0.0,0.0,0.0,0.0,0.0,0.0,0.0,0.0,0.0,0.0,0.0,0.0,0.0,0.0,0.0,0.0,0.0,0.0,0.0,0.0,0.0,0.0,0.0,0.0,0.0,0.0,0.0,0.0,0.0,0.0,0.0,0.0,0.0,-2.7947,-2.971,-3.331,-3.7114,-3.8058,0.0,0.0,-4.1797,-4.2924,-4.3782,-4.2369,-4.1026,-3.9224,-3.6274,0.0,0.0,0.0,-2.554,-2.37,-2.2894,-2.3325,-2.3885,0.0,0.0,0.0,0.0,0.0,0.0,0.0,0.0,0.0,0.0,0.0,0.0,0.0,0.0,0.0,-4.8494,-4.8587,-4.8623,-4.8623,-4.8623,-4.8623,-4.8623,-4.8623,-4.8569,-4.8494,-4.8513,-4.8419,-4.8306,-4.8419,-4.8513,-4.8513,-4.8715,0.0,0.0,-4.8874,-4.8909,-4.8909,-4.8822,-4.8732,-4.8642,-4.8587,-4.8569,-4.8532,0.0,0.0,0.0,0.0,0.0,0.0,0.0,-0.8263,-0.9047,-0.9843,-1.0211,-1.0523,-1.0825,-1.1085,0.0,0.0,0.0,0.0,0.0,0.0,0.0,0.0,0.0,0.0,0.0,0.0,0.0,0.0,0.0,0.0,0.0,0.0,0.0,0.0,0.0,0.0,0.0,0.0,0.0,0.0,0.0,0.0,0.0,0.0,0.0,0.0,0.0,0.0,0.0,0.0,0.0,0.0,-2.7784,-3.0162,0.0,0.0,-3.7603,-3.9431,-3.9456,-4.0348,-4.112,-4.0654,-3.9425,-3.7745,-3.5722,0.0,0.0,-2.6853,-2.4801,-2.3106,-2.1864,-2.1882,-2.2422,0.0,0.0,0.0,0.0,0.0,0.0,0.0,0.0,0.0,0.0,0.0,0.0,0.0,0.0,0.0,-4.8363,-4.8476,-4.855,-4.8587,-4.8587,-4.8587,-4.8587,-4.8587,-4.8587,-4.8513,-4.8513,-4.8457,-4.8419,-4.8475,-4.8587,-4.8679,-4.8751,0.0,0.0,-4.8909,-4.8874,-4.8822,-4.8732,-4.8624,-4.8513,-4.8458,-4.8382,-4.8401,0.0,0.0,0.0,0.0,0.0,0.0,-0.7254,-0.7883,-0.8618,-0.9628,-1.0026,-1.0419,-1.0907,-1.1201,-1.1365,-1.14,0.0,0.0,0.0,0.0,0.0,0.0,0.0,0.0,0.0,0.0,0.0,0.0,0.0,0.0,0.0,0.0,0.0,0.0,0.0,0.0,0.0,0.0,0.0,0.0,0.0,0.0,0.0,0.0,0.0,0.0,0.0,0.0,0.0,0.0,0.0,0.0,0.0,0.0,0.0,0.0,-3.5168,-3.7009,-3.7071,-3.7848,-3.8649,-3.8563,-3.7421,-3.5864,0.0,0.0,-2.8637,-2.5729,-2.3891,-2.2393,-2.1019,-2.0769,-2.1235,0.0,0.0,0.0,0.0,0.0,0.0,0.0,0.0,0.0,0.0,0.0,0.0,0.0,0.0,0.0,0.0,-4.8401,-4.8476,-4.8514,-4.8514,-4.8514,-4.8514,-4.8514,-4.8495,-4.8457,-4.8457,-4.8457,-4.8457,-4.8494,-4.8606,-4.8732,0.0,0.0,0.0,-4.8874,-4.8839,-4.8787,-4.8624,-4.855,-4.8457,-4.8363,-4.8306,-4.8306,0.0,0.0,0.0,0.0,0.0,0.0,0.0,-0.7047,-0.7699,-0.9019,-0.9553,-1.0144,-1.1006,-1.1347,-1.1335,-1.0946,0.0,0.0,0.0,0.0,0.0,0.0,0.0,0.0,0.0,0.0,0.0,-1.2889,0.0,0.0,0.0,0.0,0.0,0.0,0.0,0.0,0.0,0.0,0.0,0.0,0.0,0.0,0.0,0.0,0.0,0.0,0.0,0.0,0.0,0.0,0.0,0.0,0.0,0.0,0.0,0.0,-3.2703,-3.4646,-3.474,-3.5922,-3.6967,-3.6321,-3.5013,-3.3341,0.0,0.0,-2.6371,-2.4016,-2.225,-2.0894,-2.0144,-2.0002,-2.0251,-2.1001,-2.3191,0.0,0.0,0.0,0.0,0.0,0.0,0.0,0.0,0.0,0.0,0.0,0.0,0.0,0.0,-4.8306,-4.8306,-4.8306,-4.8306,-4.8306,-4.8306,-4.8306,-4.8306,-4.8306,-4.8306,-4.8306,-4.8306,-4.8514,-4.8587,0.0,0.0,0.0,0.0,-4.8822,-4.8787,-4.8787,-4.8587,-4.8513,-4.8457,-4.8363,-4.8306,-4.8306,0.0,0.0,0.0,0.0,0.0,0.0,0.0,-0.6878,-0.7616,-0.8585,-0.9002,-0.9357,-0.9821,-1.01,-1.0288,-1.0345,0.0,0.0,0.0,0.0,0.0,0.0,0.0,0.0,0.0,0.0,-1.3281,-1.3795,-1.4027,-1.4387,0.0,0.0,0.0,0.0,0.0,0.0,0.0,0.0,0.0,0.0,0.0,0.0,0.0,0.0,0.0,0.0,0.0,0.0,0.0,0.0,0.0,0.0,0.0,0.0,0.0,0.0,0.0,0.0,-3.2074,-3.309,-3.3917,-3.374,-3.2619,-3.1191,-3.0018,-2.7513,-2.4908,-2.3053,-2.1429,-2.0109,-1.9324,-1.9627,-2.0234,-2.0983,-2.3146,0.0,0.0,0.0,0.0,0.0,0.0,0.0,0.0,0.0,0.0,0.0,0.0,0.0,0.0,-4.8306,-4.8306,-4.8306,-4.8306,-4.8306,-4.8306,-4.8306,-4.8306,-4.8306,-4.8306,-4.8363,-4.8457,-4.8494,0.0,0.0,0.0,0.0,0.0,-4.8678,-4.8624,-4.8569,-4.8513,-4.8457,-4.8363,-4.8306,-4.8306,-4.8306,0.0,0.0,0.0,0.0,0.0,0.0,0.0,-0.6215,-0.6987,-0.7778,-0.8305,-0.88,-0.9289,-0.9584,-0.9737,-0.9726,0.0,0.0,0.0,0.0,0.0,0.0,0.0,0.0,0.0,-1.2373,-1.3274,-1.4314,-1.4579,-1.5098,-1.5792,-1.6122,-1.6261,0.0,0.0,0.0,0.0,0.0,0.0,0.0,0.0,0.0,-1.7856,0.0,0.0,0.0,0.0,0.0,0.0,0.0,0.0,0.0,0.0,0.0,0.0,0.0,-2.5195,0.0,0.0,-3.0068,-3.0808,-3.0853,-2.9988,0.0,0.0,-2.5872,-2.3713,-2.1822,-2.0662,-1.9752,-1.8948,-1.9466,-2.0341,-2.1375,-2.332,0.0,0.0,0.0,0.0,0.0,0.0,0.0,0.0,0.0,0.0,0.0,0.0,0.0,0.0,-4.8267,-4.8306,-4.8306,-4.8306,-4.8306,-4.8306,-4.8306,-4.8306,-4.8306,-4.8306,-4.8344,-4.8419,-4.8475,0.0,0.0,0.0,0.0,0.0,-4.8569,-4.855,-4.8494,-4.8457,-4.8363,-4.8306,-4.8363,-4.8363,-4.8363,0.0,0.0,0.0,0.0,0.0,0.0,0.0,0.0,0.0,0.0,-0.7509,-0.8295,-0.9176,-0.9512,-0.9493,0.0,0.0,0.0,0.0,0.0,0.0,0.0,0.0,0.0,0.0,-1.184,-1.3007,-1.4583,-1.5276,-1.5981,-1.6694,-1.7406,-1.771,-1.771,-1.7732,-1.7816,-1.7922,-1.7983,-1.8005,-1.8005,-1.8005,-1.7944,0.0,0.0,0.0,0.0,0.0,0.0,0.0,0.0,0.0,0.0,0.0,0.0,0.0,0.0,0.0,0.0,0.0,0.0,0.0,0.0,0.0,0.0,0.0,-2.3963,0.0,-2.0466,-2.0021,-1.9789,-1.902,-1.9591,-2.0664,-2.2164,-2.3807,0.0,0.0,0.0,0.0,0.0,0.0,0.0,0.0,0.0,0.0,0.0,0.0,0.0,0.0,-4.8247,-4.8306,-4.8306,-4.8306,-4.8306,-4.8306,-4.8306,-4.8306,-4.8306,-4.8306,-4.8306,-4.8306,-4.8419,0.0,0.0,0.0,0.0,0.0,-4.8532,-4.8513,-4.8513,-4.8363,-4.8306,-4.8344,-4.8457,-4.8513,-4.8494,0.0,0.0,0.0,0.0,0.0,0.0,0.0,0.0,0.0,0.0,0.0,-0.7093,-0.7869,-0.8196,0.0,0.0,0.0,0.0,0.0,0.0,0.0,0.0,0.0,0.0,0.0,-1.2035,-1.3442,-1.5478,-1.5666,-1.6396,-1.7667,-1.7854,-1.7922,-1.7922,-1.7988,-1.8048,-1.813,-1.8091,-1.807,-1.807,-1.8027,-1.7983,0.0,0.0,0.0,0.0,-1.7983,-1.7983,0.0,0.0,0.0,0.0,0.0,0.0,0.0,0.0,-2.0813,-2.1063,-2.1908,0.0,-2.5454,-2.6039,0.0,0.0,0.0,-2.2758,-2.1417,0.0,0.0,0.0,-1.983,-2.0962,-2.2216,-2.3137,0.0,0.0,0.0,0.0,0.0,0.0,0.0,0.0,0.0,0.0,0.0,0.0,0.0,0.0,0.0,-4.8247,-4.8306,-4.8306,-4.8306,-4.8306,-4.8306,-4.8306,-4.8306,-4.8306,-4.8306,-4.8306,-4.8306,-4.8344,-4.8363,0.0,0.0,0.0,-4.8382,-4.8344,-4.8419,-4.8513,-4.8457,-4.8476,-4.8514,-4.8569,-4.8569,-4.8477,0.0,0.0,0.0,0.0,0.0,0.0,0.0,0.0,0.0,0.0,0.0,0.0,0.0,0.0,0.0,0.0,0.0,0.0,0.0,0.0,0.0,0.0,0.0,0.0,-1.1369,-1.1819,-1.3309,-1.5901,-1.5901,-1.6848,-1.8628,-1.825,-1.8284,-1.8633,-1.8335,-1.8222,-1.8243,-1.8222,-1.8184,-1.8166,-1.7776,0.0,0.0,0.0,0.0,0.0,-1.7024,-1.7267,0.0,-1.7659,-1.7924,-1.827,0.0,0.0,0.0,0.0,-1.9521,-1.9691,-2.0127,-2.1542,-2.3065,-2.385,-2.3845,-2.3526,0.0,0.0,0.0,0.0,0.0,0.0,0.0,0.0,0.0,0.0,0.0,0.0,0.0,0.0,0.0,0.0,0.0,0.0,0.0,0.0,0.0,0.0,0.0,0.0,0.0,-4.8229,-4.8306,-4.8306,-4.8306,-4.8306,-4.8306,-4.8306,-4.8306,-4.8306,-4.8306,-4.8306,-4.8306,-4.8306,-4.8306,0.0,0.0,0.0,-4.8401,-4.8401,-4.8438,-4.855,-4.855,-4.8569,-4.8587,-4.8678,-4.8456,-4.8068,0.0,0.0,0.0,0.0,0.0,0.0,0.0,0.0,0.0,0.0,0.0,0.0,0.0,0.0,0.0,0.0,0.0,0.0,0.0,0.0,0.0,0.0,0.0,-0.9995,-1.1489,-1.1763,-1.3235,-1.6028,-1.6132,-1.7314,-1.9408,-1.861,-1.8593,-1.9239,-1.8624,-1.8278,-1.8193,-1.8156,-1.8086,-1.7929,-1.73,0.0,0.0,0.0,0.0,0.0,0.0,0.0,0.0,-1.7001,-1.7437,-1.7979,-1.8101,0.0,0.0,0.0,0.0,0.0,-1.9257,-2.0047,-2.0891,-2.1949,-2.2307,-2.241,0.0,0.0,0.0,0.0,0.0,0.0,0.0,0.0,0.0,0.0,0.0,0.0,0.0,0.0,0.0,0.0,0.0,0.0,0.0,0.0,0.0,0.0,0.0,0.0,0.0,-4.819,-4.8306,-4.8306,-4.8306,-4.8306,-4.8306,-4.8306,-4.8306,-4.8306,-4.8306,-4.8306,-4.8306,-4.8306,-4.8306,-4.8306,0.0,0.0,-4.8513,-4.8494,-4.855,-4.8642,-4.8642,-4.8642,-4.866,-4.8639,-4.8211,-4.758,0.0,0.0,0.0,0.0,0.0,0.0,0.0,0.0,0.0,0.0,0.0,0.0,0.0,0.0,0.0,0.0,0.0,0.0,0.0,0.0,0.0,0.0,-0.9838,-1.062,-1.1563,-1.2918,-1.4438,-1.6185,-1.6781,-1.7953,-1.9559,-1.8694,-1.84,-1.8641,-1.8592,-1.8209,-1.7629,-1.7557,-1.7152,-1.6501,-1.6343,0.0,0.0,0.0,0.0,0.0,0.0,0.0,0.0,-1.6273,-1.6343,-1.6551,-1.716,0.0,0.0,0.0,0.0,0.0,-1.8706,-1.8906,-1.9568,-2.1665,-2.2307,-2.241,-2.2467,0.0,0.0,0.0,0.0,0.0,0.0,0.0,0.0,0.0,0.0,0.0,0.0,0.0,0.0,0.0,0.0,0.0,0.0,0.0,0.0,0.0,0.0,0.0,0.0,-4.819,-4.8306,-4.8306,-4.8306,-4.8306,-4.8306,-4.8306,-4.8306,-4.8306,-4.8306,-4.8306,-4.8306,-4.8306,-4.8306,-4.8306,0.0,-4.8457,-4.8494,-4.8569,-4.866,-4.8787,-4.8787,-4.8804,-4.8781,-4.8094,-4.7779,-4.7482,0.0,0.0,0.0,0.0,0.0,0.0,0.0,0.0,0.0,0.0,0.0,0.0,0.0,0.0,0.0,0.0,0.0,0.0,0.0,0.0,0.0,-0.9875,-1.0713,-1.1305,-1.1641,-1.3205,-1.4745,-1.6253,-1.7029,-1.821,-1.9685,-1.9295,-1.8931,-1.8585,-1.8178,-1.7843,-1.7524,-1.7063,-1.6656,-1.6267,0.0,0.0,0.0,0.0,0.0,0.0,0.0,0.0,0.0,0.0,-1.585,-1.6272,-1.6607,0.0,0.0,0.0,0.0,0.0,-1.8003,-1.8377,-1.9215,-2.1161,-2.1744,-2.2147,-2.3541,0.0,0.0,0.0,0.0,0.0,0.0,0.0,0.0,0.0,0.0,0.0,0.0,0.0,0.0,0.0,0.0,0.0,0.0,0.0,0.0,0.0,0.0,0.0,0.0,0.0,-4.8306,-4.8306,-4.8306,-4.8306,-4.8306,-4.8306,-4.8306,-4.8306,-4.8306,-4.8306,-4.8306,-4.8306,-4.8306,-4.8306,0.0,-4.8532,-4.855,-4.866,-4.8768,-4.8839,-4.8839,-4.8614,-4.8091,-4.6865,-4.6401,-4.6234,0.0,0.0,0.0,0.0,0.0,0.0,0.0,0.0,0.0,0.0,0.0,0.0,0.0,0.0,0.0,0.0,0.0,0.0,0.0,0.0,-0.9629,-1.0499,-1.1352,-1.1859,-1.2008,-1.3716,-1.5193,-1.6369,-1.7346,-1.843,-1.958,-1.9757,-1.9442,-1.8698,-1.7915,-1.7487,-1.7306,-1.6504,-1.6058,-1.5826,0.0,0.0,0.0,0.0,0.0,0.0,0.0,0.0,0.0,0.0,0.0,0.0,0.0,0.0,0.0,-1.625,-1.6886,-1.7524,-1.7524,-1.8289,-1.9432,-2.0888,0.0,-2.219,-2.4468,0.0,0.0,0.0,0.0,0.0,0.0,0.0,0.0,0.0,0.0,0.0,0.0,0.0,0.0,0.0,0.0,0.0,0.0,0.0,0.0,0.0,0.0,0.0,0.0,0.0,-4.8306,-4.8306,-4.8306,-4.8306,-4.8306,-4.8122,-4.8122,-4.8306,-4.8306,-4.8306,-4.8306,-4.8306,-4.8306,-4.8306,-4.8438,-4.855,-4.8623,-4.8768,-4.8839,-4.889,-4.8686,-4.8017,-4.6995,-4.5751,-4.5157,-4.4896,0.0,0.0,0.0,0.0,0.0,0.0,0.0,0.0,0.0,0.0,0.0,0.0,0.0,0.0,0.0,0.0,0.0,0.0,0.0,0.0,-0.9771,-1.0646,-1.1391,-1.216,-1.289,-1.5214,-1.6468,-1.6576,-1.8072,-1.8825,-1.8895,-1.9627,-1.9593,-1.8861,-1.8036,-1.7299,-1.6612,-1.581,-1.5052,-1.4347,-1.4293,0.0,0.0,0.0,0.0,0.0,0.0,0.0,0.0,0.0,0.0,0.0,0.0,0.0,-1.5414,-1.609,-1.692,-1.7593,-1.7593,-1.8771,-2.0227,-2.1148,-2.1962,0.0,-2.4617,-2.6157,0.0,0.0,0.0,0.0,0.0,0.0,0.0,0.0,0.0,0.0,0.0,0.0,0.0,0.0,0.0,0.0,0.0,0.0,0.0,0.0,0.0,0.0,0.0,0.0,0.0,-4.8306,-4.8306,-4.8306,-4.8306,-4.7572,-4.7572,-4.8306,-4.8306,-4.8306,-4.8306,-4.8306,-4.8306,-4.8306,-4.8532,-4.8587,-4.8623,-4.882,-4.8909,-4.8834,-4.8091,-4.6828,-4.5454,-4.5342,-4.4785,-4.4079,0.0,0.0,0.0,0.0,0.0,0.0,0.0,0.0,0.0,0.0,0.0,0.0,0.0,0.0,0.0,0.0,0.0,0.0,0.0,0.0,-0.9886,-1.0731,-1.1503,-1.2299,-1.3098,-1.541,-1.6592,-1.6592,-1.8193,-1.8967,-1.8984,-1.9308,-1.9037,-1.8241,-1.7444,-1.6678,-1.5928,-1.5129,-1.4603,-1.4325,-1.4325,-1.4319,0.0,0.0,0.0,0.0,0.0,0.0,0.0,0.0,-1.4247,-1.4275,0.0,-1.4598,-1.4637,-1.491,-1.5941,-1.6976,-1.6976,-1.857,-2.0554,-2.1894,-2.322,0.0,0.0,0.0,0.0,0.0,0.0,0.0,0.0,0.0,0.0,0.0,0.0,0.0,0.0,0.0,0.0,0.0,0.0,0.0,0.0,0.0,0.0,0.0,0.0,0.0,0.0,0.0,0.0,-4.8306,-4.8306,-4.8067,-4.7572,-4.726,-4.7021,-4.6819,-4.6819,-4.6819,-4.6819,-4.6819,-4.6819,-4.6819,-4.6966,-4.7057,-4.7057,-4.7215,-4.7265,-4.7225,-4.6479,-4.5844,-4.5231,-4.4692,-4.4283,-4.4005,0.0,0.0,0.0,0.0,0.0,0.0,0.0,0.0,0.0,0.0,0.0,0.0,0.0,0.0,0.0,0.0,0.0,0.0,0.0,-0.9283,-0.9758,-1.0826,-1.1379,-1.2139,-1.3201,-1.5015,-1.6179,-1.6652,-1.8274,-1.9087,-1.9137,-1.9137,-1.8701,-1.7897,-1.7096,-1.631,-1.5554,-1.4745,-1.4411,-1.4411,-1.4422,-1.4417,0.0,0.0,0.0,0.0,0.0,0.0,0.0,0.0,-1.4324,0.0,0.0,0.0,0.0,-1.4242,-1.5392,-1.667,-1.667,-1.8651,-2.1043,0.0,0.0,0.0,0.0,0.0,0.0,0.0,0.0,0.0,0.0,0.0,0.0,0.0,0.0,0.0,0.0,0.0,0.0,0.0,0.0,0.0,0.0,0.0,0.0,0.0,0.0,0.0,0.0,0.0,0.0,0.0,-4.8067,-4.7682,-4.7131,-4.6617,-4.6085,-4.5516,-4.5259,-4.5406,-4.5902,-4.5902,-4.5902,-4.5902,-4.6047,-4.6101,-4.6118,-4.6221,-4.6123,-4.5879,-4.5426,-4.5087,-4.4822,-4.4228,-4.3974,-4.3974,0.0,0.0,0.0,0.0,0.0,0.0,0.0,0.0,0.0,0.0,0.0,0.0,0.0,0.0,0.0,0.0,0.0,0.0,-0.855,-0.861,-0.9314,-1.0927,-1.0936,-1.1653,-1.3237,-1.4084,-1.5263,-1.6798,-1.8401,-1.9166,-1.92,-1.92,-1.8763,-1.796,-1.7162,-1.6342,-1.5535,-1.4751,-1.4398,-1.4416,-1.4458,-1.4458,-1.4398,0.0,0.0,0.0,0.0,0.0,0.0,0.0,-1.438,0.0,0.0,0.0,0.0,0.0,-1.5492,-1.6791,-1.6824,-1.915,0.0,0.0,0.0,0.0,0.0,0.0,0.0,0.0,0.0,0.0,0.0,0.0,0.0,0.0,0.0,0.0,0.0,0.0,0.0,0.0,0.0,0.0,0.0,0.0,0.0,0.0,0.0,0.0,0.0,0.0,0.0,0.0,-4.7517,-4.7075,-4.7095,-4.5516,-4.4709,-4.469,-4.3883,-4.4323,-4.5883,-4.5883,-4.5883,-4.5865,-4.6028,-4.6083,-4.6064,-4.6151,-4.5774,-4.5101,-4.5101,-4.4633,-4.4005,-4.4005,-4.3961,-4.3897,0.0,0.0,0.0,0.0,0.0,0.0,0.0,0.0,0.0,0.0,0.0,0.0,0.0,0.0,0.0,0.0,0.0,0.0,-0.8577,-0.8676,-0.9141,-1.0176,-1.0758,-1.1243,-1.1665,-1.3575,-1.5336,-1.6876,-1.7353,-1.7913,-1.8493,-1.8493,-1.807,-1.7279,-1.704,-1.6189,-1.4883,-1.4637,-1.4537,-1.4537,-1.4567,-1.4567,-1.4537,0.0,0.0,0.0,0.0,0.0,0.0,0.0,0.0,0.0,0.0,0.0,0.0,-1.4459,-1.5592,-1.6995,-1.7563,-1.9646,0.0,0.0,0.0,0.0,0.0,0.0,0.0,0.0,0.0,0.0,0.0,0.0,0.0,0.0,0.0,0.0,0.0,0.0,0.0,0.0,0.0,0.0,0.0,0.0,0.0,0.0,0.0,0.0,0.0,0.0,0.0,-4.6636,-4.6948,-4.6581,-4.5424,-4.4947,-4.4415,-4.3846,-4.3608,-4.3736,-4.4195,-4.4195,-4.4195,-4.4195,-4.4248,-4.4248,-4.4283,-4.4334,-4.4306,-4.4188,-4.4188,-4.4073,-4.3851,-4.3851,-4.3851,-4.3837,0.0,0.0,0.0,0.0,0.0,0.0,0.0,0.0,0.0,0.0,0.0,0.0,0.0,0.0,0.0,0.0,0.0,0.0,0.0,0.0,-0.8765,-0.9895,-1.0395,-1.0782,-1.1034,-1.2778,-1.4293,-1.5542,-1.6485,-1.7388,-1.8227,-1.8209,-1.7937,-1.7457,-1.7143,-1.6306,-1.5092,-1.477,-1.4632,-1.4635,-1.4664,-1.4672,-1.464,0.0,0.0,0.0,0.0,0.0,0.0,0.0,0.0,0.0,0.0,0.0,0.0,-1.4058,-1.5459,-1.7159,-1.7964,0.0,0.0,0.0,0.0,0.0,0.0,0.0,0.0,0.0,0.0,0.0,0.0,0.0,0.0,0.0,0.0,0.0,0.0,0.0,0.0,0.0,0.0,0.0,0.0,0.0,0.0,0.0,0.0,0.0,0.0,0.0,-4.619,-4.5791,-4.5938,-4.559,-4.4656,-4.4326,-4.3958,-4.3497,-4.3497,-4.3497,-4.3497,-4.3497,-4.3497,-4.3497,-4.3497,-4.3497,-4.3479,-4.3548,-4.3634,-4.3719,-4.3719,-4.3753,-4.3804,-4.3804,-4.3771,-4.3719,0.0,0.0,0.0,0.0,0.0,0.0,0.0,0.0,0.0,0.0,0.0,0.0,0.0,0.0,0.0,0.0,0.0,0.0,0.0,0.0,-0.8318,-0.9944,-1.0009,-1.0356,-1.1084,-1.1821,-1.263,-1.3522,-1.5648,-1.7194,-1.8194,-1.813,-1.8148,-1.8204,-1.7464,-1.6682,-1.5859,-1.5128,-1.477,-1.4707,-1.4774,-1.4763,-1.4693,-1.4619,0.0,0.0,0.0,0.0,0.0,0.0,0.0,0.0,0.0,0.0,-1.3402,-1.3402,-1.5173,-1.7275,0.0,0.0,0.0,0.0,0.0,0.0,0.0,0.0,0.0,0.0,0.0,0.0,0.0,0.0,0.0,0.0,0.0,0.0,0.0,0.0,0.0,0.0,0.0,0.0,0.0,0.0,0.0,0.0,0.0,0.0,0.0,-4.494,-4.5378,-4.5384,-4.4728,-4.44,-4.4455,-4.376,-4.3411,-4.3497,-4.3497,-4.3497,-4.3497,-4.3497,-4.3497,-4.3497,-4.3497,-4.3497,-4.3497,-4.3497,-4.3532,-4.3582,-4.3582,-4.3686,-4.3771,-4.3771,-4.3686,-4.3582,0.0,0.0,0.0,0.0,0.0,0.0,0.0,0.0,0.0,0.0,0.0,0.0,0.0,0.0,0.0,0.0,0.0,0.0,0.0,0.0,-0.834,-1.001,-1.0025,-1.0364,-1.1156,-1.1351,-1.2168,-1.367,-1.4064,-1.5359,-1.7435,-1.7416,-1.777,-1.8416,-1.8249,-1.7354,-1.5974,-1.5799,-1.5362,-1.4774,-1.4793,-1.4793,-1.4698,-1.4017,-1.3635,0.0,0.0,0.0,0.0,0.0,0.0,0.0,-1.1333,-1.2321,-1.3486,-1.3486,-1.5248,-1.7354,0.0,0.0,0.0,0.0,0.0,0.0,0.0,0.0,0.0,0.0,0.0,0.0,0.0,0.0,0.0,0.0,0.0,0.0,0.0,0.0,0.0,0.0,0.0,0.0,0.0,0.0,0.0,0.0,0.0,0.0,-4.3359,-4.4104,-4.4287,-4.3743,-4.4144,-4.409,-4.3524,-4.3432,-4.3429,0.0,-4.3463,-4.3497,-4.3497,-4.3497,-4.3497,-4.3497,-4.3497,-4.3497,-4.3497,-4.3497,-4.3532,-4.3513,-4.3513,-4.3532,-4.3566,-4.3566,-4.3532,-4.3513,0.0,0.0,0.0,0.0,0.0,0.0,0.0,0.0,0.0,0.0,0.0,0.0,0.0,0.0,0.0,0.0,0.0,0.0,0.0,0.0,0.0,-1.0031,-1.0073,-1.0235,-1.0627,-1.063,-1.1446,-1.3126,-1.3059,-1.4466,0.0,0.0,-1.7887,-1.9064,-1.8672,-1.7805,-1.6589,-1.6207,-1.5572,-1.486,-1.4851,-1.4588,-1.4176,-1.3718,-1.3046,-1.2244,-1.1404,0.0,0.0,0.0,0.0,0.0,0.0,0.0,-1.2469,-1.2863,-1.4429,-1.6405,0.0,0.0,0.0,0.0,0.0,0.0,0.0,0.0,0.0,0.0,0.0,0.0,0.0,0.0,0.0,0.0,0.0,0.0,0.0,0.0,0.0,0.0,0.0,0.0,0.0,0.0,0.0,0.0,0.0,-4.2938,-4.2994,-4.3393,-4.3449,-4.3068,-4.345,-4.3505,-4.316,-4.3196,-4.3269,-4.3305,-4.3393,-4.3463,-4.3497,-4.3497,-4.3497,-4.3497,-4.3497,-4.3497,-4.3497,-4.3497,-4.3497,-4.3497,-4.3497,-4.3497,-4.3497,-4.3497,-4.3497,-4.3497,0.0,0.0,0.0,0.0,0.0,0.0,0.0,0.0,0.0,0.0,0.0,0.0,0.0,0.0,0.0,0.0,0.0,0.0,0.0,0.0,0.0,-1.0044,-1.01,-1.0077,-1.002,-1.0025,-1.0828,-1.2503,-1.2496,0.0,0.0,0.0,0.0,-1.9707,-1.9045,-1.8214,-1.7281,-1.6607,-1.5762,-1.4905,-1.4895,-1.4463,-1.3808,-1.3666,-1.2665,-1.1304,-1.1173,-1.0548,-0.9825,-0.9882,0.0,0.0,0.0,0.0,-1.1326,-1.2006,-1.3435,-1.5283,0.0,0.0,0.0,0.0,0.0,0.0,0.0,0.0,0.0,0.0,0.0,0.0,0.0,0.0,0.0,0.0,0.0,0.0,0.0,0.0,0.0,0.0,0.0,0.0,0.0,0.0,0.0,0.0,0.0,-4.2882,-4.2882,-4.2882,-4.2882,-4.2882,-4.2882,-4.2938,-4.3049,-4.3104,-4.3141,-4.3178,-4.3305,-4.3393,-4.3463,-4.3463,-4.3463,-4.3497,-4.3497,-4.3497,-4.3497,-4.3497,-4.3497,-4.3497,-4.3497,-4.3497,-4.3497,-4.3497,-4.3497,-4.3497,0.0,0.0,0.0,0.0,0.0,0.0,0.0,0.0,0.0,0.0,0.0,0.0,0.0,0.0,0.0,0.0,0.0,0.0,-0.7621,0.0,0.0,-1.0094,-1.0109,-1.0093,-1.0096,-1.0092,-1.0879,-1.2497,0.0,0.0,0.0,0.0,0.0,-1.9873,0.0,0.0,-1.7374,-1.7261,-1.6328,-1.4895,-1.4904,-1.482,-1.465,-1.3942,-1.3074,-1.2142,-1.1438,-1.0621,-0.9881,-0.9906,-0.9906,0.0,0.0,0.0,-1.1226,-1.132,-1.3028,-1.4957,0.0,0.0,0.0,0.0,0.0,0.0,0.0,0.0,0.0,0.0,0.0,0.0,0.0,0.0,0.0,0.0,0.0,0.0,0.0,0.0,0.0,0.0,0.0,0.0,0.0,0.0,0.0,0.0,0.0,-4.2882,-4.2882,-4.2882,-4.2882,-4.2882,-4.2882,-4.29,-4.2938,-4.3049,-4.3104,-4.3104,-4.3178,-4.3251,-4.3232,-4.3232,-4.3358,-4.3497,-4.3497,-4.3497,-4.3497,-4.3497,-4.3497,-4.3497,-4.3497,-4.3497,-4.3497,-4.3497,-4.3463,-4.3411,0.0,0.0,0.0,0.0,0.0,0.0,0.0,0.0,0.0,0.0,0.0,0.0,0.0,0.0,0.0,-0.654,-0.6847,-0.7438,-0.8312,-0.9519,-1.0199,-1.0155,-1.0121,-1.0101,-1.011,-1.0101,-1.0909,-1.2553,0.0,0.0,0.0,-1.7482,-1.8323,0.0,0.0,0.0,0.0,-1.7593,-1.6716,-1.5582,-1.5146,-1.4655,-1.4193,-1.3841,-1.3153,-1.2345,-1.2006,-1.1621,-1.1301,-1.1333,-1.103,-1.0634,-1.0671,0.0,0.0,0.0,-1.2034,0.0,0.0,0.0,0.0,0.0,0.0,0.0,0.0,0.0,0.0,0.0,0.0,0.0,0.0,0.0,0.0,0.0,0.0,0.0,0.0,0.0,0.0,0.0,0.0,0.0,0.0,0.0,0.0,0.0,0.0,-4.2882,-4.2882,-4.2882,-4.2882,-4.2882,-4.2882,-4.2882,-4.2882,-4.2938,-4.3049,-4.3104,-4.3123,-4.3142,-4.3214,-4.3214,-4.3251,-4.3339,-4.3339,-4.3339,-4.3339,-4.3339,-4.3339,-4.3339,-4.3339,-4.3339,-4.3339,-4.3339,-4.3322,-4.3305,0.0,0.0,0.0,0.0,0.0,0.0,0.0,0.0,0.0,0.0,0.0,0.0,0.0,0.0,0.0,0.0,-0.7809,-0.8302,-0.917,-0.9839,-1.0196,-1.0186,-1.0125,-1.0101,-1.01,-1.0105,-1.0818,0.0,0.0,0.0,-1.7267,-1.7451,-1.8383,0.0,-1.9938,0.0,0.0,0.0,0.0,-1.6479,-1.5872,-1.5256,-1.4671,-1.4671,-1.4114,-1.3361,-1.3361,-1.3097,-1.2738,-1.279,-1.2248,-1.1497,-1.1351,-1.085,0.0,0.0,0.0,0.0,0.0,0.0,0.0,0.0,0.0,0.0,0.0,0.0,0.0,0.0,0.0,0.0,0.0,0.0,0.0,0.0,0.0,0.0,0.0,0.0,0.0,0.0,0.0,0.0,0.0,0.0,0.0,0.0,0.0,-4.2683,-4.2882,-4.2882,-4.2882,-4.2882,-4.2882,-4.2882,-4.2882,-4.2882,-4.2938,-4.3049,-4.3049,-4.3086,-4.3123,-4.3123,-4.3123,-4.3123,-4.316,-4.3214,-4.3214,-4.3214,-4.3214,-4.3214,-4.3214,-4.3214,-4.3214,-4.3214,-4.3178,-4.3178,0.0,0.0,0.0,0.0,0.0,0.0,0.0,0.0,0.0,0.0,0.0,0.0,-0.8816,-0.8731,-0.8436,-0.7661,-0.8359,-0.9201,-1.0087,-1.0164,-1.0173,-1.0113,-1.0102,0.0,-1.01,-1.0105,0.0,0.0,0.0,0.0,-1.6383,-1.721,-1.8441,-1.9988,-2.0004,-1.9509,-1.8694,0.0,0.0,0.0,0.0,-1.7331,0.0,0.0,0.0,0.0,0.0,0.0,-1.3626,-1.3645,-1.3109,-1.2307,-1.1547,-1.1266,-1.1079,0.0,0.0,0.0,0.0,0.0,0.0,0.0,0.0,0.0,0.0,0.0,0.0,0.0,0.0,0.0,0.0,0.0,0.0,0.0,0.0,0.0,0.0,0.0,0.0,0.0,0.0,0.0,0.0,0.0,0.0,0.0,0.0,-4.2103,-4.2846,-4.2882,-4.2882,-4.2882,-4.2882,-4.2882,-4.2882,-4.2882,-4.2882,-4.292,-4.292,-4.292,-4.2938,-4.2938,-4.2938,-4.2938,-4.3123,-4.3214,-4.3214,-4.3214,-4.3214,-4.3214,-4.3214,-4.3214,-4.3214,-4.3214,-4.316,-4.3104,0.0,0.0,0.0,0.0,0.0,0.0,0.0,0.0,0.0,0.0,0.0,0.0,0.0,-0.9563,-0.9465,-0.9226,-0.9483,-0.9805,-1.0113,-1.0133,-1.0125,-1.009,-1.0105,-1.0093,-1.0105,-1.0101,0.0,0.0,0.0,-1.3615,-1.5555,-1.6383,-1.766,-1.9258,-1.976,-1.9834,-1.9501,-1.899,0.0,0.0,0.0,0.0,0.0,0.0,0.0,0.0,0.0,0.0,0.0,-1.6923,-1.5662,-1.4054,-1.3764,-1.2586,-1.1141,-1.0312,-1.0655,0.0,0.0,0.0,0.0,0.0,0.0,0.0,0.0,0.0,0.0,0.0,0.0,0.0,0.0,0.0,0.0,0.0,0.0,0.0,0.0,0.0,0.0,0.0,0.0,0.0,0.0,0.0,0.0,0.0,0.0,-4.1289,-4.2103,-4.214,-4.2375,-4.2864,-4.2882,-4.2882,-4.2882,-4.2882,-4.2882,-4.2882,-4.2882,-4.2882,-4.2882,-4.2882,-4.2882,-4.2882,-4.2975,-4.3013,-4.3013,-4.3013,-4.3013,-4.3013,-4.3013,-4.3013,-4.3013,-4.3013,-4.2975,-4.2994,0.0,0.0,0.0,0.0,0.0,0.0,0.0,0.0,0.0,0.0,0.0,0.0,0.0,0.0,-1.0439,-1.0493,-1.0493,-1.0391,-1.0116,-1.0097,-1.0093,-1.0104,-1.008,-1.0067,-1.0068,-1.0063,-1.0326,0.0,0.0,0.0,0.0,-1.5487,-1.6757,-1.8384,-1.8925,-1.9465,0.0,0.0,0.0,-1.9111,0.0,0.0,-1.9604,0.0,0.0,0.0,0.0,0.0,0.0,0.0,0.0,-1.6143,-1.5608,-1.3519,-1.1185,-1.0665,-1.0684,0.0,0.0,0.0,0.0,0.0,0.0,0.0,0.0,0.0,0.0,0.0,0.0,0.0,0.0,0.0,0.0,0.0,0.0,0.0,0.0,0.0,0.0,0.0,0.0,0.0,0.0,0.0,0.0,0.0,0.0,0.0,-4.127,-4.1307,-4.1687,-4.2466,-4.2755,-4.2882,-4.2882,-4.2882,-4.2882,-4.2882,-4.2882,-4.2882,-4.2882,-4.2882,-4.2882,-4.2882,-4.2882,-4.2882,-4.2882,-4.2882,-4.2882,-4.2882,-4.2882,-4.2882,-4.2882,-4.2882,-4.2882,-4.29,0.0,0.0,0.0,0.0,0.0,0.0,0.0,0.0,0.0,-0.9776,0.0,0.0,0.0,0.0,0.0,-1.1337,-1.1323,-1.0992,-1.0187,-1.013,-1.0111,-1.0096,-1.002,-0.9997,-0.9997,-1.0001,-0.9991,0.0,0.0,0.0,0.0,0.0,-1.5844,-1.7434,-1.7453,-1.8383,-1.9936,0.0,-1.9974,-2.0069,0.0,-2.1225,-2.1453,0.0,0.0,0.0,-2.3803,-2.3291,0.0,0.0,0.0,0.0,0.0,0.0,-1.1405,-1.1348,0.0,0.0,0.0,0.0,0.0,0.0,0.0,0.0,0.0,0.0,0.0,0.0,0.0,0.0,0.0,0.0,0.0,0.0,0.0,0.0,0.0,0.0,0.0,0.0,0.0,0.0,0.0,0.0,0.0,0.0,-3.9351,-3.9695,-4.0437,-4.0492,-4.0872,-4.1651,-4.2448,-4.2846,-4.2846,-4.2882,-4.2882,-4.2882,-4.2882,-4.2882,-4.2882,-4.2882,-4.2882,-4.2882,-4.2882,-4.2882,-4.2882,-4.2882,-4.2882,-4.2882,-4.2882,-4.2882,-4.29,-4.29,-4.2882,-4.29,0.0,0.0,0.0,0.0,0.0,0.0,0.0,0.0,-1.1314,0.0,0.0,0.0,-1.1807,-1.1935,-1.2031,-1.2088,-1.2102,-1.1743,-1.0958,-1.0901,-1.0641,-1.0048,-1.0005,-1.0005,-1.0001,-0.9996,-0.9991,-0.9991,0.0,0.0,0.0,0.0,0.0,0.0,-1.6305,-1.7179,-1.8221,-1.8858,0.0,0.0,-2.0926,-2.1969,0.0,0.0,0.0,0.0,0.0,-2.5901,0.0,0.0,-2.2829,-2.0842,0.0,0.0,0.0,0.0,0.0,0.0,-1.2469,0.0,0.0,0.0,0.0,0.0,0.0,0.0,0.0,0.0,0.0,0.0,0.0,0.0,0.0,0.0,0.0,0.0,0.0,0.0,0.0,0.0,0.0,0.0,0.0,0.0,0.0,0.0,-3.8518,-3.8862,-3.9659,-4.022,-4.0619,-4.0836,-4.1615,-4.2031,-4.2031,-4.2611,-4.2882,-4.2882,-4.2882,-4.2882,-4.2882,-4.2882,-4.2882,-4.2882,-4.2882,-4.2882,-4.2882,-4.2882,-4.2882,-4.2882,-4.2882,-4.2862,-4.2822,-4.2822,-4.2765,-4.267,0.0,0.0,0.0,0.0,0.0,0.0,0.0,0.0,-1.1916,0.0,0.0,0.0,-1.3553,-1.4013,-1.4017,-1.3417,-1.3359,-1.2877,-1.1728,-1.1345,-1.0942,-1.0476,-1.0147,-0.9963,-0.9955,-0.9979,-1.0003,-1.0003,0.0,0.0,0.0,0.0,0.0,0.0,0.0,0.0,0.0,0.0,0.0,0.0,-2.1172,0.0,0.0,-2.5446,-2.6868,0.0,0.0,0.0,-2.7119,-2.6318,-2.4688,0.0,0.0,0.0,0.0,0.0,0.0,0.0,0.0,0.0,0.0,0.0,0.0,0.0,-1.7492,-1.8571,0.0,0.0,0.0,0.0,0.0,0.0,0.0,0.0,0.0,0.0,0.0,0.0,0.0,0.0,0.0,0.0,0.0,0.0,0.0,-3.7649,-3.7685,-3.8047,-3.8844,-3.9623,-4.0039,-4.0039,-4.08,-4.1216,-4.1216,-4.1669,-4.1904,-4.1904,-4.2248,-4.2393,-4.2411,-4.2737,-4.2882,-4.2882,-4.2882,-4.29,-4.288,-4.288,-4.288,-4.2824,-4.2786,-4.2765,-4.2706,-4.2706,-4.2667,-4.2609,0.0,0.0,0.0,0.0,0.0,0.0,0.0,0.0,0.0,0.0,-1.3102,-1.4178,-1.5741,-1.6553,-1.6435,-1.5067,-1.4947,-1.4288,-1.2678,-1.1896,-1.1422,-1.1241,-1.0464,-1.0038,-1.0025,-1.0005,-0.9997,-0.9997,0.0,0.0,0.0,0.0,0.0,0.0,0.0,0.0,0.0,0.0,0.0,-1.8922,-2.1472,-2.3044,0.0,0.0,-2.8048,0.0,-2.8828,-2.8828,-2.8695,-2.7896,-2.5939,0.0,0.0,0.0,0.0,0.0,-1.5445,0.0,0.0,0.0,0.0,0.0,0.0,0.0,-1.6561,-1.7662,-1.8928,0.0,0.0,0.0,0.0,0.0,0.0,0.0,0.0,0.0,0.0,0.0,0.0,0.0,0.0,0.0,0.0,-3.5765,-3.6091,-3.6798,-3.6852,-3.7214,-3.8011,-3.8735,-3.917,-3.926,-3.9985,-4.0347,-4.0347,-4.0438,-4.0492,-4.0492,-4.1198,-4.1542,-4.1578,-4.2411,-4.2755,-4.2718,-4.2846,-4.2842,-4.2783,-4.2763,-4.2783,-4.2783,-4.2649,-4.2609,-4.257,-4.257,-4.257,-4.257,-1.1158,0.0,0.0,0.0,0.0,0.0,0.0,0.0,-1.4898,-1.5594,-1.5877,-1.6164,-1.6561,-1.6798,-1.6815,-1.6577,-1.6565,-1.5896,-1.4343,-1.4082,-1.342,-1.2108,-1.1295,-1.0865,-1.0878,-1.0251,-0.9918,-0.9918,0.0,0.0,0.0,0.0,0.0,0.0,0.0,0.0,0.0,0.0,0.0,-1.8922,-2.1472,0.0,-2.4953,-2.6811,-2.8389,-2.9661,-2.9661,-2.9661,-2.9529,0.0,-2.6816,-2.4536,0.0,0.0,0.0,0.0,0.0,0.0,0.0,0.0,0.0,0.0,0.0,0.0,-1.8079,-1.8476,-1.8928,0.0,0.0,0.0,0.0,0.0,0.0,0.0,0.0,0.0,0.0,0.0,0.0,0.0,0.0,0.0,0.0,-3.5514,-3.5919,-3.6037,-3.6037,-3.6381,-3.7178,-3.7359,-3.7757,-3.8391,-3.91,-3.9445,-3.9445,-4.004,-4.0328,-4.0328,-4.049,-4.0562,-4.058,-4.1448,-4.1809,-4.1751,-4.2495,-4.2727,-4.2649,-4.2566,-4.2606,-4.2649,-4.2609,-4.2588,-4.2544,-4.2544,-4.2427,-4.2369,-1.2275,0.0,0.0,0.0,0.0,0.0,0.0,0.0,-1.602,-1.6489,-1.7336,-1.8195,-1.901,-1.9182,-1.9115,-1.8772,-1.8378,-1.7665,-1.6522,-1.5321,-1.4284,-1.3486,-1.2319,-1.1697,-1.1712,-1.0908,-1.0489,-1.0489,0.0,0.0,0.0,0.0,0.0,0.0,0.0,0.0,0.0,0.0,-1.8161,-1.9484,-2.1649,0.0,-2.5749,-2.702,-2.8502,-2.991,-2.991,-2.9874,-2.9744,-2.8915,-2.7834,0.0,0.0,-2.3404,-2.2155,0.0,-1.9952,-1.9214,0.0,0.0,0.0,-1.7539,0.0,0.0,0.0,-1.8369,-1.8763,0.0,0.0,0.0,0.0,0.0,0.0,0.0,0.0,0.0,0.0,0.0,0.0,0.0,0.0,0.0,0.0,-3.3302,-3.3855,-3.4594,-3.503,-3.5579,-3.6363,-3.6761,-3.716,-3.7576,-3.8251,-3.8579,-3.8579,-3.8941,-3.9085,-3.9122,-3.9535,-3.9715,-3.9751,-4.0959,-4.1461,-4.1459,-4.2307,-4.2627,-4.2566,-4.2486,-4.2486,-4.245,-4.245,-4.2427,-4.2405,-4.2405,-4.2346,-4.2287,-1.3396,0.0,0.0,0.0,0.0,0.0,0.0,0.0,-1.6739,-1.7125,-1.8552,-2.0047,-2.1475,-2.1733,-2.1607,-2.1204,-2.0435,-1.9659,-1.8923,0.0,-1.5432,-1.5306,-1.3653,-1.2741,-1.2741,-1.182,-1.1318,-1.1318,0.0,0.0,0.0,0.0,0.0,0.0,0.0,0.0,0.0,0.0,0.0,-2.0306,0.0,-2.4244,-2.6271,-2.7123,-2.8471,-2.9895,-2.9895,-2.9842,-2.9713,-2.9053,0.0,-2.8225,-2.617,-2.519,0.0,0.0,0.0,0.0,0.0,0.0,0.0,0.0,0.0,-1.8063,0.0,0.0,0.0,-1.884,0.0,0.0,0.0,0.0,0.0,0.0,0.0,0.0,0.0,0.0,0.0,0.0,0.0,0.0,0.0,-3.0797,-3.15,-3.2738,-3.3564,-3.4407,-3.5326,-3.5946,-3.6508,-3.7011,-3.7476,-3.7839,-3.8002,-3.7881,-3.7828,-3.7828,-3.851,-3.8834,-3.8869,-4.0271,-4.1007,-4.1148,-4.1995,-4.2404,-4.2463,-4.2463,-4.2405,-4.2287,-4.2287,-4.2287,-4.2287,-4.2287,-4.2246,-4.2264,-1.3446,-1.3562,0.0,0.0,0.0,0.0,0.0,0.0,-1.7897,-1.9415,-2.0439,-2.1414,0.0,0.0,0.0,0.0,0.0,0.0,-2.1365,0.0,-1.8474,-1.7807,-1.5584,-1.4346,-1.4346,-1.29,-1.2159,-1.2159,0.0,0.0,0.0,0.0,0.0,0.0,-1.4367,0.0,0.0,0.0,-2.0137,0.0,-2.3582,-2.5167,0.0,-2.7013,-2.8372,-2.9808,-2.9808,-2.9808,-2.9789,0.0,-2.9204,-2.8546,0.0,-2.6623,0.0,0.0,0.0,0.0,0.0,0.0,0.0,0.0,-2.0684,0.0,0.0,0.0,-1.9668,-1.9668,0.0,0.0,0.0,0.0,0.0,0.0,0.0,0.0,0.0,0.0,0.0,0.0,0.0,0.0,0.0,0.0,-3.0206,-3.0389,-3.1101,-3.2155,-3.3662,-3.3785,-3.4787,-3.6939,-3.6886,-3.718,-3.7881,-3.7739,-3.7613,-3.7631,-3.772,-3.7756,-3.7792,-3.876,-3.9511,-4.0131,-4.1053,-4.1765,-4.2328,-4.2328,-4.2328,-4.2287,-4.2287,-4.2287,-4.2287,-4.2163,-4.2103,-4.221,-1.3462,-1.3512,0.0,0.0,0.0,0.0,0.0,0.0,-1.9639,-2.169,-2.2346,0.0,0.0,0.0,0.0,0.0,0.0,-2.4478,0.0,0.0,-2.0539,-2.0241,0.0,0.0,0.0,-1.468,-1.3634,-1.3634,-1.2731,0.0,0.0,0.0,0.0,0.0,-1.5142,0.0,-1.826,0.0,0.0,0.0,0.0,0.0,0.0,-2.7888,-2.9074,-3.0433,-2.9925,-3.0039,-3.0377,0.0,-2.9512,0.0,0.0,0.0,0.0,0.0,0.0,0.0,0.0,0.0,0.0,0.0,0.0,0.0,0.0,0.0,-1.9732,0.0,0.0,0.0,0.0,0.0,0.0,0.0,0.0,0.0,0.0,0.0,0.0,0.0,0.0,0.0,0.0,0.0,0.0,0.0,-2.9375,-3.0272,-3.1347,-3.2718,-3.3905,-3.4878,-3.6107,-3.689,-3.7216,-3.7506,-3.7649,-3.7577,-3.7577,-3.7577,-3.7612,-3.8452,-3.9238,-3.995,-4.081,-4.1596,-4.2287,-4.2287,-4.2246,-4.2187,-4.2187,-4.2187,-4.2145,-4.2097,-4.2339,-4.2703,-1.4058,0.0,0.0,0.0,0.0,0.0,0.0,0.0,0.0,0.0,0.0,0.0,-2.6394,-2.7305,0.0,0.0,0.0,-2.6964,0.0,0.0,-2.2977,0.0,0.0,0.0,0.0,0.0,-1.5603,-1.5603,0.0,0.0,0.0,0.0,0.0,0.0,0.0,-1.7798,-1.9725,0.0,0.0,-2.4698,-2.5166,-2.6834,-2.9064,-2.9173,-2.9963,-3.0923,-3.0509,-3.0584,-3.0828,-3.0227,-2.987,0.0,-2.8969,0.0,0.0,0.0,0.0,0.0,-2.447,0.0,0.0,0.0,0.0,0.0,0.0,0.0,0.0,0.0,0.0,0.0,0.0,0.0,0.0,-1.9614,0.0,0.0,0.0,0.0,0.0,0.0,0.0,0.0,0.0,0.0,0.0,-2.6643,-2.7478,-2.8414,-2.9562,-3.1238,-3.2573,-3.3404,-3.4966,-3.6128,-3.6728,-3.7182,-3.7453,-3.7613,-3.7613,-3.7577,-3.7612,-3.8201,-3.9004,-3.995,-4.0521,-4.1341,-4.2246,-4.2246,-4.2163,-4.2079,-4.2019,-4.2019,-4.2055,-4.2175,-4.2599,-4.3068,-1.5583,-1.5047,0.0,0.0,0.0,0.0,0.0,0.0,0.0,0.0,0.0,0.0,0.0,0.0,0.0,0.0,0.0,-2.9602,-2.9636,0.0,-2.619,0.0,0.0,0.0,0.0,0.0,0.0,0.0,0.0,0.0,0.0,0.0,0.0,0.0,0.0,-1.8852,-1.9804,-2.1353,-2.3014,-2.4731,-2.6373,-2.8465,-3.0652,0.0,-3.0865,-3.1016,-3.1748,0.0,0.0,-3.0865,-3.034,0.0,0.0,0.0,0.0,0.0,0.0,0.0,0.0,0.0,0.0,-2.3571,0.0,0.0,0.0,0.0,-2.1801,0.0,0.0,0.0,0.0,0.0,-1.9673,-1.9614,-1.8925,0.0,0.0,0.0,0.0,0.0,0.0,0.0,0.0,0.0,0.0,-2.4247,-2.4994,-2.6432,-2.8803,-2.8864,-3.0285,-3.34,-3.337,-3.4434,-3.6759,-3.6626,-3.6933,-3.7703,-3.7613,-3.7577,-3.7577,-3.7612,-3.8469,-3.9914,-3.995,-4.0744,-4.2103,-4.2103,-4.2055,-4.2005,-4.1841,-4.1823,-4.1886,-4.2608,-4.289,-4.3092,0.0,0.0,0.0,0.0,0.0,0.0,0.0,-2.1779,0.0,0.0,0.0,0.0,0.0,0.0,-3.1691,0.0,0.0,-3.2242,-3.1268,-3.0044,0.0,0.0,0.0,-2.4801,0.0,0.0,0.0,0.0,0.0,0.0,0.0,0.0,0.0,0.0,0.0,-1.9479,0.0,0.0,0.0,0.0,0.0,-2.9978,-3.0706,0.0,0.0,-3.2393,-3.2194,-3.2268,0.0,-3.1259,-3.0696,-3.0339,-2.9795,-2.9401,-2.9008,-2.8484,-2.7942,0.0,0.0,0.0,-2.5346,-2.5069,0.0,0.0,0.0,0.0,0.0,0.0,0.0,0.0,0.0,0.0,-2.0257,-1.9685,-1.844,-1.7535,0.0,0.0,0.0,0.0,0.0,0.0,0.0,0.0,0.0,-2.2553,-2.3823,-2.4921,-2.5685,-2.7661,-2.9482,-3.1074,-3.256,-3.3936,-3.5191,-3.6155,-3.6699,-3.6915,-3.7363,-3.7577,-3.7577,-3.7577,-3.8433,-3.9914,-3.9872,-4.0682,-4.2103,-4.2055,-4.1987,-4.1841,-4.1841,-4.2071,-4.2474,-4.2738,-4.3142,-4.3775,-1.7103,0.0,0.0,0.0,0.0,0.0,0.0,0.0,0.0,0.0,-2.8346,0.0,-3.1058,0.0,-3.3173,0.0,-3.3999,-3.4193,-3.3216,-3.2511,0.0,-3.1056,-2.9072,0.0,0.0,0.0,0.0,0.0,0.0,-1.8628,0.0,0.0,0.0,0.0,0.0,0.0,0.0,0.0,-2.4721,0.0,0.0,-3.0809,0.0,0.0,-3.2213,-3.319,0.0,-3.3066,-3.3103,-3.2079,-3.1293,-3.0673,-3.0148,-2.9755,-2.9399,-2.8837,-2.8483,-2.8147,-2.755,-2.6804,0.0,-2.5855,-2.4926,0.0,-2.3705,0.0,0.0,0.0,0.0,0.0,0.0,0.0,-2.0574,-2.0088,-1.8604,-1.743,0.0,-1.6205,0.0,0.0,0.0,0.0,0.0,0.0,-2.0538,-2.1353,-2.2352,-2.3272,0.0,0.0,-2.813,-2.9464,-3.1492,-3.3038,-3.4014,-3.5504,-3.6339,-3.6539,-3.7274,-3.7577,-3.7577,-3.7577,-3.8451,-3.9854,-3.9811,-4.0618,-4.1995,-4.1945,-4.2017,-4.2176,-4.2176,-4.2607,-4.3202,-4.3202,-4.3851,-4.4869,0.0,0.0,0.0,0.0,-1.9693,0.0,0.0,0.0,-2.6114,0.0,-2.9951,-3.1694,-3.2573,-3.3454,-3.4303,-3.5101,-3.5381,0.0,-3.5464,-3.4796,0.0,0.0,-3.1841,-3.0342,-2.8953,0.0,0.0,0.0,0.0,0.0,0.0,0.0,0.0,0.0,-1.9132,0.0,-2.1955,-2.2807,-2.4598,-2.7091,-2.9558,-3.1088,-3.1949,-3.2748,-3.3134,-3.3355,-3.4124,-3.39,-3.3243,-3.3206,-3.2104,-3.0762,-3.0725,-3.0146,-2.9472,-2.9412,-2.8872,-2.8238,-2.818,-2.7566,-2.6767,-2.5987,0.0,0.0,0.0,0.0,-2.4192,0.0,0.0,0.0,0.0,0.0,0.0,-2.0696,-1.9351,-1.8011,-1.7207,0.0,0.0,0.0,0.0,0.0,0.0,-1.9036,-1.9822,-2.0588,-2.0599,0.0,0.0,0.0,-2.6235,-2.8658,-3.0176,-3.1681,-3.3238,-3.4749,-3.5836,-3.6539,-3.7274,-3.7577,-3.7577,-3.7612,-3.8429,-3.9789,-3.9824,-4.0571,-4.178,-4.178,-4.2167,-4.2816,-4.2816,-4.3272,-4.3957,-4.3957,-4.4922,-4.6172,-2.1457,-2.2096,-2.275,0.0,-2.2652,-2.2773,0.0,0.0,0.0,0.0,-3.1032,-3.2489,-3.3353,-3.4695,-3.5651,-3.5972,-3.6541,0.0,0.0,0.0,0.0,-3.4885,-3.3368,-3.2367,-3.204,-2.9427,0.0,-2.5739,0.0,0.0,-2.0193,0.0,0.0,0.0,0.0,0.0,-2.1992,-2.3398,-2.6093,-2.9566,-3.0826,-3.1806,0.0,0.0,-3.3759,-3.3846,-3.4195,-3.4186,-3.3925,-3.3392,-3.2496,-3.1483,-3.0886,-3.012,-2.9429,-2.9409,-2.924,-2.9091,-2.901,-2.8378,-2.7672,-2.7465,-2.6927,-2.6371,0.0,0.0,0.0,0.0,0.0,0.0,0.0,0.0,0.0,-2.0883,-1.9313,-1.7945,0.0,0.0,0.0,0.0,0.0,0.0,0.0,-1.9027,-1.9557,-1.9715,-2.0221,0.0,0.0,0.0,0.0,-2.7838,-2.9341,-3.0849,-3.239,-3.4461,-3.5549,-3.5715,-3.7006,-3.7577,-3.7612,-3.8109,-3.8869,-3.9807,-4.0212,-4.0923,-4.178,-4.1692,-4.2123,-4.2816,-4.2816,-4.3623,-4.4799,-4.4799,-4.5396,-4.6172,-2.3957,0.0,0.0,-2.6102,0.0,0.0,-2.6493,0.0,0.0,-3.0746,-3.2371,0.0,-3.4533,-3.5469,-3.6233,-3.6643,-3.7069,0.0,0.0,0.0,0.0,-3.5912,-3.505,-3.4146,-3.3196,-3.1163,0.0,-2.6771,0.0,0.0,-2.0967,0.0,0.0,0.0,0.0,-2.031,0.0,-2.4321,-2.7269,-3.0425,-3.1218,0.0,0.0,-3.3684,-3.3998,-3.4023,-3.4124,-3.4197,-3.411,-3.3357,-3.256,-3.1719,-3.0875,-3.0036,-2.9344,-2.9326,-2.9304,-2.9304,-2.9262,-2.8889,-2.8445,-2.8088,-2.7603,-2.7122,-2.6772,-2.6677,-2.6657,0.0,0.0,0.0,0.0,0.0,0.0,0.0,0.0,0.0,0.0,0.0,0.0,0.0,0.0,0.0,0.0,0.0,-1.9468,0.0,0.0,0.0,0.0,0.0,0.0,-2.649,-2.8637,-3.0324,-3.152,-3.4128,-3.5426,-3.5325,-3.6881,-3.7577,-3.7539,-3.8285,-3.9008,-3.9704,-4.0323,-4.1014,-4.1728,-4.2035,-4.2587,-4.336,-4.4044,-4.4834,-4.5589,-4.5589,-4.5852,-4.6172,0.0,0.0,0.0,0.0,0.0,0.0,0.0,-3.0335,0.0,-3.2336,0.0,-3.4906,-3.5703,-3.5972,-3.6365,-3.7038,0.0,-3.7297,-3.7392,-3.7392,-3.7183,-3.663,-3.6522,-3.5518,-3.3445,-3.2607,0.0,0.0,0.0,0.0,0.0,0.0,0.0,0.0,0.0,0.0,0.0,-2.5324,-2.8044,0.0,-3.1182,-3.206,-3.2988,-3.3696,-3.3972,-3.3972,-3.3972,-3.4023,-3.3969,-3.3221,-3.2428,-3.163,-3.0746,-2.9931,-2.928,-2.9218,-2.92,-2.92,-2.9178,-2.9178,-2.903,-2.8304,-2.8098,-2.7853,-2.7172,-2.6946,-2.6903,-2.6903,-2.6811,-2.6738,0.0,0.0,0.0,0.0,0.0,0.0,0.0,0.0,0.0,0.0,0.0,0.0,0.0,0.0,0.0,0.0,0.0,0.0,0.0,0.0,0.0,-2.5124,-2.8008,-2.9963,-3.0797,0.0,-3.5307,-3.5239,-3.6827,-3.7557,-3.7569,-3.8351,-3.9049,-3.9664,-4.0398,-4.1059,-4.1657,-4.2482,-4.3307,-4.4202,-4.5659,-4.6172,-4.6172,-4.6172,-4.6172,-4.6172,0.0,0.0,0.0,0.0,0.0,-3.2178,-3.2835,-3.2841,-3.2988,-3.3734,-3.4697,-3.544,-3.5675,-3.6291,-3.679,-3.7091,-3.7108,0.0,0.0,0.0,0.0,-3.7253,-3.6702,-3.5969,-3.4999,-3.3598,-3.1655,0.0,0.0,0.0,0.0,0.0,0.0,0.0,0.0,0.0,-2.4671,-2.5896,0.0,-3.1049,-3.1272,-3.2232,-3.3551,-3.3778,-3.386,-3.3842,-3.3895,-3.3947,-3.3894,-3.3099,-3.2286,-3.1473,-3.066,-2.9865,-2.9218,-2.92,-2.92,-2.9178,-2.9134,-2.913,-2.9071,-2.8856,-2.8815,-2.8778,-2.8631,-2.8549,-2.8507,-2.8507,-2.7931,-2.741,-2.741,0.0,0.0,0.0,0.0,0.0,0.0,0.0,0.0,0.0,0.0,0.0,0.0,0.0,0.0,0.0,0.0,0.0,0.0,0.0,0.0,0.0,-2.7459,0.0,0.0,0.0,-3.5307,-3.5239,-3.6701,-3.7767,-3.8424,-3.9067,-3.9741,-4.0458,-4.1104,-4.1481,-4.1657,-4.2482,-4.3641,-4.4975,-4.5888,-4.6172,-4.6172,-4.6172,-4.6172,-4.6172,0.0,0.0,0.0,0.0,0.0,0.0,0.0,-3.5685,0.0,-3.4926,-3.585,-3.6661,-3.676,-3.7504,-3.8041,-3.8105,-3.8204,-3.8302,-3.8439,-3.8461,-3.8323,-3.7972,-3.7678,0.0,-3.5882,-3.4378,-3.2473,-3.0119,0.0,0.0,-2.3154,0.0,0.0,0.0,0.0,-2.3318,0.0,0.0,0.0,-3.1253,-3.1681,-3.2584,-3.3643,-3.3671,-3.3698,-3.3698,-3.3726,-3.378,-3.3623,-3.2545,-3.193,-3.1394,-3.0116,-2.9447,-2.9134,-2.9108,-2.9108,-2.9108,-2.9062,-2.9062,-2.904,-2.9017,-2.8975,-2.8952,-2.8952,-2.8905,-2.8858,-2.8858,-2.8523,-2.8099,-2.7679,-2.6658,0.0,0.0,0.0,0.0,0.0,0.0,0.0,0.0,0.0,0.0,0.0,0.0,0.0,0.0,0.0,0.0,0.0,0.0,0.0,0.0,0.0,0.0,0.0,0.0,0.0,-3.5188,-3.6683,-3.7762,-3.8483,-3.9158,-3.9869,-4.0584,-4.1315,-4.1604,-4.1692,-4.2886,-4.429,-4.573,-4.6081,-4.6172,-4.6172,-4.6172,-4.6172,-4.6172,0.0,-3.3768,0.0,0.0,-3.5707,0.0,-3.7058,-3.7792,-3.7779,-3.6222,-3.7084,-3.7854,-3.8017,-3.8641,-3.9015,-3.9058,-3.9161,-3.9305,-3.9388,-3.9488,-3.9264,-3.8744,-3.8593,-3.7925,-3.6522,-3.5132,-3.3305,0.0,0.0,0.0,0.0,0.0,0.0,0.0,0.0,0.0,0.0,0.0,-2.9799,-3.1473,-3.2138,-3.2866,-3.3577,-3.3605,-3.3605,-3.3605,-3.3605,-3.3605,-3.3378,-3.1978,-3.1525,-3.1249,-2.9605,-2.9085,-2.9085,-2.9017,-2.8994,-2.8994,-2.897,-2.897,-2.897,-2.897,-2.8905,-2.8881,-2.8881,-2.8961,-2.9041,-2.9041,-2.9162,-2.9016,-2.8215,-2.7924,0.0,0.0,0.0,0.0,0.0,0.0,0.0,0.0,0.0,0.0,0.0,0.0,0.0,0.0,0.0,0.0,0.0,0.0,0.0,0.0,0.0,-2.9143,-3.0671,0.0,-3.5153,-3.5119,-3.6646,-3.7775,-3.8589,-3.9206,-3.9916,-4.0762,-4.1341,-4.1797,-4.2201,-4.357,-4.4975,-4.6172,-4.6172,-4.6172,-4.6172,-4.6172,-4.6172,-4.6189,0.0,0.0,0.0,0.0,0.0,0.0,0.0,-3.7993,-3.8069,-3.8122,-3.836,-3.858,-3.8685,-3.8799,-3.8877,-3.8886,-3.9058,-3.9101,-3.9161,-3.9388,-3.9453,-3.9423,-3.8757,-3.804,-3.7208,-3.5758,-3.4177,0.0,0.0,0.0,0.0,0.0,0.0,0.0,0.0,0.0,0.0,-2.8522,-2.9952,-3.2117,-3.2256,-3.2783,-3.3538,-3.3577,-3.3605,-3.3605,-3.3605,-3.3605,-3.335,-3.1772,-3.1276,-3.1052,-2.9489,-2.9017,-2.8994,-2.8929,-2.8905,-2.8905,-2.8834,-2.881,-2.881,-2.881,-2.881,-2.881,-2.881,-2.9325,-2.9802,-2.9802,-3.0313,-3.0559,-2.9743,-2.9018,-2.8232,0.0,0.0,0.0,0.0,0.0,0.0,0.0,0.0,0.0,0.0,0.0,0.0,0.0,0.0,0.0,0.0,0.0,0.0,-2.3653,0.0,-2.9143,-3.0671,-3.3702,-3.5153,-3.5119,-3.659,-3.8054,-3.9382,-3.9329,-4.0112,-4.1499,-4.1569,-4.2394,-4.3746,-4.4624,-4.5484,-4.6172,-4.6172,-4.6172,-4.6172,-4.6172,-4.6172,-4.6326,0.0,0.0,0.0,0.0,0.0,0.0,0.0,-3.9338,-3.9404,-3.9549,-3.9328,-3.9175,-3.9221,-3.979,-4.0175,-4.0221,-4.0321,-4.0393,-4.0499,-4.0587,-4.0481,-4.0127,-3.9858,-3.9141,-3.7923,-3.6925,-3.5403,0.0,0.0,0.0,0.0,0.0,0.0,0.0,0.0,-2.8252,-2.9278,-3.0233,-3.1207,-3.2108,-3.2588,-3.2949,-3.3268,-3.3298,-3.3345,-3.3422,-3.3422,-3.3452,-3.3299,-3.2219,-3.1591,-3.0951,-2.9369,-2.8881,-2.8858,-2.8858,-2.8834,-2.8834,-2.881,-2.8785,-2.8785,-2.8785,-2.8761,-2.8737,-2.8737,-2.933,-2.9842,-2.9842,-3.0468,-3.0894,-3.0568,-3.026,-2.9771,0.0,0.0,0.0,0.0,0.0,0.0,0.0,0.0,0.0,0.0,0.0,0.0,0.0,0.0,0.0,0.0,0.0,0.0,-2.4307,0.0,-2.9786,-3.1273,-3.3868,-3.5332,-3.5722,-3.7223,-3.843,-3.9405,-3.9838,-4.0604,-4.1639,-4.2113,-4.2921,-4.3957,-4.4764,-4.5536,-4.6172,-4.6172,-4.6172,-4.6291,-4.6748,-4.6923,-4.7029,-3.8289,0.0,-3.8768,0.0,-3.9629,-4.0002,-4.0611,-4.0781,-4.09,-4.09,-4.0419,-4.0018,-3.989,-4.0513,-4.1,-4.1047,-4.1105,-4.1198,-4.1307,-4.1335,-4.1181,-4.0788,-4.0612,0.0,-3.8596,-3.7711,-3.6302,-3.4429,-3.3259,0.0,0.0,0.0,0.0,0.0,-2.9412,-3.0068,-3.0384,-3.1534,-3.2146,-3.2379,-3.2901,-3.3086,-3.3086,-3.3086,-3.3165,-3.3262,-3.3262,-3.3274,-3.3207,-3.2459,-3.1891,-3.1247,-2.9933,-2.9521,-2.9496,-2.9471,-2.9471,-2.9416,-2.9155,-2.9082,-2.9028,-2.8791,-2.8876,-2.9014,-2.9014,-2.9805,-3.0568,-3.0803,-3.131,-3.1636,-3.1373,-3.1319,-3.1048,-3.0225,0.0,0.0,0.0,0.0,0.0,0.0,0.0,-2.5366,-2.4574,0.0,0.0,0.0,0.0,0.0,0.0,0.0,0.0,0.0,0.0,0.0,0.0,-3.4068,-3.5545,-3.6445,-3.7711,-3.8772,-3.9691,-4.0463,-4.1095,-4.1657,-4.2693,-4.3412,-4.3974,-4.501,-4.5747,-4.6172,-4.6172,-4.6362,-4.6642,-4.7187,-4.7538,-4.7836,-4.1165,-4.1425,-4.1666,-4.1683,-4.1871,-4.2055,-4.2072,-4.2162,-4.2269,-4.2269,-4.1766,-4.1188,-4.0717,-4.0697,-4.0745,-4.0888,-4.1029,-4.1093,-4.1093,-4.1198,-4.1255,0.0,0.0,-3.9966,-3.9305,-3.7857,-3.6717,-3.598,0.0,0.0,-3.2519,0.0,-3.0469,-3.0653,-3.0671,-3.1159,-3.1984,-3.2002,-3.2433,-3.3068,-3.3086,-3.3086,-3.3086,-3.3086,-3.3086,-3.3086,-3.3086,-3.3117,-3.3009,-3.2254,-3.2043,-3.1968,-3.1356,-3.118,-3.1154,-3.1093,-3.1066,-3.0884,-3.0015,-2.9797,-2.959,-2.8811,-2.9192,-2.9797,-2.9797,-3.1021,-3.2397,-3.3194,-3.3357,-3.311,-3.2256,-3.2083,-3.1802,-3.0923,0.0,0.0,0.0,0.0,0.0,0.0,-2.7283,-2.6983,-2.6258,0.0,0.0,0.0,0.0,0.0,0.0,0.0,0.0,-2.5846,-2.8237,0.0,-3.288,-3.4353,-3.5847,-3.7297,-3.7976,-3.9095,-4.0498,-4.1253,-4.1604,-4.1692,-4.3219,-4.3886,-4.4009,-4.5572,-4.6172,-4.6172,-4.6172,-4.6695,-4.738,-4.7397,-4.7871,-4.8608,-4.1173,-4.1385,-4.1571,-4.166,-4.1772,-4.1904,-4.2051,-4.2159,-4.2196,-4.2286,-4.2136,-4.1817,-4.1222,-4.0908,-4.0697,0.0,-4.0888,-4.1,0.0,-4.114,-4.1152,-4.1272,-4.1028,-4.0558,-3.987,-3.8951,-3.7819,-3.654,0.0,0.0,0.0,-3.3438,-3.3239,-3.2847,-3.3344,-3.3784,-3.41,-3.41,-3.4258,-3.4521,-3.4521,-3.4217,-3.377,-3.377,-3.3462,-3.3042,-3.3042,-3.3073,-3.305,-3.2816,-3.2757,-3.2751,-3.257,-3.1844,-3.1066,-3.1057,-3.103,-3.0957,-3.0704,-3.0604,-3.055,-3.0296,-3.0423,-3.0622,-3.0568,-3.1343,-3.2259,-3.3033,-3.3196,-3.3124,-3.2823,-3.2787,-3.2535,-3.175,-3.0941,0.0,0.0,0.0,0.0,0.0,-2.7569,-2.7137,0.0,-2.6153,0.0,0.0,0.0,0.0,0.0,0.0,0.0,0.0,-3.032,0.0,-3.3705,-3.5084,-3.6553,-3.8146,-3.8707,-3.9786,-4.1253,-4.1499,-4.1903,-4.2482,-4.3465,-4.4202,-4.4799,-4.58,-4.6172,-4.6172,-4.6172,-4.6695,-4.745,-4.7959,-4.8644,-4.9434,-4.1904,-4.2005,-4.2196,-4.2401,-4.2475,-4.2589,-4.2724,-4.2836,-4.2875,-4.3023,-4.2787,-4.2385,-4.1782,-4.1256,0.0,-4.0666,-4.0745,-4.084,-4.0953,-4.1,-4.1076,-4.1152,-4.1134,-4.085,-4.0103,-3.9434,0.0,-3.7184,-3.6295,-3.5308,-3.4182,-3.4641,-3.4641,-3.4252,-3.4695,-3.496,-3.5013,-3.5013,-3.5048,-3.51,-3.51,-3.4816,-3.4389,-3.4104,-3.371,-3.3262,-3.3009,-3.2948,-3.2979,-3.3042,-3.3024,-3.3055,-3.3055,-3.2481,-3.1787,-3.1787,-3.1787,-3.1733,-3.1444,-3.1372,-3.1299,-3.0992,-3.1155,-3.1462,-3.1675,-3.2085,-3.2559,-3.2996,-3.3086,-3.3086,-3.3073,-3.3055,-3.2911,-3.2414,-3.141,-3.0514,-3.0001,0.0,0.0,0.0,0.0,0.0,0.0,-2.7913,-2.7787,0.0,0.0,0.0,0.0,0.0,0.0,-2.9533,-3.1737,0.0,-3.4954,-3.6006,-3.7367,-3.8943,-3.9757,-4.0674,-4.1604,-4.1604,-4.2043,-4.2851,-4.357,-4.436,-4.5168,-4.5923,-4.6172,-4.6172,-4.6172,-4.6871,-4.7871,-4.8345,-4.9205,-5.0206,-4.3052,-4.3251,-4.3432,0.0,-4.3763,0.0,-4.3898,-4.3998,-4.4155,-4.4253,-4.3721,-4.3036,-4.2388,-4.1782,-4.1206,-4.0554,0.0,0.0,0.0,-4.084,-4.0935,-4.1064,-4.1093,-4.081,-4.0172,-3.9399,-3.8564,-3.7728,-3.6399,-3.5472,-3.4921,-3.4921,-3.4994,-3.5048,-3.5048,-3.5048,-3.503,-3.503,-3.5084,-3.5084,-3.5084,-3.5031,-3.4925,-3.4234,-3.3898,-3.3721,-3.3095,-3.2826,-3.2805,-3.2852,-3.2916,-3.2979,-3.2979,-3.3042,-3.3086,-3.3086,-3.3086,-3.2942,-3.2272,-3.2092,-3.1912,-3.1157,-3.1534,-3.2242,-3.2942,-3.3086,-3.3086,-3.3086,-3.3086,-3.3055,-3.3011,-3.2979,-3.2979,-3.2916,-3.1599,-3.0564,-3.0511,0.0,0.0,0.0,0.0,0.0,0.0,-3.0338,-3.0776,0.0,0.0,0.0,0.0,0.0,-3.0481,-3.1724,-3.2652,-3.4187,-3.6381,-3.7072,-3.8164,-3.9681,-4.0971,-4.1604,-4.1604,-4.1657,-4.2131,-4.2921,-4.3658,-4.4431,-4.5238,-4.594,-4.6172,-4.6172,-4.6172,-4.7169,-4.8521,-4.8521,-4.9521,-5.0891,0.0,0.0,-4.3432,-4.3432,-4.3568,-4.3704,-4.3898,-4.3956,-4.3998,-4.4155,-4.4102,-4.3553,-4.2294,-4.2081,-4.156,-4.029,-4.0436,-4.0534,-4.0534,-4.0697,-4.0745,-4.0793,-4.0888,-4.0849,-4.0706,-3.9482,-3.8235,-3.6963,-3.6638,-3.6399,-3.6309,-3.6309,-3.6387,-3.6503,-3.6503,-3.6524,-3.6582,-3.6582,-3.6637,-3.673,-3.673,-3.6376,-3.5791,-3.5614,-3.4801,-3.3792,-3.3597,-3.317,-3.2639,-3.2672,-3.2672,-3.2705,-3.2805,-3.287,-3.2902,-3.3055,-3.3086,-3.305,-3.2901,-3.2847,-3.2811,-3.2583,-3.266,-3.2796,-3.2975,-3.2979,-3.2948,-3.2948,-3.2948,-3.2948,-3.2916,-3.2916,-3.2916,-3.2916,-3.2063,-3.1207,-3.06,-3.019,0.0,0.0,-2.9808,-3.0273,-3.0273,-3.0481,-3.0808,0.0,0.0,0.0,0.0,-3.3633,-3.3455,-3.2616,-3.4526,-3.5811,-3.631,-3.7565,-3.8916,-4.0285,-4.1192,-4.1604,-4.1622,-4.2254,-4.2938,-4.3676,-4.4466,-4.5256,-4.5975,-4.6151,-4.6172,-4.6172,-4.6172,-4.7187,-4.8573,-4.8538,-4.9521,-5.0891,-4.2899,-4.3023,-4.3207,-4.3372,-4.3432,-4.3568,-4.3763,-4.3763,-4.3822,-4.3998,-4.4039,-4.3585,-4.2257,-4.2142,-4.1642,-4.0206,-4.0288,-4.0387,-4.0387,-4.0534,-4.06,-4.06,-4.0745,-4.0793,-4.0793,-3.9433,-3.8044,-3.6602,-3.6602,-3.6643,-3.6748,-3.6748,-3.6788,-3.6869,-3.6908,-3.693,-3.697,-3.7048,-3.7087,-3.7182,-3.7182,-3.6897,-3.6474,-3.6103,-3.5451,-3.4675,-3.4358,-3.3988,-3.3599,-3.365,-3.365,-3.365,-3.3754,-3.3523,-3.3273,-3.3387,-3.3216,-3.2993,-3.2993,-3.2993,-3.2993,-3.2993,-3.2979,-3.2948,-3.2948,-3.2916,-3.2916,-3.2916,-3.2916,-3.2916,-3.2916,-3.2916,-3.2916,-3.2916,-3.2206,-3.1546,-3.1118,-3.0743,0.0,-2.9958,-3.0582,-3.1189,-3.1564,-3.1938,-3.2474,-3.3241,-3.3705,0.0,-3.4597,-3.5346,-3.5364,-3.4526,-3.5704,-3.6684,-3.734,-3.8766,-3.9982,-4.1007,-4.1411,-4.1797,-4.2166,-4.2605,-4.3412,-4.4466,-4.4904,-4.5536,-4.6172,-4.6172,-4.6172,-4.6172,-4.6172,-4.7187,-4.8591,-4.8538,-4.9521,-5.0891,-4.2837,-4.2899,-4.2961,-4.3251,-4.3372,-4.3432,-4.3568,-4.3568,-4.3628,-4.3822,-4.3898,-4.348,-4.2316,-4.2118,-4.155,-4.0307,-4.0206,-4.0255,-4.0255,-4.0387,-4.0485,-4.0485,-4.06,-4.0648,-4.0648,-3.9279,-3.7948,-3.6634,-3.6513,-3.6544,-3.6661,-3.6661,-3.6702,-3.6702,-3.6748,-3.6788,-3.6788,-3.6908,-3.6948,-3.6948,-3.6948,-3.6948,-3.6878,-3.6211,-3.584,-3.5685,-3.5148,-3.4868,-3.4763,-3.4853,-3.4889,-3.4889,-3.4871,-3.4465,-3.3952,-3.3969,-3.3592,-3.3137,-3.2905,-3.2884,-3.2884,-3.2884,-3.2916,-3.2916,-3.2916,-3.2973,-3.3062,-3.3062,-3.3152,-3.3205,-3.308,-3.3062,-3.3027,-3.2934,-3.2313,-3.1831,-3.1706,0.0,-3.0868,-3.0868,-3.1564,-3.2367,-3.3152,-3.3865,-3.4579,-3.5328,-3.5382,-3.5435,-3.556,-3.6328,-3.672,-3.672,-3.6666,-3.7376,-3.8901,-4.0029,-4.0918,-4.1604,-4.1604,-4.2026,-4.2816,-4.2921,-4.3746,-4.5115,-4.522,-4.5624,-4.6172,-4.6172,-4.6172,-4.6172,-4.6172,-4.7187,-4.8591,-4.8538,-4.9521,-5.0891,-4.2634,-4.2775,-4.2899,-4.2961,-4.319,-4.3388,-4.3449,-4.3509,-4.3628,-4.3628,-4.3763,-4.3564,-4.2705,-4.22,-4.1624,-4.0735,-4.0254,-4.0003,-4.0138,-4.0238,-4.0355,-4.0355,-4.0436,-4.0534,-4.0534,-3.914,-3.8002,-3.7188,-3.6586,-3.6402,-3.6544,-3.6544,-3.6602,-3.6702,-3.6702,-3.6742,-3.6742,-3.6742,-3.6742,-3.6742,-3.6742,-3.6742,-3.6725,-3.6603,-3.6133,-3.5523,-3.5553,-3.5119,-3.4579,-3.4707,-3.4725,-3.4744,-3.4799,-3.4764,-3.4658,-3.4712,-3.4641,-3.4304,-3.2993,-3.2722,-3.2838,-3.2884,-3.2916,-3.2916,-3.2916,-3.3419,-3.3919,-3.3919,-3.4418,-3.465,-3.4026,-3.3919,-3.3687,-3.2991,-3.2809,-3.2474,-3.1796,0.0,-3.2541,-3.2541,-3.3241,-3.4026,-3.4775,-3.4972,-3.5364,-3.6149,-3.6203,-3.6506,-3.7184,-3.7877,-3.8285,-3.8285,-3.8247,-3.8915,-4.0288,-4.0426,-4.0893,-4.1604,-4.1604,-4.2026,-4.2833,-4.3447,-4.4237,-4.5133,-4.5782,-4.6116,-4.6172,-4.6172,-4.6172,-4.6172,-4.6172,-4.7169,-4.8521,-4.8521,-4.9521,-5.0891,-4.2508,-4.2634,-4.2759,-4.2899,-4.3023,-4.3146,-4.3251,-4.3372,-4.3492,-4.3492,-4.3628,-4.3464,-4.2798,-4.2172,-4.151,-4.0866,-4.0165,-3.9833,-3.9884,-4.0087,-4.0188,-4.0188,-4.0337,-4.0248,-3.9887,-3.9251,-3.8374,-3.7165,-3.6938,-3.6646,-3.6335,-3.636,-3.6444,-3.6502,-3.6544,-3.6602,-3.6602,-3.6661,-3.6702,-3.6702,-3.6702,-3.6702,-3.6702,-3.6702,-3.6475,-3.6145,-3.6202,-3.6016,-3.5684,-3.5741,-3.5797,-3.578,-3.5878,-3.558,-3.5302,-3.5379,-3.4853,-3.4163,-3.3455,-3.2976,-3.269,-3.2737,-3.3075,-3.3395,-3.3395,-3.3999,-3.4516,-3.4516,-3.4869,-3.5046,-3.4707,-3.467,-3.4454,-3.3669,-3.3544,0.0,0.0,-3.3312,-3.3687,-3.4079,-3.4472,-3.5007,-3.5774,-3.5846,-3.6185,-3.6988,-3.7041,-3.738,-3.8091,-3.8445,-3.8759,-3.9067,-3.9451,-3.9976,-4.0549,-4.0928,-4.1253,-4.1604,-4.2043,-4.2658,-4.3412,-4.4185,-4.4975,-4.573,-4.6081,-4.6172,-4.6172,-4.6172,-4.6172,-4.6172,-4.6172,-4.7169,-4.8521,-4.8521,-4.9521,-5.0891,-4.2318,-4.2445,-4.2634,-4.2775,-4.2837,-4.2945,-4.3052,-4.319,-4.3312,-4.3312,-4.3432,-4.3396,-4.2933,-4.2252,-4.1649,-4.0992,-4.0311,-3.9826,-3.9642,-3.9884,-4.002,-4.0037,-4.0188,-4.0033,-3.9552,-3.943,-3.8764,-3.7604,-3.7353,-3.6962,-3.6397,-3.6277,-3.6259,-3.6259,-3.636,-3.6461,-3.6444,-3.6544,-3.6602,-3.6602,-3.6602,-3.6602,-3.6602,-3.6602,-3.6602,-3.6602,-3.6643,-3.6643,-3.6643,-3.6702,-3.6702,-3.6702,-3.6748,-3.6404,-3.5933,-3.5976,-3.5164,-3.42,-3.4058,-3.358,-3.3103,-3.3137,-3.3615,-3.4075,-3.4075,-3.4659,-3.519,-3.519,-3.5403,-3.5545,-3.5368,-3.535,-3.517,-3.4405,0.0,0.0,0.0,-3.4331,-3.465,-3.54,-3.5489,-3.581,-3.6595,-3.6684,-3.7006,-3.7754,-3.7825,-3.8127,-3.8795,-3.8968,-3.935,-3.9958,-4.0363,-4.0619,-4.0744,-4.1323,-4.1604,-4.1604,-4.2429,-4.3202,-4.3921,-4.4729,-4.5519,-4.6172,-4.6172,-4.6172,-4.6172,-4.6172,-4.6172,-4.6172,-4.6172,-4.7169,-4.8521,-4.8521,-4.9521,-5.0891,-4.2125,-4.2318,-4.2445,-4.2445,-4.2696,-4.2899,-4.2899,-4.3052,-4.3113,-4.3113,-4.3295,-4.3416,-4.335,-4.2824,-4.2154,-4.1409,-4.0862,-4.0234,-3.9534,-3.9642,-3.9781,-3.9901,-4.0037,-4.0104,-4.0053,-3.9491,-3.9149,-3.9047,-3.7757,-3.7086,-3.7018,-3.6361,-3.6079,-3.6225,-3.6225,-3.6251,-3.6301,-3.6343,-3.6343,-3.6343,-3.6343,-3.6343,-3.6343,-3.6343,-3.6343,-3.636,-3.6444,-3.6502,-3.6544,-3.6643,-3.6702,-3.6702,-3.6702,-3.6667,-3.6615,-3.6615,-3.6103,-3.5437,-3.4886,-3.4675,-3.4658,-3.4712,-3.4783,-3.4836,-3.4836,-3.5456,-3.6003,-3.6003,-3.6624,-3.6907,-3.6164,-3.604,-3.5774,-3.496,0.0,0.0,-3.5012,-3.5064,-3.5435,-3.6221,-3.631,-3.6631,-3.7416,-3.7487,-3.779,-3.846,-3.8513,-3.883,-3.9492,-4.0135,-4.0768,-4.1411,-4.0858,-4.0814,-4.1516,-4.1569,-4.1604,-4.1604,-4.2429,-4.3202,-4.3921,-4.4729,-4.5519,-4.6172,-4.6172,-4.6172,-4.6172,-4.6172,-4.6172,-4.6172,-4.6172,-4.7169,-4.8521,-4.8521,-4.9521,-5.0891,-4.1963,-4.2125,-4.2238,-4.2381,-4.2508,-4.2634,-4.2696,-4.2883,-4.2945,-4.2945,-4.3113,-4.3235,-4.3235,-4.273,-4.2261,-4.1981,-4.1442,-4.0785,-4.0109,-4.0167,-4.0127,-3.9918,-3.9935,-4.0037,-4.007,-3.9867,-3.9544,-3.9103,-3.8622,-3.8142,-3.7631,-3.699,-3.6737,-3.672,-3.6285,-3.6105,-3.6088,-3.6088,-3.6088,-3.6088,-3.6088,-3.6148,-3.6251,-3.6251,-3.6276,-3.6301,-3.6343,-3.6402,-3.6385,-3.6444,-3.6444,-3.6461,-3.6544,-3.6602,-3.6602,-3.6661,-3.6533,-3.6277,-3.6103,-3.539,-3.4744,-3.478,-3.5132,-3.5467,-3.5467,-3.6083,-3.6664,-3.6664,-3.6914,-3.7058,-3.6776,-3.6799,-3.6589,-3.5755,0.0,-3.5722,-3.5722,-3.574,-3.6078,-3.6859,-3.6966,-3.7072,-3.7374,-3.7836,-3.8188,-3.8451,-3.8929,-3.9509,-4.0164,-4.0873,-4.135,-4.1587,-4.1323,-4.1323,-4.1604,-4.1604,-4.185,-4.2359,-4.3131,-4.3886,-4.4676,-4.5449,-4.5958,-4.6172,-4.6172,-4.6172,-4.6172,-4.6172,-4.6172,-4.6274,-4.6765,-4.759,-4.8573,-4.9065,-4.9943,-5.0891,-4.2166,-4.2457,-4.2652,-4.2558,-4.2639,-4.2703,-4.254,-4.2696,-4.2837,-4.2837,-4.2945,-4.3068,-4.3068,-4.2747,-4.243,-4.22,-4.1898,-4.1418,-4.0707,-4.0569,-4.0321,-3.9883,-3.9849,-3.9884,-3.9969,-4.0037,-3.9783,-3.9294,-3.9156,-3.8863,-3.8303,-3.7636,-3.7371,-3.7337,-3.6853,-3.6631,-3.6659,-3.642,-3.6334,-3.6317,-3.6078,-3.6079,-3.6122,-3.6122,-3.6165,-3.6216,-3.6216,-3.6216,-3.6276,-3.6276,-3.6259,-3.6301,-3.6402,-3.6444,-3.6444,-3.6602,-3.6643,-3.6643,-3.6748,-3.6059,-3.5349,-3.5407,-3.5794,-3.618,-3.618,-3.6584,-3.6987,-3.6987,-3.7048,-3.7069,-3.7069,-3.7126,-3.7044,-3.6458,-3.6408,-3.6408,-3.6408,-3.6445,-3.6695,-3.7226,-3.7509,-3.7668,-3.7668,-3.832,-3.8868,-3.9075,-3.9587,-4.02,-4.0891,-4.1367,-4.1727,-4.1973,-4.199,-4.2096,-4.2324,-4.2096,-4.2254,-4.2816,-4.3799,-4.4571,-4.5133,-4.5888,-4.6172,-4.6172,-4.6172,-4.6172,-4.6172,-4.6172,-4.6379,-4.6642,-4.7187,-4.8012,-4.8942,-4.9486,-5.0188,-5.0891,-4.2695,-4.3384,-4.3775,-4.3043,-4.3165,-4.3202,-4.2494,-4.2508,-4.2634,-4.2634,-4.2759,-4.2899,-4.2899,-4.3007,-4.2818,-4.2081,-4.2183,-4.2021,-4.128,-4.074,-4.0213,-3.9728,-3.9677,-3.9677,-3.9677,-3.9833,-3.9901,-3.9901,-3.931,-3.9005,-3.8988,-3.8261,-3.7936,-3.801,-3.801,-3.8057,-3.8162,-3.7427,-3.712,-3.7052,-3.63,-3.6036,-3.6036,-3.6036,-3.6036,-3.6036,-3.6036,-3.6096,-3.6242,-3.6242,-3.6251,-3.6318,-3.6318,-3.6318,-3.6343,-3.6444,-3.6502,-3.6544,-3.6643,-3.6702,-3.6742,-3.6948,-3.6987,-3.6987,-3.6987,-3.6987,-3.6987,-3.6987,-3.6987,-3.6987,-3.6987,-3.6987,-3.6987,-3.6987,-3.7048,-3.7108,-3.7108,-3.722,-3.7314,-3.7314,-3.7948,-3.8408,-3.8408,-3.9115,-3.9852,-4.0563,-4.0616,-4.0926,-4.1552,-4.1604,-4.199,-4.278,-4.2816,-4.3167,-4.3886,-4.3184,-4.2816,-4.2851,-4.4378,-4.5098,-4.5133,-4.5888,-4.6172,-4.6172,-4.6172,-4.6172,-4.6172,-4.6239,-4.6695,-4.7397,-4.7397,-4.8345,-4.9679,-4.9697,-5.0206,-5.0891,-4.3406,-4.3579,-4.3796,-4.3711,-4.3317,-4.3035,-4.2991,-4.2655,-4.2445,-4.2445,-4.2571,-4.2696,-4.2696,-4.2821,-4.2863,-4.2635,-4.2802,-4.2627,-4.1979,-4.1411,-4.0851,-4.0247,-3.9768,-3.959,-3.9677,-3.9729,-3.9781,-3.9781,-3.9563,-3.9496,-3.9496,-3.8824,-3.852,-3.8535,-3.8108,-3.7936,-3.7967,-3.7746,-3.7661,-3.7628,-3.7407,-3.7381,-3.7393,-3.7393,-3.7439,-3.7547,-3.7547,-3.7592,-3.7592,-3.7592,-3.7638,-3.7535,-3.7127,-3.7042,-3.7025,-3.6515,-3.6343,-3.6402,-3.6502,-3.6544,-3.6602,-3.6766,-3.6829,-3.6869,-3.6869,-3.6948,-3.6987,-3.6987,-3.6987,-3.6987,-3.6987,-3.6987,-3.6987,-3.6987,-3.7009,-3.7202,-3.773,-3.7857,-3.8068,-3.8631,-3.8895,-3.9036,-3.9036,-3.9757,-4.0303,-4.0489,-4.0998,-4.1402,-4.1587,-4.2148,-4.2552,-4.2798,-4.3307,-4.3676,-4.3904,-4.3676,-4.3851,-4.4431,-4.4887,-4.5378,-4.5905,-4.6084,-4.6172,-4.6172,-4.6172,-4.6172,-4.6224,-4.6818,-4.7187,-4.7503,-4.8573,-4.9276,-4.975,-5.0311,-5.068,-5.0891,-4.3976,-4.4283,-4.4464,-4.4304,-4.396,-4.3647,-4.3543,-4.3087,-4.2752,-4.28,-4.2622,-4.2571,-4.2571,-4.2696,-4.2775,-4.2775,-4.2945,-4.2757,-4.2216,-4.1856,-4.1354,-4.0717,-4.01,-3.9677,-3.9537,-3.9573,-3.9642,-3.9642,-3.9677,-3.9677,-3.9661,-3.9345,-3.9143,-3.9126,-3.8773,-3.8621,-3.8653,-3.8366,-3.8297,-3.8311,-3.8024,-3.7919,-3.795,-3.795,-3.7997,-3.8091,-3.8091,-3.8091,-3.8103,-3.812,-3.8167,-3.8145,-3.7792,-3.7744,-3.7747,-3.7266,-3.6965,-3.6809,-3.6869,-3.6644,-3.6444,-3.6502,-3.6626,-3.6748,-3.6748,-3.6829,-3.6869,-3.6869,-3.6869,-3.6869,-3.6908,-3.6908,-3.7036,-3.7374,-3.7426,-3.769,-3.848,-3.8585,-3.8778,-3.9252,-3.9585,-3.9779,-3.9779,-4.0463,-4.0937,-4.0937,-4.1341,-4.1745,-4.2061,-4.2552,-4.3079,-4.3693,-4.4132,-4.4518,-4.4817,-4.4817,-4.4922,-4.5098,-4.5414,-4.5782,-4.6172,-4.6172,-4.6172,-4.6172,-4.6172,-4.6397,-4.6713,-4.7204,-4.7748,-4.8398,-4.9328,-4.9872,-5.0224,-5.0715,-5.0891,-5.0891,-4.4526,-4.5205,-4.5602,-4.4922,-4.4906,-4.4792,-4.4188,-4.3639,-4.3277,-4.3378,-4.2816,-4.2509,-4.2571,-4.2571,-4.2571,-4.2634,-4.2759,-4.2668,-4.2103,-4.2114,-4.1862,-4.1288,-4.0614,-4.0034,-3.9487,-3.9462,-3.9501,-3.9501,-3.9573,-3.9677,-3.9677,-3.9677,-3.9677,-3.9677,-3.9677,-3.9781,-3.985,-3.9143,-3.8958,-3.8973,-3.8314,-3.806,-3.806,-3.806,-3.8108,-3.8108,-3.8108,-3.817,-3.8214,-3.8184,-3.8278,-3.8355,-3.8286,-3.8379,-3.8471,-3.8385,-3.7978,-3.7577,-3.7577,-3.7042,-3.6508,-3.6508,-3.671,-3.6835,-3.6737,-3.6702,-3.6702,-3.6702,-3.6702,-3.676,-3.6876,-3.6893,-3.7161,-3.8053,-3.8175,-3.8456,-3.9263,-3.941,-3.9445,-3.9515,-4.0147,-4.0586,-4.0586,-4.12,-4.1604,-4.1604,-4.1604,-4.1955,-4.2763,-4.2868,-4.357,-4.5045,-4.5168,-4.5536,-4.6172,-4.6172,-4.5888,-4.522,-4.5905,-4.6172,-4.6172,-4.6172,-4.6172,-4.6172,-4.6172,-4.6677,-4.7397,-4.7467,-4.8363,-4.9697,-4.9767,-5.0241,-5.0891,-5.0891,-5.0891,-5.0891,-4.5206,-4.5405,-4.5541,-4.553,-4.5096,-4.474,-4.4598,-4.4151,-4.3635,-4.3113,-4.2988,-4.2896,-4.2509,-4.2445,-4.2508,-4.2571,-4.2759,-4.2834,-4.2733,-4.2823,-4.2539,-4.1878,-4.1697,-4.1304,-4.0631,-3.9759,-3.9325,-3.9325,-3.9379,-3.9379,-3.9379,-3.9484,-3.9537,-3.9537,-3.9625,-3.9729,-3.9713,-3.9562,-3.9546,-3.9529,-3.9361,-3.9311,-3.9311,-3.943,-3.948,-3.948,-3.9564,-3.9647,-3.963,-3.9647,-3.9746,-3.9759,-3.918,-3.9088,-3.9063,-3.8448,-3.8203,-3.8219,-3.8219,-3.8143,-3.8094,-3.8094,-3.8138,-3.7888,-3.678,-3.6643,-3.6702,-3.6702,-3.6702,-3.6876,-3.745,-3.7554,-3.7857,-3.8607,-3.8796,-3.9178,-3.9983,-4.0175,-4.0446,-4.1025,-4.1271,-4.1358,-4.1358,-4.1516,-4.1604,-4.1604,-4.1604,-4.1955,-4.2763,-4.336,-4.4097,-4.5062,-4.5677,-4.6063,-4.6172,-4.6172,-4.6102,-4.5975,-4.6102,-4.6172,-4.6172,-4.6172,-4.6172,-4.6172,-4.6172,-4.6677,-4.7432,-4.8029,-4.8837,-4.975,-5.0382,-5.0733,-5.0891,-5.0891,-5.0891,-5.0891,-4.5188,-4.5278,-4.5442,-4.5589,-4.5347,-4.5095,-4.5238,-4.4725,-4.4098,-4.352,-4.3206,-4.286,-4.2334,-4.2254,-4.2318,-4.2508,-4.2571,-4.2696,-4.2759,-4.2805,-4.2704,-4.2451,-4.2092,-4.1749,-4.1508,-4.0252,-3.9622,-3.9676,-3.933,-3.9218,-3.9272,-3.9379,-3.9379,-3.9395,-3.9484,-3.952,-3.959,-3.959,-3.9625,-3.9677,-3.9677,-3.9677,-3.9729,-3.9781,-3.9781,-3.9833,-3.9935,-4.0037,-4.007,-4.007,-4.0138,-4.012,-3.9747,-3.9727,-3.9739,-3.933,-3.905,-3.887,-3.89,-3.8734,-3.8504,-3.8594,-3.8594,-3.8432,-3.7681,-3.7551,-3.7594,-3.7594,-3.7594,-3.7758,-3.82,-3.8287,-3.853,-3.9338,-3.9547,-3.9853,-4.062,-4.0769,-4.1016,-4.1463,-4.1515,-4.1515,-4.1604,-4.1604,-4.1604,-4.1604,-4.1973,-4.2517,-4.3289,-4.4044,-4.4834,-4.5607,-4.6028,-4.6172,-4.6172,-4.6172,-4.6172,-4.6172,-4.6172,-4.6172,-4.6172,-4.6172,-4.6172,-4.6172,-4.6172,-4.6871,-4.7959,-4.8345,-4.9205,-5.0294,-5.0733,-5.0891,-5.0891,-5.0801,-5.0692,-5.0655,-4.4874,-4.5039,-4.5204,-4.5442,-4.5442,-4.5515,-4.5735,-4.5214,-4.4654,-4.4198,-4.3468,-4.282,-4.2301,-4.2173,-4.2174,-4.2318,-4.2381,-4.2381,-4.2508,-4.2571,-4.2634,-4.2837,-4.2252,-4.1987,-4.2076,-4.0876,-4.0148,-4.0071,-3.9331,-3.904,-3.9218,-3.9218,-3.9272,-3.9272,-3.9272,-3.9379,-3.9448,-3.9448,-3.9537,-3.9625,-3.9625,-3.9625,-3.9625,-3.9677,-3.9677,-3.9677,-3.9849,-3.9935,-4.0037,-4.0087,-4.0087,-4.0087,-4.007,-4.0188,-4.0255,-4.0255,-3.9912,-3.9563,-3.9641,-3.9225,-3.8809,-3.8946,-3.8946,-3.8974,-3.8991,-3.8784,-3.8594,-3.8594,-3.8594,-3.8674,-3.8918,-3.8936,-3.924,-4.011,-4.0231,-4.0485,-4.1094,-4.1209,-4.1255,-4.1363,-4.138,-4.1408,-4.1498,-4.1542,-4.1612,-4.1753,-4.2321,-4.3138,-4.4015,-4.4681,-4.54,-4.6154,-4.6172,-4.6172,-4.6172,-4.6172,-4.6172,-4.6172,-4.6172,-4.6172,-4.6172,-4.6172,-4.6172,-4.6172,-4.6172,-4.7099,-4.8521,-4.8469,-4.9398,-5.0819,-5.0819,-5.0819,-5.0764,-5.062,-5.0509,-5.0415,-4.4874,-4.4949,-4.5039,-4.522,-4.522,-4.5294,-4.5515,-4.5437,-4.518,-4.467,-4.399,-4.3363,-4.2836,-4.2412,-4.2109,-4.2109,-4.2109,-4.2174,-4.2174,-4.2318,-4.2445,-4.2445,-4.2474,-4.2488,-4.255,-4.1756,-4.0912,-3.9959,-3.9165,-3.886,-3.886,-3.8969,-3.9023,-3.904,-3.9202,-3.9325,-3.9325,-3.9325,-3.9325,-3.9325,-3.9325,-3.9325,-3.9379,-3.9484,-3.9554,-3.9537,-3.9677,-3.9729,-3.9781,-3.9884,-3.9952,-3.9952,-4.007,-4.0121,-4.0138,-4.0138,-4.017,-4.0201,-4.0201,-4.0214,-4.0226,-4.0388,-4.0435,-4.0435,-4.0578,-3.9543,-3.8594,-3.8594,-3.8594,-3.8784,-3.9485,-3.9606,-3.9848,-4.0642,-4.0891,-4.0972,-4.1076,-4.1134,-4.1209,-4.1209,-4.1209,-4.1255,-4.1255,-4.1255,-4.1533,-4.223,-4.2387,-4.3084,-4.453,-4.4785,-4.5254,-4.6005,-4.6122,-4.6172,-4.6172,-4.6172,-4.6172,-4.6172,-4.6172,-4.6172,-4.6172,-4.6172,-4.6172,-4.6172,-4.6172,-4.7099,-4.8469,-4.8365,-4.9257,-5.0657,-5.0509,-5.0471,-5.0471,-5.0471,-5.0415,-5.0397,-4.4723,-4.4723,-4.4814,-4.4964,-4.5039,-4.5129,-4.5294,-4.5368,-4.5175,-4.4582,-4.3976,-4.3368,-4.2877,-4.2214,-4.1866,-4.2012,-4.2012,-4.1996,-4.2109,-4.2174,-4.2238,-4.2238,-4.2302,-4.2365,-4.2508,-4.1798,-4.1257,-4.0864,-3.9813,-3.9103,-3.8805,-3.886,-3.8914,-3.8914,-3.8969,-3.904,-3.9148,-3.9148,-3.9218,-3.9272,-3.9272,-3.9272,-3.9325,-3.9379,-3.9395,-3.9395,-3.9537,-3.9642,-3.9729,-3.9781,-3.9781,-3.9781,-3.9935,-3.9986,-3.9986,-4.0087,-4.0138,-4.0188,-4.0305,-4.0337,-4.0436,-4.0534,-4.0583,-4.0583,-4.068,-4.0212,-3.9778,-3.9871,-3.9871,-3.9957,-4.0302,-4.0353,-4.0474,-4.0819,-4.0935,-4.1,-4.1,-4.1012,-4.1041,-4.1169,-4.118,-4.1209,-4.1209,-4.1609,-4.2027,-4.2375,-4.321,-4.3993,-4.4672,-4.5157,-4.554,-4.5871,-4.5922,-4.6023,-4.6073,-4.6073,-4.6122,-4.6172,-4.6172,-4.6172,-4.6172,-4.6172,-4.6172,-4.6189,-4.6122,-4.6947,-4.8365,-4.8242,-4.9114,-5.0492,-5.0397,-5.0341,-5.0302,-5.0302,-5.0246,-5.0149]}]]